<?xml version="1.0" encoding="UTF-8" standalone="no" ?>
<gpx xmlns="http://www.topografix.com/GPX/1/1" xmlns:xsi="http://www.w3.org/2001/XMLSchema-instance" xsi:schemaLocation="http://www.topografix.com/GPX/1/1 http://www.topografix.com/GPX/1/1/gpx.xsd" version="1.1" creator="VisuGPX - https://www.visugpx.com">
  <metadata>
    <name>gtmc 2026 + étapes OK</name>
  </metadata>
  <trk>
    <name><![CDATA[gtmc 2026]]></name>
    <extensions>
      <line xmlns="http://www.topografix.com/GPX/gpx_style/0/2">
        <color>0000FF</color>
        <opacity>1</opacity>
        <width>4</width>
      </line>
    </extensions>
    <trkseg>
      <trkpt lat="45.77868" lon="3.09984">
        <ele>360</ele>
        <time>2025-06-06T09:41:17Z</time>
      </trkpt>
      <trkpt lat="45.77915" lon="3.10077">
        <ele>361</ele>
        <time>2025-06-06T09:41:36Z</time>
      </trkpt>
      <trkpt lat="45.77931" lon="3.10084">
        <ele>361</ele>
        <time>2025-06-06T09:41:40Z</time>
      </trkpt>
      <trkpt lat="45.77939" lon="3.10067">
        <ele>361</ele>
        <time>2025-06-06T09:41:43Z</time>
      </trkpt>
      <trkpt lat="45.77938" lon="3.10049">
        <ele>361</ele>
        <time>2025-06-06T09:41:46Z</time>
      </trkpt>
      <trkpt lat="45.7789" lon="3.09956">
        <ele>361</ele>
        <time>2025-06-06T09:42:05Z</time>
      </trkpt>
      <trkpt lat="45.7788" lon="3.09931">
        <ele>361</ele>
        <time>2025-06-06T09:42:09Z</time>
      </trkpt>
      <trkpt lat="45.77888" lon="3.09904">
        <ele>362</ele>
        <time>2025-06-06T09:42:14Z</time>
      </trkpt>
      <trkpt lat="45.77948" lon="3.09309">
        <ele>378</ele>
        <time>2025-06-06T09:43:52Z</time>
      </trkpt>
      <trkpt lat="45.77955" lon="3.09259">
        <ele>380</ele>
        <time>2025-06-06T09:44:00Z</time>
      </trkpt>
      <trkpt lat="45.77961" lon="3.09252">
        <ele>380</ele>
        <time>2025-06-06T09:44:02Z</time>
      </trkpt>
      <trkpt lat="45.77969" lon="3.09228">
        <ele>381</ele>
        <time>2025-06-06T09:44:07Z</time>
      </trkpt>
      <trkpt lat="45.7797" lon="3.09204">
        <ele>382</ele>
        <time>2025-06-06T09:44:10Z</time>
      </trkpt>
      <trkpt lat="45.77994" lon="3.09153">
        <ele>384</ele>
        <time>2025-06-06T09:44:21Z</time>
      </trkpt>
      <trkpt lat="45.7812" lon="3.09148">
        <ele>379</ele>
        <time>2025-06-06T09:44:50Z</time>
      </trkpt>
      <trkpt lat="45.78152" lon="3.08889">
        <ele>382</ele>
        <time>2025-06-06T09:45:33Z</time>
      </trkpt>
      <trkpt lat="45.7815" lon="3.0885">
        <ele>383</ele>
        <time>2025-06-06T09:45:39Z</time>
      </trkpt>
      <trkpt lat="45.78155" lon="3.0884">
        <ele>383</ele>
        <time>2025-06-06T09:45:41Z</time>
      </trkpt>
      <trkpt lat="45.78181" lon="3.08672">
        <ele>378</ele>
        <time>2025-06-06T09:46:09Z</time>
      </trkpt>
      <trkpt lat="45.78189" lon="3.08524">
        <ele>374</ele>
        <time>2025-06-06T09:46:33Z</time>
      </trkpt>
      <trkpt lat="45.78226" lon="3.08475">
        <ele>372</ele>
        <time>2025-06-06T09:46:45Z</time>
      </trkpt>
      <trkpt lat="45.78281" lon="3.08455">
        <ele>370</ele>
        <time>2025-06-06T09:46:58Z</time>
      </trkpt>
      <trkpt lat="45.78311" lon="3.08424">
        <ele>369</ele>
        <time>2025-06-06T09:47:07Z</time>
      </trkpt>
      <trkpt lat="45.78479" lon="3.08474">
        <ele>373</ele>
        <time>2025-06-06T09:47:47Z</time>
      </trkpt>
      <trkpt lat="45.78535" lon="3.08478">
        <ele>373</ele>
        <time>2025-06-06T09:48:00Z</time>
      </trkpt>
      <trkpt lat="45.78716" lon="3.08456">
        <ele>374</ele>
        <time>2025-06-06T09:48:43Z</time>
      </trkpt>
      <trkpt lat="45.78891" lon="3.08425">
        <ele>377</ele>
        <time>2025-06-06T09:49:24Z</time>
      </trkpt>
      <trkpt lat="45.78995" lon="3.08424">
        <ele>379</ele>
        <time>2025-06-06T09:49:48Z</time>
      </trkpt>
      <trkpt lat="45.79035" lon="3.08411">
        <ele>380</ele>
        <time>2025-06-06T09:49:58Z</time>
      </trkpt>
      <trkpt lat="45.79047" lon="3.08428">
        <ele>380</ele>
        <time>2025-06-06T09:50:02Z</time>
      </trkpt>
      <trkpt lat="45.79065" lon="3.0842">
        <ele>380</ele>
        <time>2025-06-06T09:50:06Z</time>
      </trkpt>
      <trkpt lat="45.79064" lon="3.08401">
        <ele>380</ele>
        <time>2025-06-06T09:50:09Z</time>
      </trkpt>
      <trkpt lat="45.7912" lon="3.08405">
        <ele>382</ele>
        <time>2025-06-06T09:50:22Z</time>
      </trkpt>
      <trkpt lat="45.79274" lon="3.0843">
        <ele>389</ele>
        <time>2025-06-06T09:50:58Z</time>
      </trkpt>
      <trkpt lat="45.79497" lon="3.08501">
        <ele>397</ele>
        <time>2025-06-06T09:51:52Z</time>
      </trkpt>
      <trkpt lat="45.79564" lon="3.0854">
        <ele>404</ele>
        <time>2025-06-06T09:52:09Z</time>
      </trkpt>
      <trkpt lat="45.79725" lon="3.08578">
        <ele>422</ele>
        <time>2025-06-06T09:52:47Z</time>
      </trkpt>
      <trkpt lat="45.79815" lon="3.08551">
        <ele>431</ele>
        <time>2025-06-06T09:53:08Z</time>
      </trkpt>
      <trkpt lat="45.79943" lon="3.08553">
        <ele>447</ele>
        <time>2025-06-06T09:53:38Z</time>
      </trkpt>
      <trkpt lat="45.80017" lon="3.08618">
        <ele>458</ele>
        <time>2025-06-06T09:53:58Z</time>
      </trkpt>
      <trkpt lat="45.80298" lon="3.08695">
        <ele>479</ele>
        <time>2025-06-06T09:55:05Z</time>
      </trkpt>
      <trkpt lat="45.80443" lon="3.08694">
        <ele>495</ele>
        <time>2025-06-06T09:55:39Z</time>
      </trkpt>
      <trkpt lat="45.80571" lon="3.08627">
        <ele>509</ele>
        <time>2025-06-06T09:56:11Z</time>
      </trkpt>
      <trkpt lat="45.80609" lon="3.08583">
        <ele>516</ele>
        <time>2025-06-06T09:56:22Z</time>
      </trkpt>
      <trkpt lat="45.80685" lon="3.08412">
        <ele>534</ele>
        <time>2025-06-06T09:56:55Z</time>
      </trkpt>
      <trkpt lat="45.80691" lon="3.08388">
        <ele>537</ele>
        <time>2025-06-06T09:56:59Z</time>
      </trkpt>
      <trkpt lat="45.80686" lon="3.08328">
        <ele>544</ele>
        <time>2025-06-06T09:57:09Z</time>
      </trkpt>
      <trkpt lat="45.80705" lon="3.08304">
        <ele>546</ele>
        <time>2025-06-06T09:57:15Z</time>
      </trkpt>
      <trkpt lat="45.80789" lon="3.084">
        <ele>537</ele>
        <time>2025-06-06T09:57:40Z</time>
      </trkpt>
      <trkpt lat="45.80857" lon="3.08429">
        <ele>541</ele>
        <time>2025-06-06T09:57:57Z</time>
      </trkpt>
      <trkpt lat="45.81007" lon="3.08557">
        <ele>554</ele>
        <time>2025-06-06T09:58:38Z</time>
      </trkpt>
      <trkpt lat="45.81097" lon="3.0863">
        <ele>552</ele>
        <time>2025-06-06T09:59:02Z</time>
      </trkpt>
      <trkpt lat="45.81206" lon="3.08689">
        <ele>549</ele>
        <time>2025-06-06T09:59:29Z</time>
      </trkpt>
      <trkpt lat="45.81265" lon="3.08662">
        <ele>545</ele>
        <time>2025-06-06T09:59:43Z</time>
      </trkpt>
      <trkpt lat="45.81397" lon="3.08572">
        <ele>529</ele>
        <time>2025-06-06T10:00:17Z</time>
      </trkpt>
      <trkpt lat="45.81431" lon="3.0854">
        <ele>524</ele>
        <time>2025-06-06T10:00:27Z</time>
      </trkpt>
      <trkpt lat="45.81485" lon="3.08525">
        <ele>514</ele>
        <time>2025-06-06T10:00:40Z</time>
      </trkpt>
      <trkpt lat="45.81552" lon="3.08421">
        <ele>502</ele>
        <time>2025-06-06T10:01:03Z</time>
      </trkpt>
      <trkpt lat="45.81576" lon="3.08364">
        <ele>496</ele>
        <time>2025-06-06T10:01:14Z</time>
      </trkpt>
      <trkpt lat="45.81619" lon="3.08317">
        <ele>485</ele>
        <time>2025-06-06T10:01:26Z</time>
      </trkpt>
      <trkpt lat="45.81664" lon="3.08262">
        <ele>474</ele>
        <time>2025-06-06T10:01:40Z</time>
      </trkpt>
      <trkpt lat="45.81693" lon="3.08188">
        <ele>463</ele>
        <time>2025-06-06T10:01:54Z</time>
      </trkpt>
      <trkpt lat="45.81731" lon="3.08154">
        <ele>451</ele>
        <time>2025-06-06T10:02:04Z</time>
      </trkpt>
      <trkpt lat="45.8175" lon="3.08079">
        <ele>444</ele>
        <time>2025-06-06T10:02:17Z</time>
      </trkpt>
      <trkpt lat="45.81738" lon="3.07999">
        <ele>443</ele>
        <time>2025-06-06T10:02:31Z</time>
      </trkpt>
      <trkpt lat="45.81759" lon="3.07942">
        <ele>434</ele>
        <time>2025-06-06T10:02:41Z</time>
      </trkpt>
      <trkpt lat="45.81756" lon="3.07871">
        <ele>437</ele>
        <time>2025-06-06T10:02:53Z</time>
      </trkpt>
      <trkpt lat="45.81777" lon="3.07864">
        <ele>432</ele>
        <time>2025-06-06T10:02:58Z</time>
      </trkpt>
      <trkpt lat="45.81779" lon="3.07917">
        <ele>429</ele>
        <time>2025-06-06T10:03:06Z</time>
      </trkpt>
      <trkpt lat="45.81822" lon="3.07976">
        <ele>417</ele>
        <time>2025-06-06T10:03:20Z</time>
      </trkpt>
      <trkpt lat="45.81852" lon="3.07949">
        <ele>411</ele>
        <time>2025-06-06T10:03:29Z</time>
      </trkpt>
      <trkpt lat="45.81905" lon="3.07924">
        <ele>403</ele>
        <time>2025-06-06T10:03:42Z</time>
      </trkpt>
      <trkpt lat="45.82024" lon="3.07908">
        <ele>392</ele>
        <time>2025-06-06T10:04:10Z</time>
      </trkpt>
      <trkpt lat="45.82167" lon="3.0783">
        <ele>381</ele>
        <time>2025-06-06T10:04:45Z</time>
      </trkpt>
      <trkpt lat="45.82321" lon="3.07789">
        <ele>375</ele>
        <time>2025-06-06T10:05:22Z</time>
      </trkpt>
      <trkpt lat="45.82392" lon="3.07745">
        <ele>375</ele>
        <time>2025-06-06T10:05:40Z</time>
      </trkpt>
      <trkpt lat="45.82434" lon="3.07733">
        <ele>376</ele>
        <time>2025-06-06T10:05:50Z</time>
      </trkpt>
      <trkpt lat="45.82487" lon="3.07739">
        <ele>380</ele>
        <time>2025-06-06T10:06:02Z</time>
      </trkpt>
      <trkpt lat="45.8251" lon="3.07749">
        <ele>381</ele>
        <time>2025-06-06T10:06:08Z</time>
      </trkpt>
      <trkpt lat="45.82571" lon="3.07757">
        <ele>383</ele>
        <time>2025-06-06T10:06:22Z</time>
      </trkpt>
      <trkpt lat="45.82592" lon="3.07756">
        <ele>383</ele>
        <time>2025-06-06T10:06:27Z</time>
      </trkpt>
      <trkpt lat="45.82644" lon="3.0774">
        <ele>385</ele>
        <time>2025-06-06T10:06:40Z</time>
      </trkpt>
      <trkpt lat="45.82659" lon="3.07739">
        <ele>385</ele>
        <time>2025-06-06T10:06:43Z</time>
      </trkpt>
      <trkpt lat="45.82726" lon="3.07702">
        <ele>389</ele>
        <time>2025-06-06T10:07:00Z</time>
      </trkpt>
      <trkpt lat="45.82749" lon="3.07686">
        <ele>391</ele>
        <time>2025-06-06T10:07:06Z</time>
      </trkpt>
      <trkpt lat="45.82778" lon="3.07702">
        <ele>392</ele>
        <time>2025-06-06T10:07:13Z</time>
      </trkpt>
      <trkpt lat="45.82831" lon="3.0782">
        <ele>388</ele>
        <time>2025-06-06T10:07:36Z</time>
      </trkpt>
      <trkpt lat="45.82835" lon="3.07839">
        <ele>387</ele>
        <time>2025-06-06T10:07:39Z</time>
      </trkpt>
      <trkpt lat="45.82853" lon="3.0786">
        <ele>388</ele>
        <time>2025-06-06T10:07:45Z</time>
      </trkpt>
      <trkpt lat="45.82861" lon="3.07881">
        <ele>387</ele>
        <time>2025-06-06T10:07:48Z</time>
      </trkpt>
      <trkpt lat="45.82886" lon="3.07877">
        <ele>389</ele>
        <time>2025-06-06T10:07:54Z</time>
      </trkpt>
      <trkpt lat="45.82858" lon="3.07788">
        <ele>392</ele>
        <time>2025-06-06T10:08:10Z</time>
      </trkpt>
      <trkpt lat="45.82859" lon="3.07746">
        <ele>395</ele>
        <time>2025-06-06T10:08:17Z</time>
      </trkpt>
      <trkpt lat="45.82864" lon="3.07735">
        <ele>395</ele>
        <time>2025-06-06T10:08:19Z</time>
      </trkpt>
      <trkpt lat="45.82853" lon="3.07698">
        <ele>396</ele>
        <time>2025-06-06T10:08:26Z</time>
      </trkpt>
      <trkpt lat="45.82844" lon="3.07654">
        <ele>397</ele>
        <time>2025-06-06T10:08:33Z</time>
      </trkpt>
      <trkpt lat="45.82851" lon="3.07609">
        <ele>399</ele>
        <time>2025-06-06T10:08:41Z</time>
      </trkpt>
      <trkpt lat="45.8287" lon="3.07605">
        <ele>399</ele>
        <time>2025-06-06T10:08:45Z</time>
      </trkpt>
      <trkpt lat="45.82871" lon="3.07421">
        <ele>404</ele>
        <time>2025-06-06T10:09:15Z</time>
      </trkpt>
      <trkpt lat="45.82861" lon="3.07095">
        <ele>415</ele>
        <time>2025-06-06T10:10:08Z</time>
      </trkpt>
      <trkpt lat="45.8288" lon="3.06955">
        <ele>423</ele>
        <time>2025-06-06T10:10:31Z</time>
      </trkpt>
      <trkpt lat="45.82888" lon="3.0673">
        <ele>430</ele>
        <time>2025-06-06T10:11:08Z</time>
      </trkpt>
      <trkpt lat="45.82845" lon="3.06677">
        <ele>428</ele>
        <time>2025-06-06T10:11:21Z</time>
      </trkpt>
      <trkpt lat="45.82881" lon="3.06577">
        <ele>434</ele>
        <time>2025-06-06T10:11:40Z</time>
      </trkpt>
      <trkpt lat="45.82979" lon="3.06543">
        <ele>443</ele>
        <time>2025-06-06T10:12:03Z</time>
      </trkpt>
      <trkpt lat="45.8302" lon="3.06573">
        <ele>444</ele>
        <time>2025-06-06T10:12:14Z</time>
      </trkpt>
      <trkpt lat="45.83081" lon="3.06551">
        <ele>450</ele>
        <time>2025-06-06T10:12:29Z</time>
      </trkpt>
      <trkpt lat="45.8312" lon="3.06554">
        <ele>452</ele>
        <time>2025-06-06T10:12:38Z</time>
      </trkpt>
      <trkpt lat="45.8316" lon="3.0654">
        <ele>456</ele>
        <time>2025-06-06T10:12:47Z</time>
      </trkpt>
      <trkpt lat="45.83212" lon="3.06567">
        <ele>459</ele>
        <time>2025-06-06T10:13:00Z</time>
      </trkpt>
      <trkpt lat="45.83284" lon="3.06532">
        <ele>464</ele>
        <time>2025-06-06T10:13:18Z</time>
      </trkpt>
      <trkpt lat="45.83361" lon="3.06541">
        <ele>470</ele>
        <time>2025-06-06T10:13:36Z</time>
      </trkpt>
      <trkpt lat="45.83441" lon="3.06493">
        <ele>479</ele>
        <time>2025-06-06T10:13:56Z</time>
      </trkpt>
      <trkpt lat="45.83494" lon="3.06448">
        <ele>484</ele>
        <time>2025-06-06T10:14:11Z</time>
      </trkpt>
      <trkpt lat="45.83589" lon="3.06264">
        <ele>492</ele>
        <time>2025-06-06T10:14:48Z</time>
      </trkpt>
      <trkpt lat="45.83577" lon="3.06214">
        <ele>493</ele>
        <time>2025-06-06T10:14:57Z</time>
      </trkpt>
      <trkpt lat="45.83592" lon="3.06175">
        <ele>496</ele>
        <time>2025-06-06T10:15:04Z</time>
      </trkpt>
      <trkpt lat="45.83687" lon="3.06137">
        <ele>500</ele>
        <time>2025-06-06T10:15:27Z</time>
      </trkpt>
      <trkpt lat="45.838" lon="3.06005">
        <ele>505</ele>
        <time>2025-06-06T10:16:01Z</time>
      </trkpt>
      <trkpt lat="45.83829" lon="3.0593">
        <ele>507</ele>
        <time>2025-06-06T10:16:15Z</time>
      </trkpt>
      <trkpt lat="45.83867" lon="3.05903">
        <ele>508</ele>
        <time>2025-06-06T10:16:25Z</time>
      </trkpt>
      <trkpt lat="45.83931" lon="3.05899">
        <ele>509</ele>
        <time>2025-06-06T10:16:40Z</time>
      </trkpt>
      <trkpt lat="45.84019" lon="3.0592">
        <ele>511</ele>
        <time>2025-06-06T10:17:01Z</time>
      </trkpt>
      <trkpt lat="45.84072" lon="3.05905">
        <ele>512</ele>
        <time>2025-06-06T10:17:13Z</time>
      </trkpt>
      <trkpt lat="45.84281" lon="3.05712">
        <ele>516</ele>
        <time>2025-06-06T10:18:11Z</time>
      </trkpt>
      <trkpt lat="45.84596" lon="3.0536">
        <ele>514</ele>
        <time>2025-06-06T10:19:44Z</time>
      </trkpt>
      <trkpt lat="45.84612" lon="3.05326">
        <ele>514</ele>
        <time>2025-06-06T10:19:51Z</time>
      </trkpt>
      <trkpt lat="45.8467" lon="3.05267">
        <ele>513</ele>
        <time>2025-06-06T10:20:08Z</time>
      </trkpt>
      <trkpt lat="45.84697" lon="3.05255">
        <ele>513</ele>
        <time>2025-06-06T10:20:14Z</time>
      </trkpt>
      <trkpt lat="45.84745" lon="3.05276">
        <ele>511</ele>
        <time>2025-06-06T10:20:26Z</time>
      </trkpt>
      <trkpt lat="45.84782" lon="3.05246">
        <ele>506</ele>
        <time>2025-06-06T10:20:36Z</time>
      </trkpt>
      <trkpt lat="45.84784" lon="3.05221">
        <ele>503</ele>
        <time>2025-06-06T10:20:40Z</time>
      </trkpt>
      <trkpt lat="45.84776" lon="3.05192">
        <ele>502</ele>
        <time>2025-06-06T10:20:45Z</time>
      </trkpt>
      <trkpt lat="45.84731" lon="3.05124">
        <ele>502</ele>
        <time>2025-06-06T10:21:00Z</time>
      </trkpt>
      <trkpt lat="45.84728" lon="3.05072">
        <ele>498</ele>
        <time>2025-06-06T10:21:09Z</time>
      </trkpt>
      <trkpt lat="45.84784" lon="3.0497">
        <ele>495</ele>
        <time>2025-06-06T10:21:30Z</time>
      </trkpt>
      <trkpt lat="45.84882" lon="3.04849">
        <ele>497</ele>
        <time>2025-06-06T10:22:00Z</time>
      </trkpt>
      <trkpt lat="45.85003" lon="3.04663">
        <ele>488</ele>
        <time>2025-06-06T10:22:42Z</time>
      </trkpt>
      <trkpt lat="45.85016" lon="3.04633">
        <ele>490</ele>
        <time>2025-06-06T10:22:47Z</time>
      </trkpt>
      <trkpt lat="45.8499" lon="3.04624">
        <ele>491</ele>
        <time>2025-06-06T10:22:54Z</time>
      </trkpt>
      <trkpt lat="45.84944" lon="3.04624">
        <ele>493</ele>
        <time>2025-06-06T10:23:04Z</time>
      </trkpt>
      <trkpt lat="45.84895" lon="3.04634">
        <ele>496</ele>
        <time>2025-06-06T10:23:16Z</time>
      </trkpt>
      <trkpt lat="45.84866" lon="3.0465">
        <ele>498</ele>
        <time>2025-06-06T10:23:23Z</time>
      </trkpt>
      <trkpt lat="45.84839" lon="3.04639">
        <ele>500</ele>
        <time>2025-06-06T10:23:30Z</time>
      </trkpt>
      <trkpt lat="45.84844" lon="3.04596">
        <ele>501</ele>
        <time>2025-06-06T10:23:37Z</time>
      </trkpt>
      <trkpt lat="45.84853" lon="3.04556">
        <ele>504</ele>
        <time>2025-06-06T10:23:44Z</time>
      </trkpt>
      <trkpt lat="45.84869" lon="3.04532">
        <ele>506</ele>
        <time>2025-06-06T10:23:49Z</time>
      </trkpt>
      <trkpt lat="45.84928" lon="3.04485">
        <ele>508</ele>
        <time>2025-06-06T10:24:05Z</time>
      </trkpt>
      <trkpt lat="45.84982" lon="3.04426">
        <ele>518</ele>
        <time>2025-06-06T10:24:21Z</time>
      </trkpt>
      <trkpt lat="45.85038" lon="3.04345">
        <ele>531</ele>
        <time>2025-06-06T10:24:39Z</time>
      </trkpt>
      <trkpt lat="45.85024" lon="3.04302">
        <ele>540</ele>
        <time>2025-06-06T10:24:47Z</time>
      </trkpt>
      <trkpt lat="45.85008" lon="3.04279">
        <ele>546</ele>
        <time>2025-06-06T10:24:52Z</time>
      </trkpt>
      <trkpt lat="45.84918" lon="3.04279">
        <ele>551</ele>
        <time>2025-06-06T10:25:13Z</time>
      </trkpt>
      <trkpt lat="45.84855" lon="3.04261">
        <ele>564</ele>
        <time>2025-06-06T10:25:28Z</time>
      </trkpt>
      <trkpt lat="45.84667" lon="3.04317">
        <ele>565</ele>
        <time>2025-06-06T10:26:13Z</time>
      </trkpt>
      <trkpt lat="45.84614" lon="3.04314">
        <ele>562</ele>
        <time>2025-06-06T10:26:25Z</time>
      </trkpt>
      <trkpt lat="45.84584" lon="3.04253">
        <ele>573</ele>
        <time>2025-06-06T10:26:38Z</time>
      </trkpt>
      <trkpt lat="45.8455" lon="3.04238">
        <ele>571</ele>
        <time>2025-06-06T10:26:46Z</time>
      </trkpt>
      <trkpt lat="45.84528" lon="3.04212">
        <ele>572</ele>
        <time>2025-06-06T10:26:53Z</time>
      </trkpt>
      <trkpt lat="45.84513" lon="3.0416">
        <ele>577</ele>
        <time>2025-06-06T10:27:02Z</time>
      </trkpt>
      <trkpt lat="45.84507" lon="3.04112">
        <ele>583</ele>
        <time>2025-06-06T10:27:10Z</time>
      </trkpt>
      <trkpt lat="45.84462" lon="3.04063">
        <ele>588</ele>
        <time>2025-06-06T10:27:23Z</time>
      </trkpt>
      <trkpt lat="45.84441" lon="3.03989">
        <ele>593</ele>
        <time>2025-06-06T10:27:36Z</time>
      </trkpt>
      <trkpt lat="45.84414" lon="3.03908">
        <ele>591</ele>
        <time>2025-06-06T10:27:50Z</time>
      </trkpt>
      <trkpt lat="45.84413" lon="3.03893">
        <ele>591</ele>
        <time>2025-06-06T10:27:53Z</time>
      </trkpt>
      <trkpt lat="45.84418" lon="3.03882">
        <ele>592</ele>
        <time>2025-06-06T10:27:55Z</time>
      </trkpt>
      <trkpt lat="45.84446" lon="3.03854">
        <ele>595</ele>
        <time>2025-06-06T10:28:03Z</time>
      </trkpt>
      <trkpt lat="45.84488" lon="3.0379">
        <ele>599</ele>
        <time>2025-06-06T10:28:17Z</time>
      </trkpt>
      <trkpt lat="45.84512" lon="3.03758">
        <ele>602</ele>
        <time>2025-06-06T10:28:25Z</time>
      </trkpt>
      <trkpt lat="45.84587" lon="3.0363">
        <ele>609</ele>
        <time>2025-06-06T10:28:52Z</time>
      </trkpt>
      <trkpt lat="45.84612" lon="3.03617">
        <ele>612</ele>
        <time>2025-06-06T10:28:58Z</time>
      </trkpt>
      <trkpt lat="45.84629" lon="3.03603">
        <ele>613</ele>
        <time>2025-06-06T10:29:03Z</time>
      </trkpt>
      <trkpt lat="45.8465" lon="3.03567">
        <ele>614</ele>
        <time>2025-06-06T10:29:11Z</time>
      </trkpt>
      <trkpt lat="45.84641" lon="3.0354">
        <ele>614</ele>
        <time>2025-06-06T10:29:15Z</time>
      </trkpt>
      <trkpt lat="45.84657" lon="3.03514">
        <ele>615</ele>
        <time>2025-06-06T10:29:21Z</time>
      </trkpt>
      <trkpt lat="45.84646" lon="3.0349">
        <ele>615</ele>
        <time>2025-06-06T10:29:26Z</time>
      </trkpt>
      <trkpt lat="45.84643" lon="3.03436">
        <ele>616</ele>
        <time>2025-06-06T10:29:35Z</time>
      </trkpt>
      <trkpt lat="45.84656" lon="3.03436">
        <ele>617</ele>
        <time>2025-06-06T10:29:38Z</time>
      </trkpt>
      <trkpt lat="45.8467" lon="3.03448">
        <ele>617</ele>
        <time>2025-06-06T10:29:41Z</time>
      </trkpt>
      <trkpt lat="45.84756" lon="3.03303">
        <ele>633</ele>
        <time>2025-06-06T10:30:12Z</time>
      </trkpt>
      <trkpt lat="45.84839" lon="3.03365">
        <ele>634</ele>
        <time>2025-06-06T10:30:34Z</time>
      </trkpt>
      <trkpt lat="45.84904" lon="3.03421">
        <ele>634</ele>
        <time>2025-06-06T10:30:52Z</time>
      </trkpt>
      <trkpt lat="45.84942" lon="3.03429">
        <ele>634</ele>
        <time>2025-06-06T10:31:01Z</time>
      </trkpt>
      <trkpt lat="45.84986" lon="3.03402">
        <ele>636</ele>
        <time>2025-06-06T10:31:12Z</time>
      </trkpt>
      <trkpt lat="45.85086" lon="3.03286">
        <ele>643</ele>
        <time>2025-06-06T10:31:42Z</time>
      </trkpt>
      <trkpt lat="45.85113" lon="3.03235">
        <ele>647</ele>
        <time>2025-06-06T10:31:53Z</time>
      </trkpt>
      <trkpt lat="45.85122" lon="3.03192">
        <ele>653</ele>
        <time>2025-06-06T10:32:00Z</time>
      </trkpt>
      <trkpt lat="45.85145" lon="3.03132">
        <ele>662</ele>
        <time>2025-06-06T10:32:11Z</time>
      </trkpt>
      <trkpt lat="45.85196" lon="3.03103">
        <ele>668</ele>
        <time>2025-06-06T10:32:24Z</time>
      </trkpt>
      <trkpt lat="45.85219" lon="3.03113">
        <ele>666</ele>
        <time>2025-06-06T10:32:29Z</time>
      </trkpt>
      <trkpt lat="45.85233" lon="3.03129">
        <ele>663</ele>
        <time>2025-06-06T10:32:34Z</time>
      </trkpt>
      <trkpt lat="45.85271" lon="3.03124">
        <ele>664</ele>
        <time>2025-06-06T10:32:42Z</time>
      </trkpt>
      <trkpt lat="45.85287" lon="3.03097">
        <ele>668</ele>
        <time>2025-06-06T10:32:48Z</time>
      </trkpt>
      <trkpt lat="45.85286" lon="3.03001">
        <ele>684</ele>
        <time>2025-06-06T10:33:04Z</time>
      </trkpt>
      <trkpt lat="45.85309" lon="3.0297">
        <ele>686</ele>
        <time>2025-06-06T10:33:11Z</time>
      </trkpt>
      <trkpt lat="45.8533" lon="3.02931">
        <ele>690</ele>
        <time>2025-06-06T10:33:19Z</time>
      </trkpt>
      <trkpt lat="45.85368" lon="3.02838">
        <ele>696</ele>
        <time>2025-06-06T10:33:37Z</time>
      </trkpt>
      <trkpt lat="45.85396" lon="3.02792">
        <ele>696</ele>
        <time>2025-06-06T10:33:47Z</time>
      </trkpt>
      <trkpt lat="45.85478" lon="3.02633">
        <ele>701</ele>
        <time>2025-06-06T10:34:19Z</time>
      </trkpt>
      <trkpt lat="45.85519" lon="3.02611">
        <ele>702</ele>
        <time>2025-06-06T10:34:29Z</time>
      </trkpt>
      <trkpt lat="45.85544" lon="3.02548">
        <ele>708</ele>
        <time>2025-06-06T10:34:41Z</time>
      </trkpt>
      <trkpt lat="45.85589" lon="3.02486">
        <ele>714</ele>
        <time>2025-06-06T10:34:55Z</time>
      </trkpt>
      <trkpt lat="45.85637" lon="3.02385">
        <ele>722</ele>
        <time>2025-06-06T10:35:15Z</time>
      </trkpt>
      <trkpt lat="45.85686" lon="3.02345">
        <ele>726</ele>
        <time>2025-06-06T10:35:29Z</time>
      </trkpt>
      <trkpt lat="45.85712" lon="3.02221">
        <ele>731</ele>
        <time>2025-06-06T10:35:50Z</time>
      </trkpt>
      <trkpt lat="45.85726" lon="3.0218">
        <ele>734</ele>
        <time>2025-06-06T10:35:57Z</time>
      </trkpt>
      <trkpt lat="45.85746" lon="3.02163">
        <ele>735</ele>
        <time>2025-06-06T10:36:02Z</time>
      </trkpt>
      <trkpt lat="45.85771" lon="3.02118">
        <ele>738</ele>
        <time>2025-06-06T10:36:12Z</time>
      </trkpt>
      <trkpt lat="45.85794" lon="3.0206">
        <ele>740</ele>
        <time>2025-06-06T10:36:23Z</time>
      </trkpt>
      <trkpt lat="45.85855" lon="3.0193">
        <ele>749</ele>
        <time>2025-06-06T10:36:48Z</time>
      </trkpt>
      <trkpt lat="45.85839" lon="3.01858">
        <ele>753</ele>
        <time>2025-06-06T10:37:00Z</time>
      </trkpt>
      <trkpt lat="45.85867" lon="3.01816">
        <ele>753</ele>
        <time>2025-06-06T10:37:10Z</time>
      </trkpt>
      <trkpt lat="45.85985" lon="3.01565">
        <ele>725</ele>
        <time>2025-06-06T10:37:59Z</time>
      </trkpt>
      <trkpt lat="45.86003" lon="3.01484">
        <ele>718</ele>
        <time>2025-06-06T10:38:13Z</time>
      </trkpt>
      <trkpt lat="45.86111" lon="3.01545">
        <ele>718</ele>
        <time>2025-06-06T10:38:40Z</time>
      </trkpt>
      <trkpt lat="45.86183" lon="3.01578">
        <ele>714</ele>
        <time>2025-06-06T10:38:58Z</time>
      </trkpt>
      <trkpt lat="45.86213" lon="3.01559">
        <ele>712</ele>
        <time>2025-06-06T10:39:05Z</time>
      </trkpt>
      <trkpt lat="45.86261" lon="3.01523">
        <ele>709</ele>
        <time>2025-06-06T10:39:18Z</time>
      </trkpt>
      <trkpt lat="45.86293" lon="3.01468">
        <ele>708</ele>
        <time>2025-06-06T10:39:30Z</time>
      </trkpt>
      <trkpt lat="45.86373" lon="3.01364">
        <ele>701</ele>
        <time>2025-06-06T10:39:55Z</time>
      </trkpt>
      <trkpt lat="45.86412" lon="3.01336">
        <ele>697</ele>
        <time>2025-06-06T10:40:05Z</time>
      </trkpt>
      <trkpt lat="45.86519" lon="3.01299">
        <ele>687</ele>
        <time>2025-06-06T10:40:31Z</time>
      </trkpt>
      <trkpt lat="45.86583" lon="3.01171">
        <ele>692</ele>
        <time>2025-06-06T10:40:56Z</time>
      </trkpt>
      <trkpt lat="45.86603" lon="3.01149">
        <ele>693</ele>
        <time>2025-06-06T10:41:02Z</time>
      </trkpt>
      <trkpt lat="45.86706" lon="3.01103">
        <ele>685</ele>
        <time>2025-06-06T10:41:27Z</time>
      </trkpt>
      <trkpt lat="45.86848" lon="3.01071">
        <ele>683</ele>
        <time>2025-06-06T10:42:01Z</time>
      </trkpt>
      <trkpt lat="45.86888" lon="3.01076">
        <ele>680</ele>
        <time>2025-06-06T10:42:10Z</time>
      </trkpt>
      <trkpt lat="45.86954" lon="3.01139">
        <ele>673</ele>
        <time>2025-06-06T10:42:29Z</time>
      </trkpt>
      <trkpt lat="45.86971" lon="3.01196">
        <ele>672</ele>
        <time>2025-06-06T10:42:39Z</time>
      </trkpt>
      <trkpt lat="45.86958" lon="3.01276">
        <ele>670</ele>
        <time>2025-06-06T10:42:52Z</time>
      </trkpt>
      <trkpt lat="45.8683" lon="3.01536">
        <ele>660</ele>
        <time>2025-06-06T10:43:44Z</time>
      </trkpt>
      <trkpt lat="45.86799" lon="3.0164">
        <ele>660</ele>
        <time>2025-06-06T10:44:03Z</time>
      </trkpt>
      <trkpt lat="45.86834" lon="3.01727">
        <ele>657</ele>
        <time>2025-06-06T10:44:19Z</time>
      </trkpt>
      <trkpt lat="45.86891" lon="3.01776">
        <ele>654</ele>
        <time>2025-06-06T10:44:34Z</time>
      </trkpt>
      <trkpt lat="45.86941" lon="3.01758">
        <ele>652</ele>
        <time>2025-06-06T10:44:46Z</time>
      </trkpt>
      <trkpt lat="45.86973" lon="3.01721">
        <ele>652</ele>
        <time>2025-06-06T10:44:56Z</time>
      </trkpt>
      <trkpt lat="45.87058" lon="3.01685">
        <ele>650</ele>
        <time>2025-06-06T10:45:17Z</time>
      </trkpt>
      <trkpt lat="45.87148" lon="3.01719">
        <ele>648</ele>
        <time>2025-06-06T10:45:38Z</time>
      </trkpt>
      <trkpt lat="45.87214" lon="3.01878">
        <ele>640</ele>
        <time>2025-06-06T10:46:09Z</time>
      </trkpt>
      <trkpt lat="45.87333" lon="3.01952">
        <ele>640</ele>
        <time>2025-06-06T10:46:39Z</time>
      </trkpt>
      <trkpt lat="45.87458" lon="3.01989">
        <ele>630</ele>
        <time>2025-06-06T10:47:09Z</time>
      </trkpt>
      <trkpt lat="45.87527" lon="3.0195">
        <ele>631</ele>
        <time>2025-06-06T10:47:26Z</time>
      </trkpt>
      <trkpt lat="45.87596" lon="3.01878">
        <ele>628</ele>
        <time>2025-06-06T10:47:46Z</time>
      </trkpt>
      <trkpt lat="45.87641" lon="3.01875">
        <ele>622</ele>
        <time>2025-06-06T10:47:56Z</time>
      </trkpt>
      <trkpt lat="45.87688" lon="3.01913">
        <ele>621</ele>
        <time>2025-06-06T10:48:09Z</time>
      </trkpt>
      <trkpt lat="45.87749" lon="3.0199">
        <ele>622</ele>
        <time>2025-06-06T10:48:28Z</time>
      </trkpt>
      <trkpt lat="45.87779" lon="3.02052">
        <ele>615</ele>
        <time>2025-06-06T10:48:40Z</time>
      </trkpt>
      <trkpt lat="45.87781" lon="3.0213">
        <ele>611</ele>
        <time>2025-06-06T10:48:53Z</time>
      </trkpt>
      <trkpt lat="45.87758" lon="3.02174">
        <ele>610</ele>
        <time>2025-06-06T10:49:02Z</time>
      </trkpt>
      <trkpt lat="45.87686" lon="3.02234">
        <ele>610</ele>
        <time>2025-06-06T10:49:21Z</time>
      </trkpt>
      <trkpt lat="45.8763" lon="3.02287">
        <ele>609</ele>
        <time>2025-06-06T10:49:37Z</time>
      </trkpt>
      <trkpt lat="45.87615" lon="3.02505">
        <ele>607</ele>
        <time>2025-06-06T10:50:13Z</time>
      </trkpt>
      <trkpt lat="45.87578" lon="3.02578">
        <ele>600</ele>
        <time>2025-06-06T10:50:27Z</time>
      </trkpt>
      <trkpt lat="45.87486" lon="3.02661">
        <ele>598</ele>
        <time>2025-06-06T10:50:53Z</time>
      </trkpt>
      <trkpt lat="45.8747" lon="3.02704">
        <ele>596</ele>
        <time>2025-06-06T10:51:01Z</time>
      </trkpt>
      <trkpt lat="45.875" lon="3.02711">
        <ele>598</ele>
        <time>2025-06-06T10:51:08Z</time>
      </trkpt>
      <trkpt lat="45.87522" lon="3.02732">
        <ele>600</ele>
        <time>2025-06-06T10:51:14Z</time>
      </trkpt>
      <trkpt lat="45.87709" lon="3.02754">
        <ele>623</ele>
        <time>2025-06-06T10:51:58Z</time>
      </trkpt>
      <trkpt lat="45.8797" lon="3.02778">
        <ele>667</ele>
        <time>2025-06-06T10:52:59Z</time>
      </trkpt>
      <trkpt lat="45.88064" lon="3.0287">
        <ele>675</ele>
        <time>2025-06-06T10:53:25Z</time>
      </trkpt>
      <trkpt lat="45.88107" lon="3.02833">
        <ele>677</ele>
        <time>2025-06-06T10:53:37Z</time>
      </trkpt>
      <trkpt lat="45.88136" lon="3.02772">
        <ele>688</ele>
        <time>2025-06-06T10:53:49Z</time>
      </trkpt>
      <trkpt lat="45.88281" lon="3.02764">
        <ele>700</ele>
        <time>2025-06-06T10:54:23Z</time>
      </trkpt>
      <trkpt lat="45.8831" lon="3.02736">
        <ele>703</ele>
        <time>2025-06-06T10:54:31Z</time>
      </trkpt>
      <trkpt lat="45.88219" lon="3.0258">
        <ele>725</ele>
        <time>2025-06-06T10:55:04Z</time>
      </trkpt>
      <trkpt lat="45.88293" lon="3.02447">
        <ele>729</ele>
        <time>2025-06-06T10:55:32Z</time>
      </trkpt>
      <trkpt lat="45.88409" lon="3.02392">
        <ele>734</ele>
        <time>2025-06-06T10:56:00Z</time>
      </trkpt>
      <trkpt lat="45.88573" lon="3.02362">
        <ele>740</ele>
        <time>2025-06-06T10:56:39Z</time>
      </trkpt>
      <trkpt lat="45.88636" lon="3.02225">
        <ele>740</ele>
        <time>2025-06-06T10:57:06Z</time>
      </trkpt>
      <trkpt lat="45.88763" lon="3.0217">
        <ele>735</ele>
        <time>2025-06-06T10:57:37Z</time>
      </trkpt>
      <trkpt lat="45.88835" lon="3.02147">
        <ele>732</ele>
        <time>2025-06-06T10:57:54Z</time>
      </trkpt>
      <trkpt lat="45.88907" lon="3.02133">
        <ele>729</ele>
        <time>2025-06-06T10:58:11Z</time>
      </trkpt>
      <trkpt lat="45.88954" lon="3.0212">
        <ele>729</ele>
        <time>2025-06-06T10:58:22Z</time>
      </trkpt>
      <trkpt lat="45.89024" lon="3.02043">
        <ele>734</ele>
        <time>2025-06-06T10:58:43Z</time>
      </trkpt>
      <trkpt lat="45.89093" lon="3.01993">
        <ele>737</ele>
        <time>2025-06-06T10:59:01Z</time>
      </trkpt>
      <trkpt lat="45.89184" lon="3.01943">
        <ele>739</ele>
        <time>2025-06-06T10:59:23Z</time>
      </trkpt>
      <trkpt lat="45.89184" lon="3.01789">
        <ele>741</ele>
        <time>2025-06-06T10:59:48Z</time>
      </trkpt>
      <trkpt lat="45.8917" lon="3.01669">
        <ele>742</ele>
        <time>2025-06-06T11:00:08Z</time>
      </trkpt>
      <trkpt lat="45.89152" lon="3.01595">
        <ele>744</ele>
        <time>2025-06-06T11:00:21Z</time>
      </trkpt>
      <trkpt lat="45.89142" lon="3.01485">
        <ele>749</ele>
        <time>2025-06-06T11:00:39Z</time>
      </trkpt>
      <trkpt lat="45.89112" lon="3.01396">
        <ele>747</ele>
        <time>2025-06-06T11:00:55Z</time>
      </trkpt>
      <trkpt lat="45.89134" lon="3.01362">
        <ele>747</ele>
        <time>2025-06-06T11:01:03Z</time>
      </trkpt>
      <trkpt lat="45.89177" lon="3.01318">
        <ele>750</ele>
        <time>2025-06-06T11:01:15Z</time>
      </trkpt>
      <trkpt lat="45.8925" lon="3.01198">
        <ele>754</ele>
        <time>2025-06-06T11:01:41Z</time>
      </trkpt>
      <trkpt lat="45.89337" lon="3.01025">
        <ele>754</ele>
        <time>2025-06-06T11:02:16Z</time>
      </trkpt>
      <trkpt lat="45.89408" lon="3.00865">
        <ele>760</ele>
        <time>2025-06-06T11:02:46Z</time>
      </trkpt>
      <trkpt lat="45.89521" lon="3.00718">
        <ele>768</ele>
        <time>2025-06-06T11:03:22Z</time>
      </trkpt>
      <trkpt lat="45.89618" lon="3.00642">
        <ele>770</ele>
        <time>2025-06-06T11:03:48Z</time>
      </trkpt>
      <trkpt lat="45.89664" lon="3.00485">
        <ele>774</ele>
        <time>2025-06-06T11:04:15Z</time>
      </trkpt>
      <trkpt lat="45.89761" lon="3.00228">
        <ele>771</ele>
        <time>2025-06-06T11:05:03Z</time>
      </trkpt>
      <trkpt lat="45.89795" lon="3.00184">
        <ele>770</ele>
        <time>2025-06-06T11:05:14Z</time>
      </trkpt>
      <trkpt lat="45.89802" lon="3.002">
        <ele>770</ele>
        <time>2025-06-06T11:05:17Z</time>
      </trkpt>
      <trkpt lat="45.89824" lon="3.00183">
        <ele>769</ele>
        <time>2025-06-06T11:05:23Z</time>
      </trkpt>
      <trkpt lat="45.89975" lon="3.00092">
        <ele>753</ele>
        <time>2025-06-06T11:06:01Z</time>
      </trkpt>
      <trkpt lat="45.9001" lon="3.00095">
        <ele>751</ele>
        <time>2025-06-06T11:06:09Z</time>
      </trkpt>
      <trkpt lat="45.90059" lon="3.00125">
        <ele>746</ele>
        <time>2025-06-06T11:06:21Z</time>
      </trkpt>
      <trkpt lat="45.90259" lon="3.00093">
        <ele>734</ele>
        <time>2025-06-06T11:07:08Z</time>
      </trkpt>
      <trkpt lat="45.90301" lon="3.00067">
        <ele>733</ele>
        <time>2025-06-06T11:07:19Z</time>
      </trkpt>
      <trkpt lat="45.90433" lon="2.99844">
        <ele>726</ele>
        <time>2025-06-06T11:08:07Z</time>
      </trkpt>
      <trkpt lat="45.90463" lon="2.99749">
        <ele>728</ele>
        <time>2025-06-06T11:08:24Z</time>
      </trkpt>
      <trkpt lat="45.90508" lon="2.99633">
        <ele>722</ele>
        <time>2025-06-06T11:08:45Z</time>
      </trkpt>
      <trkpt lat="45.90548" lon="2.99626">
        <ele>721</ele>
        <time>2025-06-06T11:08:55Z</time>
      </trkpt>
      <trkpt lat="45.90563" lon="2.99639">
        <ele>721</ele>
        <time>2025-06-06T11:08:59Z</time>
      </trkpt>
      <trkpt lat="45.90546" lon="2.99503">
        <ele>724</ele>
        <time>2025-06-06T11:09:21Z</time>
      </trkpt>
      <trkpt lat="45.90497" lon="2.99422">
        <ele>726</ele>
        <time>2025-06-06T11:09:39Z</time>
      </trkpt>
      <trkpt lat="45.90435" lon="2.99335">
        <ele>733</ele>
        <time>2025-06-06T11:09:59Z</time>
      </trkpt>
      <trkpt lat="45.90353" lon="2.9909">
        <ele>747</ele>
        <time>2025-06-06T11:10:43Z</time>
      </trkpt>
      <trkpt lat="45.90318" lon="2.99023">
        <ele>750</ele>
        <time>2025-06-06T11:10:57Z</time>
      </trkpt>
      <trkpt lat="45.90283" lon="2.98915">
        <ele>754</ele>
        <time>2025-06-06T11:11:16Z</time>
      </trkpt>
      <trkpt lat="45.90269" lon="2.98797">
        <ele>761</ele>
        <time>2025-06-06T11:11:35Z</time>
      </trkpt>
      <trkpt lat="45.90239" lon="2.98712">
        <ele>764</ele>
        <time>2025-06-06T11:11:51Z</time>
      </trkpt>
      <trkpt lat="45.90238" lon="2.98669">
        <ele>765</ele>
        <time>2025-06-06T11:11:58Z</time>
      </trkpt>
      <trkpt lat="45.90264" lon="2.98596">
        <ele>765</ele>
        <time>2025-06-06T11:12:11Z</time>
      </trkpt>
      <trkpt lat="45.90292" lon="2.98558">
        <ele>764</ele>
        <time>2025-06-06T11:12:20Z</time>
      </trkpt>
      <trkpt lat="45.90327" lon="2.98536">
        <ele>762</ele>
        <time>2025-06-06T11:12:29Z</time>
      </trkpt>
      <trkpt lat="45.90332" lon="2.98485">
        <ele>763</ele>
        <time>2025-06-06T11:12:38Z</time>
      </trkpt>
      <trkpt lat="45.9035" lon="2.98442">
        <ele>763</ele>
        <time>2025-06-06T11:12:46Z</time>
      </trkpt>
      <trkpt lat="45.90385" lon="2.98251">
        <ele>775</ele>
        <time>2025-06-06T11:13:18Z</time>
      </trkpt>
      <trkpt lat="45.90407" lon="2.98116">
        <ele>785</ele>
        <time>2025-06-06T11:13:40Z</time>
      </trkpt>
      <trkpt lat="45.90147" lon="2.97756">
        <ele>789</ele>
        <time>2025-06-06T11:15:05Z</time>
      </trkpt>
      <trkpt lat="45.901" lon="2.97538">
        <ele>789</ele>
        <time>2025-06-06T11:15:42Z</time>
      </trkpt>
      <trkpt lat="45.9004" lon="2.97361">
        <ele>784</ele>
        <time>2025-06-06T11:16:14Z</time>
      </trkpt>
      <trkpt lat="45.89882" lon="2.96976">
        <ele>804</ele>
        <time>2025-06-06T11:17:26Z</time>
      </trkpt>
      <trkpt lat="45.89832" lon="2.96747">
        <ele>807</ele>
        <time>2025-06-06T11:18:05Z</time>
      </trkpt>
      <trkpt lat="45.89793" lon="2.96378">
        <ele>811</ele>
        <time>2025-06-06T11:19:06Z</time>
      </trkpt>
      <trkpt lat="45.89727" lon="2.96133">
        <ele>813</ele>
        <time>2025-06-06T11:19:49Z</time>
      </trkpt>
      <trkpt lat="45.89748" lon="2.95906">
        <ele>814</ele>
        <time>2025-06-06T11:20:26Z</time>
      </trkpt>
      <trkpt lat="45.89684" lon="2.9557">
        <ele>819</ele>
        <time>2025-06-06T11:21:23Z</time>
      </trkpt>
      <trkpt lat="45.89638" lon="2.95488">
        <ele>822</ele>
        <time>2025-06-06T11:21:40Z</time>
      </trkpt>
      <trkpt lat="45.89598" lon="2.95452">
        <ele>832</ele>
        <time>2025-06-06T11:21:51Z</time>
      </trkpt>
      <trkpt lat="45.89579" lon="2.95458">
        <ele>836</ele>
        <time>2025-06-06T11:21:55Z</time>
      </trkpt>
      <trkpt lat="45.89563" lon="2.9546">
        <ele>840</ele>
        <time>2025-06-06T11:21:59Z</time>
      </trkpt>
      <trkpt lat="45.89599" lon="2.95318">
        <ele>844</ele>
        <time>2025-06-06T11:22:24Z</time>
      </trkpt>
      <trkpt lat="45.89575" lon="2.95241">
        <ele>843</ele>
        <time>2025-06-06T11:22:37Z</time>
      </trkpt>
      <trkpt lat="45.89578" lon="2.95229">
        <ele>842</ele>
        <time>2025-06-06T11:22:39Z</time>
      </trkpt>
      <trkpt lat="45.89539" lon="2.95175">
        <ele>836</ele>
        <time>2025-06-06T11:22:52Z</time>
      </trkpt>
      <trkpt lat="45.89483" lon="2.95141">
        <ele>833</ele>
        <time>2025-06-06T11:23:06Z</time>
      </trkpt>
      <trkpt lat="45.89457" lon="2.95107">
        <ele>831</ele>
        <time>2025-06-06T11:23:14Z</time>
      </trkpt>
      <trkpt lat="45.89434" lon="2.95096">
        <ele>830</ele>
        <time>2025-06-06T11:23:20Z</time>
      </trkpt>
      <trkpt lat="45.89382" lon="2.95031">
        <ele>830</ele>
        <time>2025-06-06T11:23:36Z</time>
      </trkpt>
      <trkpt lat="45.89307" lon="2.9487">
        <ele>828</ele>
        <time>2025-06-06T11:24:08Z</time>
      </trkpt>
      <trkpt lat="45.89259" lon="2.94907">
        <ele>829</ele>
        <time>2025-06-06T11:24:20Z</time>
      </trkpt>
      <trkpt lat="45.89253" lon="2.94798">
        <ele>827</ele>
        <time>2025-06-06T11:24:38Z</time>
      </trkpt>
      <trkpt lat="45.89197" lon="2.94678">
        <ele>825</ele>
        <time>2025-06-06T11:25:02Z</time>
      </trkpt>
      <trkpt lat="45.89108" lon="2.94657">
        <ele>824</ele>
        <time>2025-06-06T11:25:23Z</time>
      </trkpt>
      <trkpt lat="45.89111" lon="2.94577">
        <ele>824</ele>
        <time>2025-06-06T11:25:36Z</time>
      </trkpt>
      <trkpt lat="45.89018" lon="2.94252">
        <ele>828</ele>
        <time>2025-06-06T11:26:33Z</time>
      </trkpt>
      <trkpt lat="45.88967" lon="2.94137">
        <ele>830</ele>
        <time>2025-06-06T11:26:55Z</time>
      </trkpt>
      <trkpt lat="45.88884" lon="2.94052">
        <ele>833</ele>
        <time>2025-06-06T11:27:19Z</time>
      </trkpt>
      <trkpt lat="45.88696" lon="2.9406">
        <ele>840</ele>
        <time>2025-06-06T11:28:03Z</time>
      </trkpt>
      <trkpt lat="45.88601" lon="2.94061">
        <ele>838</ele>
        <time>2025-06-06T11:28:25Z</time>
      </trkpt>
      <trkpt lat="45.88527" lon="2.93984">
        <ele>845</ele>
        <time>2025-06-06T11:28:46Z</time>
      </trkpt>
      <trkpt lat="45.88535" lon="2.94152">
        <ele>840</ele>
        <time>2025-06-06T11:29:14Z</time>
      </trkpt>
      <trkpt lat="45.88566" lon="2.94239">
        <ele>831</ele>
        <time>2025-06-06T11:29:30Z</time>
      </trkpt>
      <trkpt lat="45.88455" lon="2.94354">
        <ele>828</ele>
        <time>2025-06-06T11:30:01Z</time>
      </trkpt>
      <trkpt lat="45.8832" lon="2.94521">
        <ele>823</ele>
        <time>2025-06-06T11:30:43Z</time>
      </trkpt>
      <trkpt lat="45.88281" lon="2.945">
        <ele>823</ele>
        <time>2025-06-06T11:30:53Z</time>
      </trkpt>
      <trkpt lat="45.88058" lon="2.94475">
        <ele>826</ele>
        <time>2025-06-06T11:31:45Z</time>
      </trkpt>
      <trkpt lat="45.87995" lon="2.94513">
        <ele>831</ele>
        <time>2025-06-06T11:32:01Z</time>
      </trkpt>
      <trkpt lat="45.87894" lon="2.94617">
        <ele>835</ele>
        <time>2025-06-06T11:32:30Z</time>
      </trkpt>
      <trkpt lat="45.87805" lon="2.94639">
        <ele>836</ele>
        <time>2025-06-06T11:32:51Z</time>
      </trkpt>
      <trkpt lat="45.87687" lon="2.94745">
        <ele>850</ele>
        <time>2025-06-06T11:33:24Z</time>
      </trkpt>
      <trkpt lat="45.87619" lon="2.94642">
        <ele>851</ele>
        <time>2025-06-06T11:33:47Z</time>
      </trkpt>
      <trkpt lat="45.87575" lon="2.94461">
        <ele>853</ele>
        <time>2025-06-06T11:34:18Z</time>
      </trkpt>
      <trkpt lat="45.87516" lon="2.94357">
        <ele>853</ele>
        <time>2025-06-06T11:34:40Z</time>
      </trkpt>
      <trkpt lat="45.87556" lon="2.94196">
        <ele>850</ele>
        <time>2025-06-06T11:35:07Z</time>
      </trkpt>
      <trkpt lat="45.87499" lon="2.94132">
        <ele>852</ele>
        <time>2025-06-06T11:35:24Z</time>
      </trkpt>
      <trkpt lat="45.87419" lon="2.94086">
        <ele>852</ele>
        <time>2025-06-06T11:35:44Z</time>
      </trkpt>
      <trkpt lat="45.87171" lon="2.94053">
        <ele>854</ele>
        <time>2025-06-06T11:36:43Z</time>
      </trkpt>
      <trkpt lat="45.8709" lon="2.93997">
        <ele>858</ele>
        <time>2025-06-06T11:37:04Z</time>
      </trkpt>
      <trkpt lat="45.87037" lon="2.93944">
        <ele>859</ele>
        <time>2025-06-06T11:37:19Z</time>
      </trkpt>
      <trkpt lat="45.86998" lon="2.94012">
        <ele>869</ele>
        <time>2025-06-06T11:37:33Z</time>
      </trkpt>
      <trkpt lat="45.86969" lon="2.94122">
        <ele>876</ele>
        <time>2025-06-06T11:37:52Z</time>
      </trkpt>
      <trkpt lat="45.86911" lon="2.94223">
        <ele>877</ele>
        <time>2025-06-06T11:38:13Z</time>
      </trkpt>
      <trkpt lat="45.86863" lon="2.94376">
        <ele>873</ele>
        <time>2025-06-06T11:38:41Z</time>
      </trkpt>
      <trkpt lat="45.86801" lon="2.94558">
        <ele>876</ele>
        <time>2025-06-06T11:39:14Z</time>
      </trkpt>
      <trkpt lat="45.86648" lon="2.94434">
        <ele>872</ele>
        <time>2025-06-06T11:39:55Z</time>
      </trkpt>
      <trkpt lat="45.8651" lon="2.94233">
        <ele>868</ele>
        <time>2025-06-06T11:40:41Z</time>
      </trkpt>
      <trkpt lat="45.86295" lon="2.93953">
        <ele>866</ele>
        <time>2025-06-06T11:41:48Z</time>
      </trkpt>
      <trkpt lat="45.86375" lon="2.93497">
        <ele>864</ele>
        <time>2025-06-06T11:43:05Z</time>
      </trkpt>
      <trkpt lat="45.86293" lon="2.932">
        <ele>863</ele>
        <time>2025-06-06T11:43:57Z</time>
      </trkpt>
      <trkpt lat="45.86203" lon="2.93199">
        <ele>870</ele>
        <time>2025-06-06T11:44:18Z</time>
      </trkpt>
      <trkpt lat="45.86038" lon="2.93229">
        <ele>879</ele>
        <time>2025-06-06T11:44:57Z</time>
      </trkpt>
      <trkpt lat="45.85996" lon="2.93139">
        <ele>876</ele>
        <time>2025-06-06T11:45:14Z</time>
      </trkpt>
      <trkpt lat="45.86038" lon="2.92949">
        <ele>878</ele>
        <time>2025-06-06T11:45:47Z</time>
      </trkpt>
      <trkpt lat="45.86034" lon="2.92759">
        <ele>882</ele>
        <time>2025-06-06T11:46:18Z</time>
      </trkpt>
      <trkpt lat="45.86015" lon="2.92563">
        <ele>878</ele>
        <time>2025-06-06T11:46:50Z</time>
      </trkpt>
      <trkpt lat="45.86009" lon="2.92457">
        <ele>879</ele>
        <time>2025-06-06T11:47:07Z</time>
      </trkpt>
      <trkpt lat="45.85967" lon="2.92343">
        <ele>880</ele>
        <time>2025-06-06T11:47:28Z</time>
      </trkpt>
      <trkpt lat="45.85956" lon="2.92227">
        <ele>879</ele>
        <time>2025-06-06T11:47:47Z</time>
      </trkpt>
      <trkpt lat="45.85959" lon="2.92147">
        <ele>879</ele>
        <time>2025-06-06T11:48:00Z</time>
      </trkpt>
      <trkpt lat="45.859" lon="2.92114">
        <ele>881</ele>
        <time>2025-06-06T11:48:15Z</time>
        <extensions>
          <visugpx:TrkExtension xmlns:visugpx="https://www.visugpx.com/editgpx/">
            <visugpx:etape>1</visugpx:etape>
            </visugpx:TrkExtension>
        </extensions>
      </trkpt>
      <trkpt lat="45.85762" lon="2.92208">
        <ele>892</ele>
        <time>2025-06-06T11:48:51Z</time>
      </trkpt>
      <trkpt lat="45.85685" lon="2.92251">
        <ele>893</ele>
        <time>2025-06-06T11:49:10Z</time>
      </trkpt>
      <trkpt lat="45.85538" lon="2.91976">
        <ele>892</ele>
        <time>2025-06-06T11:50:06Z</time>
      </trkpt>
      <trkpt lat="45.85512" lon="2.91956">
        <ele>891</ele>
        <time>2025-06-06T11:50:13Z</time>
      </trkpt>
      <trkpt lat="45.85453" lon="2.91864">
        <ele>891</ele>
        <time>2025-06-06T11:50:34Z</time>
      </trkpt>
      <trkpt lat="45.85405" lon="2.9178">
        <ele>891</ele>
        <time>2025-06-06T11:50:51Z</time>
      </trkpt>
      <trkpt lat="45.85386" lon="2.91597">
        <ele>886</ele>
        <time>2025-06-06T11:51:21Z</time>
      </trkpt>
      <trkpt lat="45.85225" lon="2.91312">
        <ele>880</ele>
        <time>2025-06-06T11:52:21Z</time>
      </trkpt>
      <trkpt lat="45.85035" lon="2.91529">
        <ele>880</ele>
        <time>2025-06-06T11:53:18Z</time>
      </trkpt>
      <trkpt lat="45.85008" lon="2.91648">
        <ele>881</ele>
        <time>2025-06-06T11:53:38Z</time>
      </trkpt>
      <trkpt lat="45.84909" lon="2.91784">
        <ele>882</ele>
        <time>2025-06-06T11:54:10Z</time>
      </trkpt>
      <trkpt lat="45.84878" lon="2.91955">
        <ele>882</ele>
        <time>2025-06-06T11:54:39Z</time>
      </trkpt>
      <trkpt lat="45.84742" lon="2.92102">
        <ele>885</ele>
        <time>2025-06-06T11:55:19Z</time>
      </trkpt>
      <trkpt lat="45.84581" lon="2.92341">
        <ele>887</ele>
        <time>2025-06-06T11:56:13Z</time>
      </trkpt>
      <trkpt lat="45.84429" lon="2.92554">
        <ele>877</ele>
        <time>2025-06-06T11:57:02Z</time>
      </trkpt>
      <trkpt lat="45.84306" lon="2.92506">
        <ele>877</ele>
        <time>2025-06-06T11:57:32Z</time>
      </trkpt>
      <trkpt lat="45.84177" lon="2.92723">
        <ele>880</ele>
        <time>2025-06-06T11:58:18Z</time>
      </trkpt>
      <trkpt lat="45.841" lon="2.928">
        <ele>884</ele>
        <time>2025-06-06T11:58:40Z</time>
      </trkpt>
      <trkpt lat="45.84108" lon="2.92961">
        <ele>895</ele>
        <time>2025-06-06T11:59:07Z</time>
      </trkpt>
      <trkpt lat="45.83815" lon="2.93102">
        <ele>908</ele>
        <time>2025-06-06T12:00:19Z</time>
      </trkpt>
      <trkpt lat="45.83771" lon="2.93263">
        <ele>909</ele>
        <time>2025-06-06T12:00:47Z</time>
      </trkpt>
      <trkpt lat="45.83567" lon="2.93653">
        <ele>931</ele>
        <time>2025-06-06T12:02:06Z</time>
      </trkpt>
      <trkpt lat="45.83435" lon="2.93922">
        <ele>940</ele>
        <time>2025-06-06T12:03:00Z</time>
      </trkpt>
      <trkpt lat="45.83331" lon="2.93937">
        <ele>947</ele>
        <time>2025-06-06T12:03:24Z</time>
      </trkpt>
      <trkpt lat="45.83225" lon="2.94036">
        <ele>951</ele>
        <time>2025-06-06T12:03:54Z</time>
      </trkpt>
      <trkpt lat="45.83116" lon="2.94195">
        <ele>957</ele>
        <time>2025-06-06T12:04:30Z</time>
      </trkpt>
      <trkpt lat="45.83003" lon="2.9431">
        <ele>964</ele>
        <time>2025-06-06T12:05:02Z</time>
      </trkpt>
      <trkpt lat="45.82838" lon="2.94395">
        <ele>978</ele>
        <time>2025-06-06T12:05:43Z</time>
      </trkpt>
      <trkpt lat="45.82678" lon="2.94445">
        <ele>983</ele>
        <time>2025-06-06T12:06:22Z</time>
      </trkpt>
      <trkpt lat="45.82835" lon="2.9452">
        <ele>984</ele>
        <time>2025-06-06T12:07:00Z</time>
      </trkpt>
      <trkpt lat="45.82993" lon="2.94535">
        <ele>976</ele>
        <time>2025-06-06T12:07:37Z</time>
      </trkpt>
      <trkpt lat="45.83157" lon="2.94582">
        <ele>968</ele>
        <time>2025-06-06T12:08:16Z</time>
      </trkpt>
      <trkpt lat="45.83332" lon="2.94587">
        <ele>961</ele>
        <time>2025-06-06T12:08:57Z</time>
      </trkpt>
      <trkpt lat="45.83322" lon="2.94751">
        <ele>970</ele>
        <time>2025-06-06T12:09:24Z</time>
      </trkpt>
      <trkpt lat="45.83255" lon="2.95178">
        <ele>998</ele>
        <time>2025-06-06T12:10:35Z</time>
      </trkpt>
      <trkpt lat="45.83195" lon="2.95393">
        <ele>1022</ele>
        <time>2025-06-06T12:11:13Z</time>
      </trkpt>
      <trkpt lat="45.83106" lon="2.95543">
        <ele>1036</ele>
        <time>2025-06-06T12:11:45Z</time>
      </trkpt>
      <trkpt lat="45.83097" lon="2.95675">
        <ele>1032</ele>
        <time>2025-06-06T12:12:06Z</time>
      </trkpt>
      <trkpt lat="45.83069" lon="2.95791">
        <ele>1026</ele>
        <time>2025-06-06T12:12:26Z</time>
      </trkpt>
      <trkpt lat="45.83022" lon="2.95855">
        <ele>1022</ele>
        <time>2025-06-06T12:12:42Z</time>
      </trkpt>
      <trkpt lat="45.82969" lon="2.95967">
        <ele>1011</ele>
        <time>2025-06-06T12:13:04Z</time>
      </trkpt>
      <trkpt lat="45.82865" lon="2.96094">
        <ele>995</ele>
        <time>2025-06-06T12:13:35Z</time>
      </trkpt>
      <trkpt lat="45.82739" lon="2.96147">
        <ele>994</ele>
        <time>2025-06-06T12:14:06Z</time>
      </trkpt>
      <trkpt lat="45.82617" lon="2.96175">
        <ele>988</ele>
        <time>2025-06-06T12:14:35Z</time>
      </trkpt>
      <trkpt lat="45.82439" lon="2.96324">
        <ele>981</ele>
        <time>2025-06-06T12:15:23Z</time>
      </trkpt>
      <trkpt lat="45.822" lon="2.96286">
        <ele>974</ele>
        <time>2025-06-06T12:16:19Z</time>
      </trkpt>
      <trkpt lat="45.82005" lon="2.96235">
        <ele>963</ele>
        <time>2025-06-06T12:17:06Z</time>
      </trkpt>
      <trkpt lat="45.81886" lon="2.96138">
        <ele>964</ele>
        <time>2025-06-06T12:17:37Z</time>
      </trkpt>
      <trkpt lat="45.81721" lon="2.95988">
        <ele>955</ele>
        <time>2025-06-06T12:18:23Z</time>
      </trkpt>
      <trkpt lat="45.81492" lon="2.95853">
        <ele>958</ele>
        <time>2025-06-06T12:19:21Z</time>
      </trkpt>
      <trkpt lat="45.81429" lon="2.9582">
        <ele>957</ele>
        <time>2025-06-06T12:19:37Z</time>
      </trkpt>
      <trkpt lat="45.8142" lon="2.95735">
        <ele>956</ele>
        <time>2025-06-06T12:19:51Z</time>
      </trkpt>
      <trkpt lat="45.81412" lon="2.95623">
        <ele>956</ele>
        <time>2025-06-06T12:20:09Z</time>
      </trkpt>
      <trkpt lat="45.81409" lon="2.95541">
        <ele>956</ele>
        <time>2025-06-06T12:20:22Z</time>
      </trkpt>
      <trkpt lat="45.81444" lon="2.95424">
        <ele>952</ele>
        <time>2025-06-06T12:20:43Z</time>
      </trkpt>
      <trkpt lat="45.81456" lon="2.95372">
        <ele>954</ele>
        <time>2025-06-06T12:20:52Z</time>
      </trkpt>
      <trkpt lat="45.81465" lon="2.95347">
        <ele>954</ele>
        <time>2025-06-06T12:20:56Z</time>
      </trkpt>
      <trkpt lat="45.81448" lon="2.95327">
        <ele>956</ele>
        <time>2025-06-06T12:21:02Z</time>
      </trkpt>
      <trkpt lat="45.81431" lon="2.95317">
        <ele>958</ele>
        <time>2025-06-06T12:21:06Z</time>
      </trkpt>
      <trkpt lat="45.81402" lon="2.95312">
        <ele>960</ele>
        <time>2025-06-06T12:21:13Z</time>
      </trkpt>
      <trkpt lat="45.81404" lon="2.95293">
        <ele>960</ele>
        <time>2025-06-06T12:21:16Z</time>
      </trkpt>
      <trkpt lat="45.81395" lon="2.95251">
        <ele>961</ele>
        <time>2025-06-06T12:21:23Z</time>
      </trkpt>
      <trkpt lat="45.81373" lon="2.95247">
        <ele>961</ele>
        <time>2025-06-06T12:21:28Z</time>
      </trkpt>
      <trkpt lat="45.81347" lon="2.95246">
        <ele>961</ele>
        <time>2025-06-06T12:21:34Z</time>
      </trkpt>
      <trkpt lat="45.81327" lon="2.95227">
        <ele>960</ele>
        <time>2025-06-06T12:21:40Z</time>
      </trkpt>
      <trkpt lat="45.81314" lon="2.95194">
        <ele>959</ele>
        <time>2025-06-06T12:21:46Z</time>
      </trkpt>
      <trkpt lat="45.81265" lon="2.9516">
        <ele>962</ele>
        <time>2025-06-06T12:21:59Z</time>
      </trkpt>
      <trkpt lat="45.81222" lon="2.951">
        <ele>962</ele>
        <time>2025-06-06T12:22:13Z</time>
      </trkpt>
      <trkpt lat="45.81209" lon="2.95092">
        <ele>963</ele>
        <time>2025-06-06T12:22:16Z</time>
      </trkpt>
      <trkpt lat="45.81135" lon="2.95069">
        <ele>964</ele>
        <time>2025-06-06T12:22:34Z</time>
      </trkpt>
      <trkpt lat="45.81083" lon="2.95069">
        <ele>961</ele>
        <time>2025-06-06T12:22:46Z</time>
      </trkpt>
      <trkpt lat="45.80998" lon="2.95101">
        <ele>963</ele>
        <time>2025-06-06T12:23:06Z</time>
      </trkpt>
      <trkpt lat="45.80942" lon="2.95111">
        <ele>966</ele>
        <time>2025-06-06T12:23:20Z</time>
      </trkpt>
      <trkpt lat="45.80724" lon="2.95046">
        <ele>960</ele>
        <time>2025-06-06T12:24:12Z</time>
      </trkpt>
      <trkpt lat="45.80658" lon="2.95023">
        <ele>956</ele>
        <time>2025-06-06T12:24:27Z</time>
      </trkpt>
      <trkpt lat="45.80514" lon="2.94992">
        <ele>955</ele>
        <time>2025-06-06T12:25:01Z</time>
      </trkpt>
      <trkpt lat="45.80399" lon="2.9504">
        <ele>964</ele>
        <time>2025-06-06T12:25:29Z</time>
      </trkpt>
      <trkpt lat="45.80355" lon="2.95072">
        <ele>972</ele>
        <time>2025-06-06T12:25:41Z</time>
      </trkpt>
      <trkpt lat="45.80339" lon="2.95123">
        <ele>975</ele>
        <time>2025-06-06T12:25:50Z</time>
      </trkpt>
      <trkpt lat="45.80256" lon="2.95171">
        <ele>982</ele>
        <time>2025-06-06T12:26:11Z</time>
      </trkpt>
      <trkpt lat="45.80087" lon="2.95127">
        <ele>998</ele>
        <time>2025-06-06T12:26:51Z</time>
      </trkpt>
      <trkpt lat="45.80074" lon="2.95093">
        <ele>999</ele>
        <time>2025-06-06T12:26:57Z</time>
      </trkpt>
      <trkpt lat="45.79926" lon="2.95048">
        <ele>1011</ele>
        <time>2025-06-06T12:27:33Z</time>
      </trkpt>
      <trkpt lat="45.799" lon="2.94986">
        <ele>1018</ele>
        <time>2025-06-06T12:27:44Z</time>
      </trkpt>
      <trkpt lat="45.79841" lon="2.94993">
        <ele>1021</ele>
        <time>2025-06-06T12:27:58Z</time>
      </trkpt>
      <trkpt lat="45.79817" lon="2.95026">
        <ele>1016</ele>
        <time>2025-06-06T12:28:06Z</time>
      </trkpt>
      <trkpt lat="45.79716" lon="2.9503">
        <ele>1016</ele>
        <time>2025-06-06T12:28:30Z</time>
      </trkpt>
      <trkpt lat="45.79599" lon="2.95064">
        <ele>1015</ele>
        <time>2025-06-06T12:28:58Z</time>
      </trkpt>
      <trkpt lat="45.79329" lon="2.9468">
        <ele>1034</ele>
        <time>2025-06-06T12:30:26Z</time>
      </trkpt>
      <trkpt lat="45.79312" lon="2.9469">
        <ele>1034</ele>
        <time>2025-06-06T12:30:31Z</time>
      </trkpt>
      <trkpt lat="45.79293" lon="2.94685">
        <ele>1034</ele>
        <time>2025-06-06T12:30:35Z</time>
      </trkpt>
      <trkpt lat="45.79274" lon="2.947">
        <ele>1036</ele>
        <time>2025-06-06T12:30:40Z</time>
      </trkpt>
      <trkpt lat="45.79248" lon="2.94693">
        <ele>1037</ele>
        <time>2025-06-06T12:30:46Z</time>
      </trkpt>
      <trkpt lat="45.79226" lon="2.947">
        <ele>1042</ele>
        <time>2025-06-06T12:30:52Z</time>
      </trkpt>
      <trkpt lat="45.79201" lon="2.9469">
        <ele>1045</ele>
        <time>2025-06-06T12:30:58Z</time>
      </trkpt>
      <trkpt lat="45.79177" lon="2.94667">
        <ele>1045</ele>
        <time>2025-06-06T12:31:04Z</time>
      </trkpt>
      <trkpt lat="45.79148" lon="2.9465">
        <ele>1048</ele>
        <time>2025-06-06T12:31:12Z</time>
      </trkpt>
      <trkpt lat="45.79127" lon="2.94625">
        <ele>1049</ele>
        <time>2025-06-06T12:31:18Z</time>
      </trkpt>
      <trkpt lat="45.79105" lon="2.94569">
        <ele>1048</ele>
        <time>2025-06-06T12:31:29Z</time>
      </trkpt>
      <trkpt lat="45.79075" lon="2.94541">
        <ele>1048</ele>
        <time>2025-06-06T12:31:37Z</time>
      </trkpt>
      <trkpt lat="45.79084" lon="2.94477">
        <ele>1043</ele>
        <time>2025-06-06T12:31:48Z</time>
      </trkpt>
      <trkpt lat="45.79105" lon="2.94429">
        <ele>1040</ele>
        <time>2025-06-06T12:31:57Z</time>
      </trkpt>
      <trkpt lat="45.78897" lon="2.944">
        <ele>1051</ele>
        <time>2025-06-06T12:32:46Z</time>
      </trkpt>
      <trkpt lat="45.78792" lon="2.94455">
        <ele>1044</ele>
        <time>2025-06-06T12:33:12Z</time>
      </trkpt>
      <trkpt lat="45.78707" lon="2.94447">
        <ele>1040</ele>
        <time>2025-06-06T12:33:32Z</time>
      </trkpt>
      <trkpt lat="45.78646" lon="2.94418">
        <ele>1039</ele>
        <time>2025-06-06T12:33:47Z</time>
      </trkpt>
      <trkpt lat="45.78639" lon="2.94519">
        <ele>1042</ele>
        <time>2025-06-06T12:34:03Z</time>
      </trkpt>
      <trkpt lat="45.78617" lon="2.94591">
        <ele>1045</ele>
        <time>2025-06-06T12:34:16Z</time>
      </trkpt>
      <trkpt lat="45.78607" lon="2.94692">
        <ele>1048</ele>
        <time>2025-06-06T12:34:33Z</time>
      </trkpt>
      <trkpt lat="45.78649" lon="2.94937">
        <ele>1057</ele>
        <time>2025-06-06T12:35:14Z</time>
      </trkpt>
      <trkpt lat="45.78631" lon="2.95053">
        <ele>1065</ele>
        <time>2025-06-06T12:35:33Z</time>
      </trkpt>
      <trkpt lat="45.78602" lon="2.95436">
        <ele>1070</ele>
        <time>2025-06-06T12:36:36Z</time>
      </trkpt>
      <trkpt lat="45.78582" lon="2.95782">
        <ele>1072</ele>
        <time>2025-06-06T12:37:32Z</time>
      </trkpt>
      <trkpt lat="45.78587" lon="2.95852">
        <ele>1074</ele>
        <time>2025-06-06T12:37:44Z</time>
      </trkpt>
      <trkpt lat="45.78559" lon="2.95847">
        <ele>1073</ele>
        <time>2025-06-06T12:37:50Z</time>
      </trkpt>
      <trkpt lat="45.78474" lon="2.95854">
        <ele>1073</ele>
        <time>2025-06-06T12:38:10Z</time>
      </trkpt>
      <trkpt lat="45.78419" lon="2.95852">
        <ele>1073</ele>
        <time>2025-06-06T12:38:23Z</time>
      </trkpt>
      <trkpt lat="45.78399" lon="2.95856">
        <ele>1073</ele>
        <time>2025-06-06T12:38:28Z</time>
      </trkpt>
      <trkpt lat="45.78362" lon="2.95857">
        <ele>1072</ele>
        <time>2025-06-06T12:38:36Z</time>
      </trkpt>
      <trkpt lat="45.78321" lon="2.95851">
        <ele>1072</ele>
        <time>2025-06-06T12:38:46Z</time>
      </trkpt>
      <trkpt lat="45.78254" lon="2.95827">
        <ele>1071</ele>
        <time>2025-06-06T12:39:02Z</time>
      </trkpt>
      <trkpt lat="45.7821" lon="2.95817">
        <ele>1072</ele>
        <time>2025-06-06T12:39:13Z</time>
      </trkpt>
      <trkpt lat="45.78128" lon="2.9564">
        <ele>1076</ele>
        <time>2025-06-06T12:39:47Z</time>
      </trkpt>
      <trkpt lat="45.78019" lon="2.95368">
        <ele>1072</ele>
        <time>2025-06-06T12:40:38Z</time>
      </trkpt>
      <trkpt lat="45.77861" lon="2.95273">
        <ele>1071</ele>
        <time>2025-06-06T12:41:18Z</time>
      </trkpt>
      <trkpt lat="45.77718" lon="2.95237">
        <ele>1073</ele>
        <time>2025-06-06T12:41:52Z</time>
      </trkpt>
      <trkpt lat="45.77568" lon="2.95298">
        <ele>1073</ele>
        <time>2025-06-06T12:42:29Z</time>
      </trkpt>
      <trkpt lat="45.77519" lon="2.9523">
        <ele>1066</ele>
        <time>2025-06-06T12:42:45Z</time>
      </trkpt>
      <trkpt lat="45.77366" lon="2.95174">
        <ele>1067</ele>
        <time>2025-06-06T12:43:21Z</time>
      </trkpt>
      <trkpt lat="45.7715" lon="2.9523">
        <ele>1083</ele>
        <time>2025-06-06T12:44:13Z</time>
      </trkpt>
      <trkpt lat="45.77002" lon="2.95317">
        <ele>1093</ele>
        <time>2025-06-06T12:44:50Z</time>
      </trkpt>
      <trkpt lat="45.76809" lon="2.95413">
        <ele>1086</ele>
        <time>2025-06-06T12:45:38Z</time>
      </trkpt>
      <trkpt lat="45.7669" lon="2.95413">
        <ele>1079</ele>
        <time>2025-06-06T12:46:06Z</time>
      </trkpt>
      <trkpt lat="45.76585" lon="2.95481">
        <ele>1085</ele>
        <time>2025-06-06T12:46:32Z</time>
      </trkpt>
      <trkpt lat="45.76394" lon="2.95554">
        <ele>1080</ele>
        <time>2025-06-06T12:47:19Z</time>
      </trkpt>
      <trkpt lat="45.7639" lon="2.95587">
        <ele>1080</ele>
        <time>2025-06-06T12:47:24Z</time>
      </trkpt>
      <trkpt lat="45.7638" lon="2.9562">
        <ele>1078</ele>
        <time>2025-06-06T12:47:30Z</time>
      </trkpt>
      <trkpt lat="45.76349" lon="2.95641">
        <ele>1074</ele>
        <time>2025-06-06T12:47:38Z</time>
      </trkpt>
      <trkpt lat="45.76337" lon="2.95665">
        <ele>1071</ele>
        <time>2025-06-06T12:47:43Z</time>
      </trkpt>
      <trkpt lat="45.76318" lon="2.95661">
        <ele>1070</ele>
        <time>2025-06-06T12:47:47Z</time>
      </trkpt>
      <trkpt lat="45.76284" lon="2.95714">
        <ele>1066</ele>
        <time>2025-06-06T12:47:59Z</time>
      </trkpt>
      <trkpt lat="45.76244" lon="2.95739">
        <ele>1063</ele>
        <time>2025-06-06T12:48:09Z</time>
      </trkpt>
      <trkpt lat="45.76189" lon="2.95751">
        <ele>1065</ele>
        <time>2025-06-06T12:48:22Z</time>
      </trkpt>
      <trkpt lat="45.76134" lon="2.95804">
        <ele>1061</ele>
        <time>2025-06-06T12:48:38Z</time>
      </trkpt>
      <trkpt lat="45.76092" lon="2.95822">
        <ele>1062</ele>
        <time>2025-06-06T12:48:48Z</time>
      </trkpt>
      <trkpt lat="45.76075" lon="2.95874">
        <ele>1054</ele>
        <time>2025-06-06T12:48:57Z</time>
      </trkpt>
      <trkpt lat="45.76077" lon="2.95923">
        <ele>1046</ele>
        <time>2025-06-06T12:49:05Z</time>
      </trkpt>
      <trkpt lat="45.76081" lon="2.95982">
        <ele>1033</ele>
        <time>2025-06-06T12:49:15Z</time>
      </trkpt>
      <trkpt lat="45.761" lon="2.9602">
        <ele>1025</ele>
        <time>2025-06-06T12:49:22Z</time>
      </trkpt>
      <trkpt lat="45.76106" lon="2.96054">
        <ele>1019</ele>
        <time>2025-06-06T12:49:28Z</time>
      </trkpt>
      <trkpt lat="45.76101" lon="2.96074">
        <ele>1016</ele>
        <time>2025-06-06T12:49:32Z</time>
      </trkpt>
      <trkpt lat="45.76083" lon="2.9612">
        <ele>1007</ele>
        <time>2025-06-06T12:49:40Z</time>
      </trkpt>
      <trkpt lat="45.76082" lon="2.96151">
        <ele>1002</ele>
        <time>2025-06-06T12:49:45Z</time>
      </trkpt>
      <trkpt lat="45.76067" lon="2.9621">
        <ele>996</ele>
        <time>2025-06-06T12:49:56Z</time>
      </trkpt>
      <trkpt lat="45.76068" lon="2.96235">
        <ele>994</ele>
        <time>2025-06-06T12:50:00Z</time>
      </trkpt>
      <trkpt lat="45.7598" lon="2.96469">
        <ele>978</ele>
        <time>2025-06-06T12:50:43Z</time>
      </trkpt>
      <trkpt lat="45.75754" lon="2.96534">
        <ele>972</ele>
        <time>2025-06-06T12:51:37Z</time>
      </trkpt>
      <trkpt lat="45.75299" lon="2.96741">
        <ele>961</ele>
        <time>2025-06-06T12:53:28Z</time>
      </trkpt>
      <trkpt lat="45.75283" lon="2.96792">
        <ele>961</ele>
        <time>2025-06-06T12:53:37Z</time>
      </trkpt>
      <trkpt lat="45.75236" lon="2.9679">
        <ele>959</ele>
        <time>2025-06-06T12:53:48Z</time>
      </trkpt>
      <trkpt lat="45.74851" lon="2.96887">
        <ele>948</ele>
        <time>2025-06-06T12:55:20Z</time>
      </trkpt>
      <trkpt lat="45.74596" lon="2.97018">
        <ele>951</ele>
        <time>2025-06-06T12:56:23Z</time>
      </trkpt>
      <trkpt lat="45.74491" lon="2.96984">
        <ele>958</ele>
        <time>2025-06-06T12:56:48Z</time>
      </trkpt>
      <trkpt lat="45.74345" lon="2.96919">
        <ele>963</ele>
        <time>2025-06-06T12:57:24Z</time>
      </trkpt>
      <trkpt lat="45.74156" lon="2.96789">
        <ele>967</ele>
        <time>2025-06-06T12:58:13Z</time>
      </trkpt>
      <trkpt lat="45.74081" lon="2.96653">
        <ele>975</ele>
        <time>2025-06-06T12:58:41Z</time>
      </trkpt>
      <trkpt lat="45.74071" lon="2.96626">
        <ele>977</ele>
        <time>2025-06-06T12:58:46Z</time>
      </trkpt>
      <trkpt lat="45.74024" lon="2.96633">
        <ele>979</ele>
        <time>2025-06-06T12:58:57Z</time>
      </trkpt>
      <trkpt lat="45.73818" lon="2.9656">
        <ele>992</ele>
        <time>2025-06-06T12:59:47Z</time>
      </trkpt>
      <trkpt lat="45.73554" lon="2.96396">
        <ele>1000</ele>
        <time>2025-06-06T13:00:54Z</time>
      </trkpt>
      <trkpt lat="45.73307" lon="2.96278">
        <ele>1006</ele>
        <time>2025-06-06T13:01:55Z</time>
      </trkpt>
      <trkpt lat="45.73119" lon="2.96154">
        <ele>1021</ele>
        <time>2025-06-06T13:02:43Z</time>
      </trkpt>
      <trkpt lat="45.7308" lon="2.96147">
        <ele>1023</ele>
        <time>2025-06-06T13:02:52Z</time>
      </trkpt>
      <trkpt lat="45.72993" lon="2.96059">
        <ele>1035</ele>
        <time>2025-06-06T13:03:17Z</time>
      </trkpt>
      <trkpt lat="45.72966" lon="2.96001">
        <ele>1041</ele>
        <time>2025-06-06T13:03:28Z</time>
      </trkpt>
      <trkpt lat="45.72882" lon="2.95888">
        <ele>1052</ele>
        <time>2025-06-06T13:03:55Z</time>
      </trkpt>
      <trkpt lat="45.72839" lon="2.95842">
        <ele>1056</ele>
        <time>2025-06-06T13:04:08Z</time>
      </trkpt>
      <trkpt lat="45.72799" lon="2.95769">
        <ele>1060</ele>
        <time>2025-06-06T13:04:23Z</time>
      </trkpt>
      <trkpt lat="45.72705" lon="2.95648">
        <ele>1066</ele>
        <time>2025-06-06T13:04:52Z</time>
      </trkpt>
      <trkpt lat="45.72597" lon="2.95645">
        <ele>1069</ele>
        <time>2025-06-06T13:05:18Z</time>
      </trkpt>
      <trkpt lat="45.72544" lon="2.95611">
        <ele>1073</ele>
        <time>2025-06-06T13:05:31Z</time>
      </trkpt>
      <trkpt lat="45.72307" lon="2.95329">
        <ele>1094</ele>
        <time>2025-06-06T13:06:43Z</time>
      </trkpt>
      <trkpt lat="45.72217" lon="2.95212">
        <ele>1100</ele>
        <time>2025-06-06T13:07:11Z</time>
      </trkpt>
      <trkpt lat="45.72065" lon="2.95145">
        <ele>1090</ele>
        <time>2025-06-06T13:07:49Z</time>
      </trkpt>
      <trkpt lat="45.71854" lon="2.95025">
        <ele>1082</ele>
        <time>2025-06-06T13:08:42Z</time>
      </trkpt>
      <trkpt lat="45.71741" lon="2.94928">
        <ele>1079</ele>
        <time>2025-06-06T13:09:12Z</time>
      </trkpt>
      <trkpt lat="45.71633" lon="2.94862">
        <ele>1075</ele>
        <time>2025-06-06T13:09:40Z</time>
      </trkpt>
      <trkpt lat="45.71501" lon="2.94825">
        <ele>1067</ele>
        <time>2025-06-06T13:10:11Z</time>
      </trkpt>
      <trkpt lat="45.71427" lon="2.94794">
        <ele>1060</ele>
        <time>2025-06-06T13:10:29Z</time>
      </trkpt>
      <trkpt lat="45.71375" lon="2.94732">
        <ele>1057</ele>
        <time>2025-06-06T13:10:45Z</time>
      </trkpt>
      <trkpt lat="45.71336" lon="2.94705">
        <ele>1057</ele>
        <time>2025-06-06T13:10:55Z</time>
      </trkpt>
      <trkpt lat="45.71226" lon="2.94649">
        <ele>1054</ele>
        <time>2025-06-06T13:11:22Z</time>
      </trkpt>
      <trkpt lat="45.71044" lon="2.94287">
        <ele>1044</ele>
        <time>2025-06-06T13:12:35Z</time>
      </trkpt>
      <trkpt lat="45.70956" lon="2.94216">
        <ele>1044</ele>
        <time>2025-06-06T13:12:59Z</time>
      </trkpt>
      <trkpt lat="45.70921" lon="2.94129">
        <ele>1044</ele>
        <time>2025-06-06T13:13:15Z</time>
      </trkpt>
      <trkpt lat="45.70836" lon="2.94057">
        <ele>1049</ele>
        <time>2025-06-06T13:13:38Z</time>
      </trkpt>
      <trkpt lat="45.70773" lon="2.93941">
        <ele>1047</ele>
        <time>2025-06-06T13:14:02Z</time>
      </trkpt>
      <trkpt lat="45.70654" lon="2.93684">
        <ele>1052</ele>
        <time>2025-06-06T13:14:52Z</time>
      </trkpt>
      <trkpt lat="45.70573" lon="2.93344">
        <ele>1048</ele>
        <time>2025-06-06T13:15:51Z</time>
      </trkpt>
      <trkpt lat="45.70548" lon="2.93252">
        <ele>1046</ele>
        <time>2025-06-06T13:16:07Z</time>
      </trkpt>
      <trkpt lat="45.70539" lon="2.93129">
        <ele>1044</ele>
        <time>2025-06-06T13:16:27Z</time>
      </trkpt>
      <trkpt lat="45.70522" lon="2.93068">
        <ele>1042</ele>
        <time>2025-06-06T13:16:38Z</time>
      </trkpt>
      <trkpt lat="45.70531" lon="2.92998">
        <ele>1040</ele>
        <time>2025-06-06T13:16:50Z</time>
      </trkpt>
      <trkpt lat="45.70527" lon="2.92885">
        <ele>1038</ele>
        <time>2025-06-06T13:17:08Z</time>
      </trkpt>
      <trkpt lat="45.70497" lon="2.92689">
        <ele>1032</ele>
        <time>2025-06-06T13:17:41Z</time>
      </trkpt>
      <trkpt lat="45.70511" lon="2.92506">
        <ele>1026</ele>
        <time>2025-06-06T13:18:11Z</time>
      </trkpt>
      <trkpt lat="45.70487" lon="2.924">
        <ele>1019</ele>
        <time>2025-06-06T13:18:29Z</time>
      </trkpt>
      <trkpt lat="45.70481" lon="2.92201">
        <ele>1011</ele>
        <time>2025-06-06T13:19:01Z</time>
      </trkpt>
      <trkpt lat="45.70495" lon="2.92051">
        <ele>1005</ele>
        <time>2025-06-06T13:19:26Z</time>
      </trkpt>
      <trkpt lat="45.70405" lon="2.91741">
        <ele>976</ele>
        <time>2025-06-06T13:20:21Z</time>
      </trkpt>
      <trkpt lat="45.70376" lon="2.91795">
        <ele>975</ele>
        <time>2025-06-06T13:20:32Z</time>
      </trkpt>
      <trkpt lat="45.7036" lon="2.91789">
        <ele>972</ele>
        <time>2025-06-06T13:20:36Z</time>
      </trkpt>
      <trkpt lat="45.70371" lon="2.91735">
        <ele>969</ele>
        <time>2025-06-06T13:20:45Z</time>
      </trkpt>
      <trkpt lat="45.70392" lon="2.91673">
        <ele>965</ele>
        <time>2025-06-06T13:20:56Z</time>
      </trkpt>
      <trkpt lat="45.70418" lon="2.91636">
        <ele>962</ele>
        <time>2025-06-06T13:21:05Z</time>
      </trkpt>
      <trkpt lat="45.7044" lon="2.91617">
        <ele>963</ele>
        <time>2025-06-06T13:21:11Z</time>
      </trkpt>
      <trkpt lat="45.70438" lon="2.916">
        <ele>960</ele>
        <time>2025-06-06T13:21:14Z</time>
      </trkpt>
      <trkpt lat="45.70431" lon="2.91599">
        <ele>958</ele>
        <time>2025-06-06T13:21:15Z</time>
      </trkpt>
      <trkpt lat="45.70405" lon="2.91625">
        <ele>960</ele>
        <time>2025-06-06T13:21:23Z</time>
      </trkpt>
      <trkpt lat="45.70363" lon="2.91627">
        <ele>957</ele>
        <time>2025-06-06T13:21:33Z</time>
      </trkpt>
      <trkpt lat="45.70349" lon="2.91587">
        <ele>953</ele>
        <time>2025-06-06T13:21:40Z</time>
      </trkpt>
      <trkpt lat="45.70333" lon="2.91519">
        <ele>948</ele>
        <time>2025-06-06T13:21:52Z</time>
      </trkpt>
      <trkpt lat="45.7034" lon="2.91445">
        <ele>943</ele>
        <time>2025-06-06T13:22:04Z</time>
      </trkpt>
      <trkpt lat="45.70321" lon="2.91406">
        <ele>940</ele>
        <time>2025-06-06T13:22:11Z</time>
      </trkpt>
      <trkpt lat="45.70334" lon="2.91387">
        <ele>938</ele>
        <time>2025-06-06T13:22:16Z</time>
      </trkpt>
      <trkpt lat="45.70323" lon="2.91341">
        <ele>934</ele>
        <time>2025-06-06T13:22:24Z</time>
      </trkpt>
      <trkpt lat="45.70481" lon="2.91251">
        <ele>927</ele>
        <time>2025-06-06T13:23:03Z</time>
      </trkpt>
      <trkpt lat="45.70477" lon="2.91215">
        <ele>929</ele>
        <time>2025-06-06T13:23:09Z</time>
      </trkpt>
      <trkpt lat="45.70538" lon="2.91066">
        <ele>936</ele>
        <time>2025-06-06T13:23:38Z</time>
      </trkpt>
      <trkpt lat="45.70611" lon="2.90973">
        <ele>934</ele>
        <time>2025-06-06T13:24:00Z</time>
      </trkpt>
      <trkpt lat="45.70655" lon="2.90877">
        <ele>934</ele>
        <time>2025-06-06T13:24:19Z</time>
      </trkpt>
      <trkpt lat="45.70662" lon="2.90793">
        <ele>933</ele>
        <time>2025-06-06T13:24:33Z</time>
      </trkpt>
      <trkpt lat="45.70589" lon="2.9078">
        <ele>933</ele>
        <time>2025-06-06T13:24:50Z</time>
      </trkpt>
      <trkpt lat="45.70443" lon="2.90457">
        <ele>918</ele>
        <time>2025-06-06T13:25:53Z</time>
      </trkpt>
      <trkpt lat="45.70443" lon="2.90355">
        <ele>913</ele>
        <time>2025-06-06T13:26:09Z</time>
      </trkpt>
      <trkpt lat="45.70507" lon="2.90278">
        <ele>913</ele>
        <time>2025-06-06T13:26:29Z</time>
      </trkpt>
      <trkpt lat="45.70525" lon="2.90099">
        <ele>917</ele>
        <time>2025-06-06T13:26:58Z</time>
      </trkpt>
      <trkpt lat="45.70382" lon="2.89921">
        <ele>915</ele>
        <time>2025-06-06T13:27:43Z</time>
      </trkpt>
      <trkpt lat="45.70264" lon="2.89819">
        <ele>909</ele>
        <time>2025-06-06T13:28:15Z</time>
      </trkpt>
      <trkpt lat="45.70166" lon="2.89684">
        <ele>897</ele>
        <time>2025-06-06T13:28:47Z</time>
      </trkpt>
      <trkpt lat="45.70076" lon="2.89635">
        <ele>891</ele>
        <time>2025-06-06T13:29:09Z</time>
      </trkpt>
      <trkpt lat="45.69987" lon="2.89535">
        <ele>883</ele>
        <time>2025-06-06T13:29:36Z</time>
      </trkpt>
      <trkpt lat="45.69927" lon="2.89376">
        <ele>882</ele>
        <time>2025-06-06T13:30:05Z</time>
      </trkpt>
      <trkpt lat="45.69866" lon="2.89309">
        <ele>888</ele>
        <time>2025-06-06T13:30:23Z</time>
      </trkpt>
      <trkpt lat="45.69959" lon="2.89239">
        <ele>894</ele>
        <time>2025-06-06T13:30:48Z</time>
      </trkpt>
      <trkpt lat="45.70027" lon="2.89137">
        <ele>907</ele>
        <time>2025-06-06T13:31:11Z</time>
      </trkpt>
      <trkpt lat="45.70121" lon="2.89141">
        <ele>910</ele>
        <time>2025-06-06T13:31:32Z</time>
      </trkpt>
      <trkpt lat="45.70218" lon="2.89126">
        <ele>917</ele>
        <time>2025-06-06T13:31:55Z</time>
      </trkpt>
      <trkpt lat="45.70286" lon="2.89047">
        <ele>924</ele>
        <time>2025-06-06T13:32:16Z</time>
      </trkpt>
      <trkpt lat="45.70307" lon="2.88954">
        <ele>925</ele>
        <time>2025-06-06T13:32:32Z</time>
      </trkpt>
      <trkpt lat="45.70113" lon="2.88913">
        <ele>928</ele>
        <time>2025-06-06T13:33:17Z</time>
      </trkpt>
      <trkpt lat="45.6967" lon="2.88938">
        <ele>932</ele>
        <time>2025-06-06T13:35:01Z</time>
      </trkpt>
      <trkpt lat="45.69412" lon="2.88848">
        <ele>936</ele>
        <time>2025-06-06T13:36:03Z</time>
      </trkpt>
      <trkpt lat="45.69216" lon="2.88866">
        <ele>940</ele>
        <time>2025-06-06T13:36:49Z</time>
      </trkpt>
      <trkpt lat="45.69124" lon="2.88782">
        <ele>945</ele>
        <time>2025-06-06T13:37:14Z</time>
      </trkpt>
      <trkpt lat="45.69016" lon="2.88771">
        <ele>946</ele>
        <time>2025-06-06T13:37:40Z</time>
      </trkpt>
      <trkpt lat="45.68864" lon="2.88654">
        <ele>954</ele>
        <time>2025-06-06T13:38:20Z</time>
      </trkpt>
      <trkpt lat="45.68885" lon="2.8858">
        <ele>959</ele>
        <time>2025-06-06T13:38:33Z</time>
      </trkpt>
      <trkpt lat="45.68939" lon="2.88125">
        <ele>956</ele>
        <time>2025-06-06T13:39:48Z</time>
      </trkpt>
      <trkpt lat="45.68901" lon="2.88006">
        <ele>947</ele>
        <time>2025-06-06T13:40:10Z</time>
      </trkpt>
      <trkpt lat="45.6892" lon="2.87797">
        <ele>929</ele>
        <time>2025-06-06T13:40:44Z</time>
      </trkpt>
      <trkpt lat="45.68903" lon="2.87601">
        <ele>914</ele>
        <time>2025-06-06T13:41:16Z</time>
      </trkpt>
      <trkpt lat="45.68913" lon="2.87457">
        <ele>892</ele>
        <time>2025-06-06T13:41:40Z</time>
      </trkpt>
      <trkpt lat="45.68967" lon="2.87272">
        <ele>869</ele>
        <time>2025-06-06T13:42:13Z</time>
      </trkpt>
      <trkpt lat="45.68964" lon="2.87146">
        <ele>857</ele>
        <time>2025-06-06T13:42:33Z</time>
      </trkpt>
      <trkpt lat="45.68933" lon="2.87084">
        <ele>848</ele>
        <time>2025-06-06T13:42:46Z</time>
      </trkpt>
      <trkpt lat="45.68947" lon="2.86911">
        <ele>845</ele>
        <time>2025-06-06T13:43:14Z</time>
      </trkpt>
      <trkpt lat="45.68985" lon="2.86865">
        <ele>844</ele>
        <time>2025-06-06T13:43:26Z</time>
      </trkpt>
      <trkpt lat="45.69138" lon="2.86849">
        <ele>839</ele>
        <time>2025-06-06T13:44:01Z</time>
      </trkpt>
      <trkpt lat="45.69208" lon="2.86805">
        <ele>838</ele>
        <time>2025-06-06T13:44:19Z</time>
      </trkpt>
      <trkpt lat="45.69218" lon="2.86786">
        <ele>838</ele>
        <time>2025-06-06T13:44:23Z</time>
      </trkpt>
      <trkpt lat="45.69202" lon="2.8673">
        <ele>841</ele>
        <time>2025-06-06T13:44:33Z</time>
      </trkpt>
      <trkpt lat="45.6923" lon="2.86701">
        <ele>842</ele>
        <time>2025-06-06T13:44:41Z</time>
      </trkpt>
      <trkpt lat="45.69247" lon="2.86713">
        <ele>840</ele>
        <time>2025-06-06T13:44:45Z</time>
      </trkpt>
      <trkpt lat="45.6925" lon="2.86771">
        <ele>837</ele>
        <time>2025-06-06T13:44:55Z</time>
      </trkpt>
      <trkpt lat="45.69269" lon="2.86799">
        <ele>836</ele>
        <time>2025-06-06T13:45:01Z</time>
      </trkpt>
      <trkpt lat="45.69379" lon="2.86811">
        <ele>837</ele>
        <time>2025-06-06T13:45:27Z</time>
      </trkpt>
      <trkpt lat="45.69426" lon="2.86811">
        <ele>839</ele>
        <time>2025-06-06T13:45:38Z</time>
      </trkpt>
      <trkpt lat="45.69477" lon="2.86866">
        <ele>848</ele>
        <time>2025-06-06T13:45:53Z</time>
      </trkpt>
      <trkpt lat="45.69516" lon="2.86819">
        <ele>847</ele>
        <time>2025-06-06T13:46:05Z</time>
      </trkpt>
      <trkpt lat="45.69704" lon="2.86772">
        <ele>847</ele>
        <time>2025-06-06T13:46:49Z</time>
      </trkpt>
      <trkpt lat="45.70017" lon="2.86702">
        <ele>828</ele>
        <time>2025-06-06T13:48:03Z</time>
      </trkpt>
      <trkpt lat="45.70267" lon="2.8663">
        <ele>821</ele>
        <time>2025-06-06T13:49:03Z</time>
      </trkpt>
      <trkpt lat="45.70668" lon="2.86485">
        <ele>819</ele>
        <time>2025-06-06T13:50:40Z</time>
      </trkpt>
      <trkpt lat="45.70654" lon="2.86363">
        <ele>811</ele>
        <time>2025-06-06T13:51:00Z</time>
      </trkpt>
      <trkpt lat="45.70659" lon="2.86251">
        <ele>802</ele>
        <time>2025-06-06T13:51:18Z</time>
      </trkpt>
      <trkpt lat="45.70634" lon="2.86159">
        <ele>801</ele>
        <time>2025-06-06T13:51:34Z</time>
      </trkpt>
      <trkpt lat="45.70622" lon="2.8607">
        <ele>806</ele>
        <time>2025-06-06T13:51:49Z</time>
      </trkpt>
      <trkpt lat="45.70588" lon="2.85917">
        <ele>825</ele>
        <time>2025-06-06T13:52:15Z</time>
      </trkpt>
      <trkpt lat="45.70689" lon="2.85881">
        <ele>829</ele>
        <time>2025-06-06T13:52:39Z</time>
      </trkpt>
      <trkpt lat="45.7086" lon="2.85643">
        <ele>863</ele>
        <time>2025-06-06T13:53:35Z</time>
      </trkpt>
      <trkpt lat="45.70839" lon="2.85558">
        <ele>865</ele>
        <time>2025-06-06T13:53:50Z</time>
      </trkpt>
      <trkpt lat="45.70682" lon="2.85656">
        <ele>884</ele>
        <time>2025-06-06T13:54:30Z</time>
      </trkpt>
      <trkpt lat="45.7058" lon="2.85648">
        <ele>886</ele>
        <time>2025-06-06T13:54:54Z</time>
      </trkpt>
      <trkpt lat="45.70516" lon="2.85544">
        <ele>897</ele>
        <time>2025-06-06T13:55:16Z</time>
      </trkpt>
      <trkpt lat="45.70389" lon="2.85374">
        <ele>910</ele>
        <time>2025-06-06T13:55:57Z</time>
      </trkpt>
      <trkpt lat="45.70242" lon="2.85306">
        <ele>919</ele>
        <time>2025-06-06T13:56:33Z</time>
      </trkpt>
      <trkpt lat="45.69798" lon="2.85134">
        <ele>937</ele>
        <time>2025-06-06T13:58:20Z</time>
      </trkpt>
      <trkpt lat="45.69613" lon="2.85041">
        <ele>943</ele>
        <time>2025-06-06T13:59:06Z</time>
      </trkpt>
      <trkpt lat="45.69282" lon="2.84858">
        <ele>945</ele>
        <time>2025-06-06T14:00:29Z</time>
      </trkpt>
      <trkpt lat="45.69193" lon="2.84803">
        <ele>942</ele>
        <time>2025-06-06T14:00:52Z</time>
      </trkpt>
      <trkpt lat="45.69137" lon="2.84718">
        <ele>943</ele>
        <time>2025-06-06T14:01:11Z</time>
      </trkpt>
      <trkpt lat="45.69069" lon="2.84687">
        <ele>945</ele>
        <time>2025-06-06T14:01:27Z</time>
      </trkpt>
      <trkpt lat="45.69044" lon="2.84658">
        <ele>945</ele>
        <time>2025-06-06T14:01:35Z</time>
      </trkpt>
      <trkpt lat="45.68881" lon="2.84491">
        <ele>931</ele>
        <time>2025-06-06T14:02:22Z</time>
      </trkpt>
      <trkpt lat="45.68688" lon="2.84448">
        <ele>913</ele>
        <time>2025-06-06T14:03:07Z</time>
      </trkpt>
      <trkpt lat="45.68538" lon="2.84424">
        <ele>894</ele>
        <time>2025-06-06T14:03:43Z</time>
      </trkpt>
      <trkpt lat="45.68504" lon="2.84408">
        <ele>888</ele>
        <time>2025-06-06T14:03:51Z</time>
      </trkpt>
      <trkpt lat="45.68498" lon="2.84397">
        <ele>886</ele>
        <time>2025-06-06T14:03:53Z</time>
      </trkpt>
      <trkpt lat="45.68435" lon="2.84397">
        <ele>888</ele>
        <time>2025-06-06T14:04:08Z</time>
      </trkpt>
      <trkpt lat="45.68158" lon="2.84302">
        <ele>891</ele>
        <time>2025-06-06T14:05:14Z</time>
      </trkpt>
      <trkpt lat="45.68122" lon="2.8428">
        <ele>889</ele>
        <time>2025-06-06T14:05:24Z</time>
      </trkpt>
      <trkpt lat="45.68107" lon="2.84283">
        <ele>891</ele>
        <time>2025-06-06T14:05:27Z</time>
      </trkpt>
      <trkpt lat="45.67947" lon="2.84206">
        <ele>895</ele>
        <time>2025-06-06T14:06:07Z</time>
      </trkpt>
      <trkpt lat="45.67858" lon="2.84198">
        <ele>900</ele>
        <time>2025-06-06T14:06:27Z</time>
      </trkpt>
      <trkpt lat="45.67846" lon="2.84208">
        <ele>902</ele>
        <time>2025-06-06T14:06:31Z</time>
      </trkpt>
      <trkpt lat="45.67709" lon="2.84219">
        <ele>912</ele>
        <time>2025-06-06T14:07:03Z</time>
      </trkpt>
      <trkpt lat="45.67669" lon="2.84252">
        <ele>919</ele>
        <time>2025-06-06T14:07:13Z</time>
      </trkpt>
      <trkpt lat="45.6758" lon="2.84367">
        <ele>936</ele>
        <time>2025-06-06T14:07:41Z</time>
      </trkpt>
      <trkpt lat="45.67541" lon="2.84492">
        <ele>954</ele>
        <time>2025-06-06T14:08:04Z</time>
      </trkpt>
      <trkpt lat="45.67491" lon="2.84597">
        <ele>974</ele>
        <time>2025-06-06T14:08:24Z</time>
      </trkpt>
      <trkpt lat="45.67392" lon="2.84664">
        <ele>996</ele>
        <time>2025-06-06T14:08:50Z</time>
      </trkpt>
      <trkpt lat="45.67329" lon="2.84596">
        <ele>987</ele>
        <time>2025-06-06T14:09:08Z</time>
      </trkpt>
      <trkpt lat="45.67311" lon="2.84609">
        <ele>987</ele>
        <time>2025-06-06T14:09:13Z</time>
      </trkpt>
      <trkpt lat="45.67308" lon="2.84718">
        <ele>1005</ele>
        <time>2025-06-06T14:09:31Z</time>
      </trkpt>
      <trkpt lat="45.67221" lon="2.84986">
        <ele>1026</ele>
        <time>2025-06-06T14:10:19Z</time>
      </trkpt>
      <trkpt lat="45.6712" lon="2.85008">
        <ele>1029</ele>
        <time>2025-06-06T14:10:43Z</time>
      </trkpt>
      <trkpt lat="45.6719" lon="2.85073">
        <ele>1031</ele>
        <time>2025-06-06T14:11:03Z</time>
      </trkpt>
      <trkpt lat="45.67201" lon="2.85134">
        <ele>1032</ele>
        <time>2025-06-06T14:11:13Z</time>
      </trkpt>
      <trkpt lat="45.66996" lon="2.85064">
        <ele>1040</ele>
        <time>2025-06-06T14:12:02Z</time>
      </trkpt>
      <trkpt lat="45.66509" lon="2.84848">
        <ele>1082</ele>
        <time>2025-06-06T14:14:01Z</time>
      </trkpt>
      <trkpt lat="45.66321" lon="2.84721">
        <ele>1087</ele>
        <time>2025-06-06T14:14:50Z</time>
      </trkpt>
      <trkpt lat="45.66204" lon="2.84788">
        <ele>1092</ele>
        <time>2025-06-06T14:15:19Z</time>
      </trkpt>
      <trkpt lat="45.66193" lon="2.84896">
        <ele>1096</ele>
        <time>2025-06-06T14:15:37Z</time>
      </trkpt>
      <trkpt lat="45.66088" lon="2.84953">
        <ele>1107</ele>
        <time>2025-06-06T14:16:03Z</time>
      </trkpt>
      <trkpt lat="45.65962" lon="2.85029">
        <ele>1120</ele>
        <time>2025-06-06T14:16:35Z</time>
      </trkpt>
      <trkpt lat="45.65766" lon="2.85088">
        <ele>1138</ele>
        <time>2025-06-06T14:17:22Z</time>
      </trkpt>
      <trkpt lat="45.65651" lon="2.85231">
        <ele>1146</ele>
        <time>2025-06-06T14:17:57Z</time>
      </trkpt>
      <trkpt lat="45.65515" lon="2.85365">
        <ele>1165</ele>
        <time>2025-06-06T14:18:36Z</time>
      </trkpt>
      <trkpt lat="45.65414" lon="2.85412">
        <ele>1173</ele>
        <time>2025-06-06T14:19:01Z</time>
      </trkpt>
      <trkpt lat="45.6531" lon="2.85376">
        <ele>1180</ele>
        <time>2025-06-06T14:19:26Z</time>
      </trkpt>
      <trkpt lat="45.65255" lon="2.85265">
        <ele>1182</ele>
        <time>2025-06-06T14:19:48Z</time>
      </trkpt>
      <trkpt lat="45.65112" lon="2.8523">
        <ele>1187</ele>
        <time>2025-06-06T14:20:22Z</time>
      </trkpt>
      <trkpt lat="45.64977" lon="2.85216">
        <ele>1189</ele>
        <time>2025-06-06T14:20:53Z</time>
      </trkpt>
      <trkpt lat="45.64962" lon="2.85215">
        <ele>1189</ele>
        <time>2025-06-06T14:20:57Z</time>
      </trkpt>
      <trkpt lat="45.64773" lon="2.85364">
        <ele>1206</ele>
        <time>2025-06-06T14:21:47Z</time>
      </trkpt>
      <trkpt lat="45.64749" lon="2.85557">
        <ele>1213</ele>
        <time>2025-06-06T14:22:19Z</time>
      </trkpt>
      <trkpt lat="45.64773" lon="2.85743">
        <ele>1212</ele>
        <time>2025-06-06T14:22:50Z</time>
      </trkpt>
      <trkpt lat="45.64791" lon="2.85842">
        <ele>1213</ele>
        <time>2025-06-06T14:23:07Z</time>
      </trkpt>
      <trkpt lat="45.64774" lon="2.86006">
        <ele>1212</ele>
        <time>2025-06-06T14:23:34Z</time>
      </trkpt>
      <trkpt lat="45.64717" lon="2.86214">
        <ele>1212</ele>
        <time>2025-06-06T14:24:11Z</time>
      </trkpt>
      <trkpt lat="45.64717" lon="2.86637">
        <ele>1183</ele>
        <time>2025-06-06T14:25:20Z</time>
      </trkpt>
      <trkpt lat="45.6472" lon="2.8664">
        <ele>1183</ele>
        <time>2025-06-06T14:25:20Z</time>
      </trkpt>
      <trkpt lat="45.64702" lon="2.86728">
        <ele>1182</ele>
        <time>2025-06-06T14:25:35Z</time>
      </trkpt>
      <trkpt lat="45.64694" lon="2.86799">
        <ele>1180</ele>
        <time>2025-06-06T14:25:47Z</time>
      </trkpt>
      <trkpt lat="45.64666" lon="2.86888">
        <ele>1180</ele>
        <time>2025-06-06T14:26:03Z</time>
      </trkpt>
      <trkpt lat="45.64626" lon="2.8695">
        <ele>1182</ele>
        <time>2025-06-06T14:26:17Z</time>
      </trkpt>
      <trkpt lat="45.64577" lon="2.87009">
        <ele>1184</ele>
        <time>2025-06-06T14:26:32Z</time>
      </trkpt>
      <trkpt lat="45.64552" lon="2.87063">
        <ele>1182</ele>
        <time>2025-06-06T14:26:42Z</time>
      </trkpt>
      <trkpt lat="45.64547" lon="2.8711">
        <ele>1181</ele>
        <time>2025-06-06T14:26:50Z</time>
      </trkpt>
      <trkpt lat="45.64511" lon="2.87156">
        <ele>1179</ele>
        <time>2025-06-06T14:27:01Z</time>
      </trkpt>
      <trkpt lat="45.64498" lon="2.8725">
        <ele>1175</ele>
        <time>2025-06-06T14:27:17Z</time>
      </trkpt>
      <trkpt lat="45.64525" lon="2.87351">
        <ele>1170</ele>
        <time>2025-06-06T14:27:35Z</time>
      </trkpt>
      <trkpt lat="45.64517" lon="2.87549">
        <ele>1152</ele>
        <time>2025-06-06T14:28:07Z</time>
      </trkpt>
      <trkpt lat="45.64518" lon="2.87752">
        <ele>1136</ele>
        <time>2025-06-06T14:28:40Z</time>
      </trkpt>
      <trkpt lat="45.64516" lon="2.87767">
        <ele>1135</ele>
        <time>2025-06-06T14:28:43Z</time>
      </trkpt>
      <trkpt lat="45.64556" lon="2.87851">
        <ele>1131</ele>
        <time>2025-06-06T14:28:59Z</time>
      </trkpt>
      <trkpt lat="45.64657" lon="2.87913">
        <ele>1129</ele>
        <time>2025-06-06T14:29:25Z</time>
      </trkpt>
      <trkpt lat="45.64738" lon="2.88016">
        <ele>1125</ele>
        <time>2025-06-06T14:29:50Z</time>
      </trkpt>
      <trkpt lat="45.64742" lon="2.88058">
        <ele>1120</ele>
        <time>2025-06-06T14:29:57Z</time>
      </trkpt>
      <trkpt lat="45.6471" lon="2.88086">
        <ele>1118</ele>
        <time>2025-06-06T14:30:06Z</time>
      </trkpt>
      <trkpt lat="45.64634" lon="2.88066">
        <ele>1123</ele>
        <time>2025-06-06T14:30:24Z</time>
      </trkpt>
      <trkpt lat="45.64535" lon="2.88088">
        <ele>1130</ele>
        <time>2025-06-06T14:30:47Z</time>
      </trkpt>
      <trkpt lat="45.64445" lon="2.88145">
        <ele>1133</ele>
        <time>2025-06-06T14:31:10Z</time>
      </trkpt>
      <trkpt lat="45.64381" lon="2.88189">
        <ele>1133</ele>
        <time>2025-06-06T14:31:27Z</time>
      </trkpt>
      <trkpt lat="45.64253" lon="2.88178">
        <ele>1142</ele>
        <time>2025-06-06T14:31:57Z</time>
      </trkpt>
      <trkpt lat="45.64062" lon="2.88224">
        <ele>1156</ele>
        <time>2025-06-06T14:32:42Z</time>
      </trkpt>
      <trkpt lat="45.63989" lon="2.88349">
        <ele>1161</ele>
        <time>2025-06-06T14:33:09Z</time>
      </trkpt>
      <trkpt lat="45.63932" lon="2.88534">
        <ele>1165</ele>
        <time>2025-06-06T14:33:42Z</time>
      </trkpt>
      <trkpt lat="45.63816" lon="2.8878">
        <ele>1164</ele>
        <time>2025-06-06T14:34:30Z</time>
      </trkpt>
      <trkpt lat="45.63687" lon="2.88916">
        <ele>1167</ele>
        <time>2025-06-06T14:35:08Z</time>
      </trkpt>
      <trkpt lat="45.63496" lon="2.88985">
        <ele>1174</ele>
        <time>2025-06-06T14:35:54Z</time>
      </trkpt>
      <trkpt lat="45.63455" lon="2.89039">
        <ele>1168</ele>
        <time>2025-06-06T14:36:07Z</time>
      </trkpt>
      <trkpt lat="45.63439" lon="2.89132">
        <ele>1159</ele>
        <time>2025-06-06T14:36:22Z</time>
      </trkpt>
      <trkpt lat="45.6362" lon="2.89406">
        <ele>1143</ele>
        <time>2025-06-06T14:37:24Z</time>
      </trkpt>
      <trkpt lat="45.63464" lon="2.8951">
        <ele>1129</ele>
        <time>2025-06-06T14:38:04Z</time>
      </trkpt>
      <trkpt lat="45.63449" lon="2.89756">
        <ele>1121</ele>
        <time>2025-06-06T14:38:44Z</time>
      </trkpt>
      <trkpt lat="45.63713" lon="2.90561">
        <ele>1103</ele>
        <time>2025-06-06T14:41:10Z</time>
      </trkpt>
      <trkpt lat="45.63512" lon="2.90696">
        <ele>1081</ele>
        <time>2025-06-06T14:42:01Z</time>
      </trkpt>
      <trkpt lat="45.63622" lon="2.91021">
        <ele>1080</ele>
        <time>2025-06-06T14:43:00Z</time>
      </trkpt>
      <trkpt lat="45.63694" lon="2.91217">
        <ele>1076</ele>
        <time>2025-06-06T14:43:37Z</time>
      </trkpt>
      <trkpt lat="45.63757" lon="2.91399">
        <ele>1069</ele>
        <time>2025-06-06T14:44:10Z</time>
      </trkpt>
      <trkpt lat="45.63757" lon="2.91394">
        <ele>1069</ele>
        <time>2025-06-06T14:44:11Z</time>
      </trkpt>
      <trkpt lat="45.63777" lon="2.91463">
        <ele>1069</ele>
        <time>2025-06-06T14:44:23Z</time>
      </trkpt>
      <trkpt lat="45.63829" lon="2.9159">
        <ele>1070</ele>
        <time>2025-06-06T14:44:47Z</time>
      </trkpt>
      <trkpt lat="45.63852" lon="2.9167">
        <ele>1065</ele>
        <time>2025-06-06T14:45:01Z</time>
      </trkpt>
      <trkpt lat="45.63935" lon="2.91893">
        <ele>1047</ele>
        <time>2025-06-06T14:45:42Z</time>
      </trkpt>
      <trkpt lat="45.63956" lon="2.91959">
        <ele>1043</ele>
        <time>2025-06-06T14:45:54Z</time>
      </trkpt>
      <trkpt lat="45.63979" lon="2.92017">
        <ele>1040</ele>
        <time>2025-06-06T14:46:05Z</time>
      </trkpt>
      <trkpt lat="45.63973" lon="2.92033">
        <ele>1040</ele>
        <time>2025-06-06T14:46:08Z</time>
      </trkpt>
      <trkpt lat="45.63903" lon="2.92061">
        <ele>1037</ele>
        <time>2025-06-06T14:46:25Z</time>
      </trkpt>
      <trkpt lat="45.63847" lon="2.92003">
        <ele>1038</ele>
        <time>2025-06-06T14:46:41Z</time>
      </trkpt>
      <trkpt lat="45.63815" lon="2.91985">
        <ele>1039</ele>
        <time>2025-06-06T14:46:49Z</time>
      </trkpt>
      <trkpt lat="45.63729" lon="2.91999">
        <ele>1034</ele>
        <time>2025-06-06T14:47:09Z</time>
      </trkpt>
      <trkpt lat="45.63615" lon="2.91896">
        <ele>1028</ele>
        <time>2025-06-06T14:47:41Z</time>
      </trkpt>
      <trkpt lat="45.63575" lon="2.91855">
        <ele>1024</ele>
        <time>2025-06-06T14:47:52Z</time>
      </trkpt>
      <trkpt lat="45.6354" lon="2.91858">
        <ele>1023</ele>
        <time>2025-06-06T14:48:00Z</time>
      </trkpt>
      <trkpt lat="45.63489" lon="2.92053">
        <ele>1027</ele>
        <time>2025-06-06T14:48:34Z</time>
      </trkpt>
      <trkpt lat="45.63398" lon="2.92299">
        <ele>1050</ele>
        <time>2025-06-06T14:49:20Z</time>
      </trkpt>
      <trkpt lat="45.63235" lon="2.92474">
        <ele>1074</ele>
        <time>2025-06-06T14:50:07Z</time>
      </trkpt>
      <trkpt lat="45.62812" lon="2.92601">
        <ele>1074</ele>
        <time>2025-06-06T14:51:48Z</time>
      </trkpt>
      <trkpt lat="45.62602" lon="2.92669">
        <ele>1054</ele>
        <time>2025-06-06T14:52:39Z</time>
      </trkpt>
      <trkpt lat="45.62559" lon="2.92717">
        <ele>1052</ele>
        <time>2025-06-06T14:52:51Z</time>
      </trkpt>
      <trkpt lat="45.6248" lon="2.92754">
        <ele>1052</ele>
        <time>2025-06-06T14:53:11Z</time>
      </trkpt>
      <trkpt lat="45.62446" lon="2.92805">
        <ele>1053</ele>
        <time>2025-06-06T14:53:22Z</time>
      </trkpt>
      <trkpt lat="45.62379" lon="2.92862">
        <ele>1050</ele>
        <time>2025-06-06T14:53:40Z</time>
      </trkpt>
      <trkpt lat="45.62356" lon="2.92892">
        <ele>1049</ele>
        <time>2025-06-06T14:53:48Z</time>
      </trkpt>
      <trkpt lat="45.6236" lon="2.92939">
        <ele>1050</ele>
        <time>2025-06-06T14:53:55Z</time>
      </trkpt>
      <trkpt lat="45.62327" lon="2.93026">
        <ele>1046</ele>
        <time>2025-06-06T14:54:12Z</time>
      </trkpt>
      <trkpt lat="45.62316" lon="2.93036">
        <ele>1045</ele>
        <time>2025-06-06T14:54:15Z</time>
      </trkpt>
      <trkpt lat="45.62231" lon="2.92975">
        <ele>1034</ele>
        <time>2025-06-06T14:54:37Z</time>
      </trkpt>
      <trkpt lat="45.62194" lon="2.92935">
        <ele>1027</ele>
        <time>2025-06-06T14:54:48Z</time>
      </trkpt>
      <trkpt lat="45.62168" lon="2.92853">
        <ele>1021</ele>
        <time>2025-06-06T14:55:02Z</time>
      </trkpt>
      <trkpt lat="45.62064" lon="2.92893">
        <ele>1022</ele>
        <time>2025-06-06T14:55:28Z</time>
      </trkpt>
      <trkpt lat="45.62066" lon="2.93015">
        <ele>1018</ele>
        <time>2025-06-06T14:55:48Z</time>
      </trkpt>
      <trkpt lat="45.62064" lon="2.93071">
        <ele>1016</ele>
        <time>2025-06-06T14:55:57Z</time>
      </trkpt>
      <trkpt lat="45.62054" lon="2.9311">
        <ele>1016</ele>
        <time>2025-06-06T14:56:03Z</time>
      </trkpt>
      <trkpt lat="45.62049" lon="2.93153">
        <ele>1015</ele>
        <time>2025-06-06T14:56:11Z</time>
      </trkpt>
      <trkpt lat="45.62031" lon="2.93258">
        <ele>1015</ele>
        <time>2025-06-06T14:56:28Z</time>
      </trkpt>
      <trkpt lat="45.62033" lon="2.93307">
        <ele>1015</ele>
        <time>2025-06-06T14:56:36Z</time>
      </trkpt>
      <trkpt lat="45.62028" lon="2.9335">
        <ele>1016</ele>
        <time>2025-06-06T14:56:43Z</time>
      </trkpt>
      <trkpt lat="45.62007" lon="2.93397">
        <ele>1019</ele>
        <time>2025-06-06T14:56:52Z</time>
      </trkpt>
      <trkpt lat="45.61986" lon="2.93429">
        <ele>1022</ele>
        <time>2025-06-06T14:57:00Z</time>
      </trkpt>
      <trkpt lat="45.61928" lon="2.9353">
        <ele>1031</ele>
        <time>2025-06-06T14:57:21Z</time>
      </trkpt>
      <trkpt lat="45.61904" lon="2.93597">
        <ele>1039</ele>
        <time>2025-06-06T14:57:33Z</time>
      </trkpt>
      <trkpt lat="45.61878" lon="2.93706">
        <ele>1045</ele>
        <time>2025-06-06T14:57:52Z</time>
      </trkpt>
      <trkpt lat="45.6186" lon="2.93886">
        <ele>1053</ele>
        <time>2025-06-06T14:58:22Z</time>
      </trkpt>
      <trkpt lat="45.61857" lon="2.93968">
        <ele>1054</ele>
        <time>2025-06-06T14:58:35Z</time>
      </trkpt>
      <trkpt lat="45.61605" lon="2.94009">
        <ele>1067</ele>
        <time>2025-06-06T14:59:34Z</time>
      </trkpt>
      <trkpt lat="45.61574" lon="2.93231">
        <ele>1101</ele>
        <time>2025-06-06T15:01:42Z</time>
      </trkpt>
      <trkpt lat="45.61588" lon="2.93084">
        <ele>1105</ele>
        <time>2025-06-06T15:02:06Z</time>
      </trkpt>
      <trkpt lat="45.61564" lon="2.92825">
        <ele>1121</ele>
        <time>2025-06-06T15:02:49Z</time>
      </trkpt>
      <trkpt lat="45.61567" lon="2.92711">
        <ele>1119</ele>
        <time>2025-06-06T15:03:07Z</time>
      </trkpt>
      <trkpt lat="45.61558" lon="2.92634">
        <ele>1123</ele>
        <time>2025-06-06T15:03:20Z</time>
      </trkpt>
      <trkpt lat="45.61561" lon="2.92559">
        <ele>1127</ele>
        <time>2025-06-06T15:03:32Z</time>
      </trkpt>
      <trkpt lat="45.61539" lon="2.92369">
        <ele>1135</ele>
        <time>2025-06-06T15:04:04Z</time>
      </trkpt>
      <trkpt lat="45.61521" lon="2.92308">
        <ele>1138</ele>
        <time>2025-06-06T15:04:15Z</time>
      </trkpt>
      <trkpt lat="45.61507" lon="2.92275">
        <ele>1140</ele>
        <time>2025-06-06T15:04:21Z</time>
      </trkpt>
      <trkpt lat="45.61489" lon="2.92255">
        <ele>1141</ele>
        <time>2025-06-06T15:04:26Z</time>
      </trkpt>
      <trkpt lat="45.61484" lon="2.92263">
        <ele>1140</ele>
        <time>2025-06-06T15:04:28Z</time>
      </trkpt>
      <trkpt lat="45.6143" lon="2.92406">
        <ele>1134</ele>
        <time>2025-06-06T15:04:54Z</time>
      </trkpt>
      <trkpt lat="45.61384" lon="2.92476">
        <ele>1126</ele>
        <time>2025-06-06T15:05:10Z</time>
      </trkpt>
      <trkpt lat="45.61341" lon="2.92505">
        <ele>1120</ele>
        <time>2025-06-06T15:05:21Z</time>
      </trkpt>
      <trkpt lat="45.613" lon="2.92597">
        <ele>1111</ele>
        <time>2025-06-06T15:05:39Z</time>
      </trkpt>
      <trkpt lat="45.61151" lon="2.92692">
        <ele>1090</ele>
        <time>2025-06-06T15:06:17Z</time>
      </trkpt>
      <trkpt lat="45.61015" lon="2.92889">
        <ele>1076</ele>
        <time>2025-06-06T15:07:02Z</time>
      </trkpt>
      <trkpt lat="45.60931" lon="2.93016">
        <ele>1066</ele>
        <time>2025-06-06T15:07:31Z</time>
      </trkpt>
      <trkpt lat="45.60753" lon="2.93072">
        <ele>1057</ele>
        <time>2025-06-06T15:08:14Z</time>
      </trkpt>
      <trkpt lat="45.60704" lon="2.9311">
        <ele>1057</ele>
        <time>2025-06-06T15:08:27Z</time>
      </trkpt>
      <trkpt lat="45.60688" lon="2.93167">
        <ele>1056</ele>
        <time>2025-06-06T15:08:37Z</time>
      </trkpt>
      <trkpt lat="45.60633" lon="2.93237">
        <ele>1056</ele>
        <time>2025-06-06T15:08:54Z</time>
      </trkpt>
      <trkpt lat="45.6055" lon="2.93297">
        <ele>1057</ele>
        <time>2025-06-06T15:09:16Z</time>
      </trkpt>
      <trkpt lat="45.6042" lon="2.93258">
        <ele>1050</ele>
        <time>2025-06-06T15:09:47Z</time>
      </trkpt>
      <trkpt lat="45.60319" lon="2.93189">
        <ele>1041</ele>
        <time>2025-06-06T15:10:13Z</time>
      </trkpt>
      <trkpt lat="45.60198" lon="2.93082">
        <ele>1033</ele>
        <time>2025-06-06T15:10:46Z</time>
      </trkpt>
      <trkpt lat="45.60041" lon="2.9292">
        <ele>1030</ele>
        <time>2025-06-06T15:11:31Z</time>
      </trkpt>
      <trkpt lat="45.59861" lon="2.92893">
        <ele>1035</ele>
        <time>2025-06-06T15:12:13Z</time>
      </trkpt>
      <trkpt lat="45.59693" lon="2.92825">
        <ele>1035</ele>
        <time>2025-06-06T15:12:54Z</time>
      </trkpt>
      <trkpt lat="45.59641" lon="2.92878">
        <ele>1033</ele>
        <time>2025-06-06T15:13:09Z</time>
      </trkpt>
      <trkpt lat="45.59583" lon="2.928">
        <ele>1037</ele>
        <time>2025-06-06T15:13:28Z</time>
      </trkpt>
      <trkpt lat="45.59534" lon="2.92703">
        <ele>1039</ele>
        <time>2025-06-06T15:13:47Z</time>
      </trkpt>
      <trkpt lat="45.59499" lon="2.9262">
        <ele>1039</ele>
        <time>2025-06-06T15:14:03Z</time>
      </trkpt>
      <trkpt lat="45.59445" lon="2.92577">
        <ele>1041</ele>
        <time>2025-06-06T15:14:17Z</time>
      </trkpt>
      <trkpt lat="45.59418" lon="2.92481">
        <ele>1044</ele>
        <time>2025-06-06T15:14:34Z</time>
      </trkpt>
      <trkpt lat="45.59365" lon="2.92413">
        <ele>1045</ele>
        <time>2025-06-06T15:14:51Z</time>
      </trkpt>
      <trkpt lat="45.5931" lon="2.92204">
        <ele>1055</ele>
        <time>2025-06-06T15:15:28Z</time>
      </trkpt>
      <trkpt lat="45.5924" lon="2.92184">
        <ele>1055</ele>
        <time>2025-06-06T15:15:44Z</time>
      </trkpt>
      <trkpt lat="45.59186" lon="2.92158">
        <ele>1050</ele>
        <time>2025-06-06T15:15:57Z</time>
      </trkpt>
      <trkpt lat="45.59117" lon="2.91946">
        <ele>1047</ele>
        <time>2025-06-06T15:16:36Z</time>
      </trkpt>
      <trkpt lat="45.59046" lon="2.91849">
        <ele>1041</ele>
        <time>2025-06-06T15:16:59Z</time>
      </trkpt>
      <trkpt lat="45.59026" lon="2.91782">
        <ele>1040</ele>
        <time>2025-06-06T15:17:11Z</time>
      </trkpt>
      <trkpt lat="45.58927" lon="2.91771">
        <ele>1040</ele>
        <time>2025-06-06T15:17:34Z</time>
      </trkpt>
      <trkpt lat="45.58905" lon="2.91812">
        <ele>1040</ele>
        <time>2025-06-06T15:17:42Z</time>
      </trkpt>
      <trkpt lat="45.58788" lon="2.91757">
        <ele>1048</ele>
        <time>2025-06-06T15:18:11Z</time>
      </trkpt>
      <trkpt lat="45.58528" lon="2.91895">
        <ele>1054</ele>
        <time>2025-06-06T15:19:16Z</time>
      </trkpt>
      <trkpt lat="45.58291" lon="2.91758">
        <ele>1048</ele>
        <time>2025-06-06T15:20:15Z</time>
      </trkpt>
      <trkpt lat="45.58144" lon="2.9183">
        <ele>1030</ele>
        <time>2025-06-06T15:20:52Z</time>
      </trkpt>
      <trkpt lat="45.58059" lon="2.91832">
        <ele>1013</ele>
        <time>2025-06-06T15:21:12Z</time>
      </trkpt>
      <trkpt lat="45.5805" lon="2.91816">
        <ele>1009</ele>
        <time>2025-06-06T15:21:15Z</time>
      </trkpt>
      <trkpt lat="45.58005" lon="2.91771">
        <ele>994</ele>
        <time>2025-06-06T15:21:28Z</time>
      </trkpt>
      <trkpt lat="45.57974" lon="2.91764">
        <ele>986</ele>
        <time>2025-06-06T15:21:35Z</time>
      </trkpt>
      <trkpt lat="45.57921" lon="2.91718">
        <ele>971</ele>
        <time>2025-06-06T15:21:50Z</time>
      </trkpt>
      <trkpt lat="45.57911" lon="2.91643">
        <ele>963</ele>
        <time>2025-06-06T15:22:02Z</time>
      </trkpt>
      <trkpt lat="45.57873" lon="2.91637">
        <ele>960</ele>
        <time>2025-06-06T15:22:11Z</time>
      </trkpt>
      <trkpt lat="45.57869" lon="2.91581">
        <ele>956</ele>
        <time>2025-06-06T15:22:20Z</time>
      </trkpt>
      <trkpt lat="45.5784" lon="2.91481">
        <ele>944</ele>
        <time>2025-06-06T15:22:38Z</time>
      </trkpt>
      <trkpt lat="45.57809" lon="2.91436">
        <ele>931</ele>
        <time>2025-06-06T15:22:48Z</time>
      </trkpt>
      <trkpt lat="45.57764" lon="2.91438">
        <ele>923</ele>
        <time>2025-06-06T15:22:59Z</time>
      </trkpt>
      <trkpt lat="45.57757" lon="2.91451">
        <ele>923</ele>
        <time>2025-06-06T15:23:01Z</time>
      </trkpt>
      <trkpt lat="45.5775" lon="2.91441">
        <ele>921</ele>
        <time>2025-06-06T15:23:04Z</time>
      </trkpt>
      <trkpt lat="45.57731" lon="2.91358">
        <ele>907</ele>
        <time>2025-06-06T15:23:18Z</time>
      </trkpt>
      <trkpt lat="45.57724" lon="2.9136">
        <ele>906</ele>
        <time>2025-06-06T15:23:20Z</time>
      </trkpt>
      <trkpt lat="45.57721" lon="2.91368">
        <ele>906</ele>
        <time>2025-06-06T15:23:21Z</time>
        <extensions>
          <visugpx:TrkExtension xmlns:visugpx="https://www.visugpx.com/editgpx/">
            <visugpx:etape>1</visugpx:etape>
            </visugpx:TrkExtension>
        </extensions>
      </trkpt>
      <trkpt lat="45.57724" lon="2.91336">
        <ele>903</ele>
        <time>2025-06-06T15:23:26Z</time>
      </trkpt>
      <trkpt lat="45.57738" lon="2.9127">
        <ele>902</ele>
        <time>2025-06-06T15:23:38Z</time>
      </trkpt>
      <trkpt lat="45.57722" lon="2.91182">
        <ele>903</ele>
        <time>2025-06-06T15:23:53Z</time>
      </trkpt>
      <trkpt lat="45.57714" lon="2.91066">
        <ele>909</ele>
        <time>2025-06-06T15:24:12Z</time>
      </trkpt>
      <trkpt lat="45.57689" lon="2.91052">
        <ele>907</ele>
        <time>2025-06-06T15:24:18Z</time>
      </trkpt>
      <trkpt lat="45.57636" lon="2.9096">
        <ele>910</ele>
        <time>2025-06-06T15:24:37Z</time>
      </trkpt>
      <trkpt lat="45.57567" lon="2.9086">
        <ele>908</ele>
        <time>2025-06-06T15:25:00Z</time>
      </trkpt>
      <trkpt lat="45.57491" lon="2.90763">
        <ele>899</ele>
        <time>2025-06-06T15:25:24Z</time>
      </trkpt>
      <trkpt lat="45.57413" lon="2.90879">
        <ele>880</ele>
        <time>2025-06-06T15:25:50Z</time>
      </trkpt>
      <trkpt lat="45.57357" lon="2.90742">
        <ele>880</ele>
        <time>2025-06-06T15:26:16Z</time>
      </trkpt>
      <trkpt lat="45.57317" lon="2.90678">
        <ele>882</ele>
        <time>2025-06-06T15:26:30Z</time>
      </trkpt>
      <trkpt lat="45.57247" lon="2.90602">
        <ele>889</ele>
        <time>2025-06-06T15:26:51Z</time>
      </trkpt>
      <trkpt lat="45.57089" lon="2.90348">
        <ele>887</ele>
        <time>2025-06-06T15:27:46Z</time>
      </trkpt>
      <trkpt lat="45.57052" lon="2.9014">
        <ele>889</ele>
        <time>2025-06-06T15:28:21Z</time>
      </trkpt>
      <trkpt lat="45.57066" lon="2.90033">
        <ele>888</ele>
        <time>2025-06-06T15:28:39Z</time>
      </trkpt>
      <trkpt lat="45.57021" lon="2.90047">
        <ele>886</ele>
        <time>2025-06-06T15:28:50Z</time>
      </trkpt>
      <trkpt lat="45.56995" lon="2.90107">
        <ele>885</ele>
        <time>2025-06-06T15:29:02Z</time>
      </trkpt>
      <trkpt lat="45.56982" lon="2.90207">
        <ele>884</ele>
        <time>2025-06-06T15:29:18Z</time>
      </trkpt>
      <trkpt lat="45.56969" lon="2.90659">
        <ele>887</ele>
        <time>2025-06-06T15:30:32Z</time>
      </trkpt>
      <trkpt lat="45.56956" lon="2.90742">
        <ele>890</ele>
        <time>2025-06-06T15:30:46Z</time>
      </trkpt>
      <trkpt lat="45.56953" lon="2.90816">
        <ele>890</ele>
        <time>2025-06-06T15:30:58Z</time>
      </trkpt>
      <trkpt lat="45.56943" lon="2.90857">
        <ele>890</ele>
        <time>2025-06-06T15:31:05Z</time>
      </trkpt>
      <trkpt lat="45.56944" lon="2.90899">
        <ele>887</ele>
        <time>2025-06-06T15:31:12Z</time>
      </trkpt>
      <trkpt lat="45.56935" lon="2.9093">
        <ele>886</ele>
        <time>2025-06-06T15:31:18Z</time>
      </trkpt>
      <trkpt lat="45.56913" lon="2.90977">
        <ele>885</ele>
        <time>2025-06-06T15:31:27Z</time>
      </trkpt>
      <trkpt lat="45.56886" lon="2.91012">
        <ele>886</ele>
        <time>2025-06-06T15:31:35Z</time>
      </trkpt>
      <trkpt lat="45.56839" lon="2.91053">
        <ele>885</ele>
        <time>2025-06-06T15:31:48Z</time>
      </trkpt>
      <trkpt lat="45.5683" lon="2.91084">
        <ele>880</ele>
        <time>2025-06-06T15:31:54Z</time>
      </trkpt>
      <trkpt lat="45.56802" lon="2.91158">
        <ele>880</ele>
        <time>2025-06-06T15:32:08Z</time>
      </trkpt>
      <trkpt lat="45.56788" lon="2.91231">
        <ele>880</ele>
        <time>2025-06-06T15:32:20Z</time>
      </trkpt>
      <trkpt lat="45.56793" lon="2.91319">
        <ele>880</ele>
        <time>2025-06-06T15:32:34Z</time>
      </trkpt>
      <trkpt lat="45.56784" lon="2.91535">
        <ele>892</ele>
        <time>2025-06-06T15:33:10Z</time>
      </trkpt>
      <trkpt lat="45.56762" lon="2.91583">
        <ele>897</ele>
        <time>2025-06-06T15:33:19Z</time>
      </trkpt>
      <trkpt lat="45.5676" lon="2.9161">
        <ele>897</ele>
        <time>2025-06-06T15:33:24Z</time>
      </trkpt>
      <trkpt lat="45.56776" lon="2.91848">
        <ele>890</ele>
        <time>2025-06-06T15:34:03Z</time>
      </trkpt>
      <trkpt lat="45.56762" lon="2.91923">
        <ele>891</ele>
        <time>2025-06-06T15:34:15Z</time>
      </trkpt>
      <trkpt lat="45.56764" lon="2.91957">
        <ele>888</ele>
        <time>2025-06-06T15:34:21Z</time>
      </trkpt>
      <trkpt lat="45.56756" lon="2.91981">
        <ele>888</ele>
        <time>2025-06-06T15:34:25Z</time>
      </trkpt>
      <trkpt lat="45.56742" lon="2.92004">
        <ele>891</ele>
        <time>2025-06-06T15:34:30Z</time>
      </trkpt>
      <trkpt lat="45.56728" lon="2.92122">
        <ele>897</ele>
        <time>2025-06-06T15:34:50Z</time>
      </trkpt>
      <trkpt lat="45.5671" lon="2.92168">
        <ele>906</ele>
        <time>2025-06-06T15:34:58Z</time>
      </trkpt>
      <trkpt lat="45.56704" lon="2.92198">
        <ele>907</ele>
        <time>2025-06-06T15:35:03Z</time>
      </trkpt>
      <trkpt lat="45.56702" lon="2.92253">
        <ele>906</ele>
        <time>2025-06-06T15:35:12Z</time>
      </trkpt>
      <trkpt lat="45.56747" lon="2.92361">
        <ele>895</ele>
        <time>2025-06-06T15:35:33Z</time>
      </trkpt>
      <trkpt lat="45.56762" lon="2.9243">
        <ele>898</ele>
        <time>2025-06-06T15:35:45Z</time>
      </trkpt>
      <trkpt lat="45.56757" lon="2.92542">
        <ele>903</ele>
        <time>2025-06-06T15:36:03Z</time>
      </trkpt>
      <trkpt lat="45.56763" lon="2.92711">
        <ele>897</ele>
        <time>2025-06-06T15:36:31Z</time>
      </trkpt>
      <trkpt lat="45.56771" lon="2.92828">
        <ele>896</ele>
        <time>2025-06-06T15:36:50Z</time>
      </trkpt>
      <trkpt lat="45.56787" lon="2.92862">
        <ele>890</ele>
        <time>2025-06-06T15:36:57Z</time>
      </trkpt>
      <trkpt lat="45.5678" lon="2.92962">
        <ele>891</ele>
        <time>2025-06-06T15:37:13Z</time>
      </trkpt>
      <trkpt lat="45.56787" lon="2.92995">
        <ele>889</ele>
        <time>2025-06-06T15:37:19Z</time>
      </trkpt>
      <trkpt lat="45.56788" lon="2.93025">
        <ele>889</ele>
        <time>2025-06-06T15:37:24Z</time>
      </trkpt>
      <trkpt lat="45.56774" lon="2.93069">
        <ele>891</ele>
        <time>2025-06-06T15:37:32Z</time>
      </trkpt>
      <trkpt lat="45.56773" lon="2.93106">
        <ele>892</ele>
        <time>2025-06-06T15:37:38Z</time>
      </trkpt>
      <trkpt lat="45.56787" lon="2.93147">
        <ele>892</ele>
        <time>2025-06-06T15:37:45Z</time>
      </trkpt>
      <trkpt lat="45.56812" lon="2.93263">
        <ele>898</ele>
        <time>2025-06-06T15:38:05Z</time>
      </trkpt>
      <trkpt lat="45.56813" lon="2.93342">
        <ele>904</ele>
        <time>2025-06-06T15:38:18Z</time>
      </trkpt>
      <trkpt lat="45.56806" lon="2.93421">
        <ele>906</ele>
        <time>2025-06-06T15:38:31Z</time>
      </trkpt>
      <trkpt lat="45.56823" lon="2.93521">
        <ele>907</ele>
        <time>2025-06-06T15:38:48Z</time>
      </trkpt>
      <trkpt lat="45.56837" lon="2.93718">
        <ele>893</ele>
        <time>2025-06-06T15:39:20Z</time>
      </trkpt>
      <trkpt lat="45.56872" lon="2.93854">
        <ele>878</ele>
        <time>2025-06-06T15:39:44Z</time>
      </trkpt>
      <trkpt lat="45.56808" lon="2.93777">
        <ele>879</ele>
        <time>2025-06-06T15:40:03Z</time>
      </trkpt>
      <trkpt lat="45.56758" lon="2.93665">
        <ele>884</ele>
        <time>2025-06-06T15:40:25Z</time>
      </trkpt>
      <trkpt lat="45.56714" lon="2.93484">
        <ele>902</ele>
        <time>2025-06-06T15:40:56Z</time>
      </trkpt>
      <trkpt lat="45.5657" lon="2.9363">
        <ele>886</ele>
        <time>2025-06-06T15:41:38Z</time>
      </trkpt>
      <trkpt lat="45.56529" lon="2.9369">
        <ele>876</ele>
        <time>2025-06-06T15:41:51Z</time>
      </trkpt>
      <trkpt lat="45.5648" lon="2.93723">
        <ele>870</ele>
        <time>2025-06-06T15:42:04Z</time>
      </trkpt>
      <trkpt lat="45.56405" lon="2.93737">
        <ele>867</ele>
        <time>2025-06-06T15:42:22Z</time>
      </trkpt>
      <trkpt lat="45.56405" lon="2.93733">
        <ele>868</ele>
        <time>2025-06-06T15:42:22Z</time>
      </trkpt>
      <trkpt lat="45.56363" lon="2.9374">
        <ele>866</ele>
        <time>2025-06-06T15:42:32Z</time>
      </trkpt>
      <trkpt lat="45.5635" lon="2.93747">
        <ele>865</ele>
        <time>2025-06-06T15:42:35Z</time>
      </trkpt>
      <trkpt lat="45.56275" lon="2.93727">
        <ele>865</ele>
        <time>2025-06-06T15:42:53Z</time>
      </trkpt>
      <trkpt lat="45.56257" lon="2.93715">
        <ele>865</ele>
        <time>2025-06-06T15:42:58Z</time>
      </trkpt>
      <trkpt lat="45.56247" lon="2.93733">
        <ele>863</ele>
        <time>2025-06-06T15:43:02Z</time>
      </trkpt>
      <trkpt lat="45.56239" lon="2.93732">
        <ele>862</ele>
        <time>2025-06-06T15:43:04Z</time>
      </trkpt>
      <trkpt lat="45.56221" lon="2.93714">
        <ele>861</ele>
        <time>2025-06-06T15:43:09Z</time>
      </trkpt>
      <trkpt lat="45.56199" lon="2.93698">
        <ele>860</ele>
        <time>2025-06-06T15:43:14Z</time>
      </trkpt>
      <trkpt lat="45.56183" lon="2.93693">
        <ele>858</ele>
        <time>2025-06-06T15:43:18Z</time>
      </trkpt>
      <trkpt lat="45.56175" lon="2.93644">
        <ele>858</ele>
        <time>2025-06-06T15:43:26Z</time>
      </trkpt>
      <trkpt lat="45.56098" lon="2.93534">
        <ele>854</ele>
        <time>2025-06-06T15:43:52Z</time>
      </trkpt>
      <trkpt lat="45.56073" lon="2.9346">
        <ele>855</ele>
        <time>2025-06-06T15:44:05Z</time>
      </trkpt>
      <trkpt lat="45.56044" lon="2.93404">
        <ele>857</ele>
        <time>2025-06-06T15:44:17Z</time>
      </trkpt>
      <trkpt lat="45.5602" lon="2.93339">
        <ele>859</ele>
        <time>2025-06-06T15:44:29Z</time>
      </trkpt>
      <trkpt lat="45.56014" lon="2.93282">
        <ele>861</ele>
        <time>2025-06-06T15:44:38Z</time>
      </trkpt>
      <trkpt lat="45.55987" lon="2.93202">
        <ele>865</ele>
        <time>2025-06-06T15:44:53Z</time>
      </trkpt>
      <trkpt lat="45.55984" lon="2.93158">
        <ele>866</ele>
        <time>2025-06-06T15:45:00Z</time>
      </trkpt>
      <trkpt lat="45.55965" lon="2.93095">
        <ele>871</ele>
        <time>2025-06-06T15:45:11Z</time>
      </trkpt>
      <trkpt lat="45.55955" lon="2.93136">
        <ele>869</ele>
        <time>2025-06-06T15:45:18Z</time>
      </trkpt>
      <trkpt lat="45.55945" lon="2.93142">
        <ele>870</ele>
        <time>2025-06-06T15:45:21Z</time>
      </trkpt>
      <trkpt lat="45.55934" lon="2.9317">
        <ele>868</ele>
        <time>2025-06-06T15:45:26Z</time>
      </trkpt>
      <trkpt lat="45.55885" lon="2.93171">
        <ele>875</ele>
        <time>2025-06-06T15:45:37Z</time>
      </trkpt>
      <trkpt lat="45.55878" lon="2.93202">
        <ele>878</ele>
        <time>2025-06-06T15:45:43Z</time>
      </trkpt>
      <trkpt lat="45.55859" lon="2.93246">
        <ele>885</ele>
        <time>2025-06-06T15:45:51Z</time>
      </trkpt>
      <trkpt lat="45.55865" lon="2.93294">
        <ele>887</ele>
        <time>2025-06-06T15:45:59Z</time>
      </trkpt>
      <trkpt lat="45.55883" lon="2.93334">
        <ele>883</ele>
        <time>2025-06-06T15:46:07Z</time>
      </trkpt>
      <trkpt lat="45.55886" lon="2.93359">
        <ele>883</ele>
        <time>2025-06-06T15:46:11Z</time>
      </trkpt>
      <trkpt lat="45.55881" lon="2.93403">
        <ele>887</ele>
        <time>2025-06-06T15:46:18Z</time>
      </trkpt>
      <trkpt lat="45.55851" lon="2.93497">
        <ele>901</ele>
        <time>2025-06-06T15:46:35Z</time>
      </trkpt>
      <trkpt lat="45.55832" lon="2.93531">
        <ele>907</ele>
        <time>2025-06-06T15:46:42Z</time>
      </trkpt>
      <trkpt lat="45.55805" lon="2.93569">
        <ele>908</ele>
        <time>2025-06-06T15:46:51Z</time>
      </trkpt>
      <trkpt lat="45.55797" lon="2.93566">
        <ele>910</ele>
        <time>2025-06-06T15:46:53Z</time>
      </trkpt>
      <trkpt lat="45.55793" lon="2.93528">
        <ele>915</ele>
        <time>2025-06-06T15:46:59Z</time>
      </trkpt>
      <trkpt lat="45.55775" lon="2.93535">
        <ele>918</ele>
        <time>2025-06-06T15:47:04Z</time>
      </trkpt>
      <trkpt lat="45.5574" lon="2.93533">
        <ele>924</ele>
        <time>2025-06-06T15:47:12Z</time>
      </trkpt>
      <trkpt lat="45.55699" lon="2.93538">
        <ele>930</ele>
        <time>2025-06-06T15:47:22Z</time>
      </trkpt>
      <trkpt lat="45.55668" lon="2.93529">
        <ele>936</ele>
        <time>2025-06-06T15:47:29Z</time>
      </trkpt>
      <trkpt lat="45.55647" lon="2.93534">
        <ele>942</ele>
        <time>2025-06-06T15:47:34Z</time>
      </trkpt>
      <trkpt lat="45.55646" lon="2.93604">
        <ele>934</ele>
        <time>2025-06-06T15:47:45Z</time>
      </trkpt>
      <trkpt lat="45.55652" lon="2.93642">
        <ele>929</ele>
        <time>2025-06-06T15:47:52Z</time>
      </trkpt>
      <trkpt lat="45.55643" lon="2.93729">
        <ele>932</ele>
        <time>2025-06-06T15:48:06Z</time>
      </trkpt>
      <trkpt lat="45.55656" lon="2.93824">
        <ele>933</ele>
        <time>2025-06-06T15:48:22Z</time>
      </trkpt>
      <trkpt lat="45.55655" lon="2.93896">
        <ele>939</ele>
        <time>2025-06-06T15:48:34Z</time>
      </trkpt>
      <trkpt lat="45.55696" lon="2.9399">
        <ele>941</ele>
        <time>2025-06-06T15:48:52Z</time>
      </trkpt>
      <trkpt lat="45.55742" lon="2.94041">
        <ele>938</ele>
        <time>2025-06-06T15:49:06Z</time>
      </trkpt>
      <trkpt lat="45.55796" lon="2.94089">
        <ele>927</ele>
        <time>2025-06-06T15:49:20Z</time>
      </trkpt>
      <trkpt lat="45.5582" lon="2.94142">
        <ele>924</ele>
        <time>2025-06-06T15:49:31Z</time>
      </trkpt>
      <trkpt lat="45.55821" lon="2.94237">
        <ele>934</ele>
        <time>2025-06-06T15:49:46Z</time>
      </trkpt>
      <trkpt lat="45.55853" lon="2.94353">
        <ele>938</ele>
        <time>2025-06-06T15:50:07Z</time>
      </trkpt>
      <trkpt lat="45.55871" lon="2.94394">
        <ele>933</ele>
        <time>2025-06-06T15:50:15Z</time>
      </trkpt>
      <trkpt lat="45.559" lon="2.94503">
        <ele>928</ele>
        <time>2025-06-06T15:50:34Z</time>
      </trkpt>
      <trkpt lat="45.55898" lon="2.94548">
        <ele>930</ele>
        <time>2025-06-06T15:50:41Z</time>
      </trkpt>
      <trkpt lat="45.55904" lon="2.94564">
        <ele>928</ele>
        <time>2025-06-06T15:50:44Z</time>
      </trkpt>
      <trkpt lat="45.55896" lon="2.94688">
        <ele>934</ele>
        <time>2025-06-06T15:51:04Z</time>
      </trkpt>
      <trkpt lat="45.55887" lon="2.94701">
        <ele>935</ele>
        <time>2025-06-06T15:51:07Z</time>
      </trkpt>
      <trkpt lat="45.55864" lon="2.94718">
        <ele>939</ele>
        <time>2025-06-06T15:51:13Z</time>
      </trkpt>
      <trkpt lat="45.55831" lon="2.94778">
        <ele>942</ele>
        <time>2025-06-06T15:51:26Z</time>
      </trkpt>
      <trkpt lat="45.5581" lon="2.94708">
        <ele>947</ele>
        <time>2025-06-06T15:51:38Z</time>
      </trkpt>
      <trkpt lat="45.55802" lon="2.94712">
        <ele>948</ele>
        <time>2025-06-06T15:51:40Z</time>
      </trkpt>
      <trkpt lat="45.55786" lon="2.94744">
        <ele>950</ele>
        <time>2025-06-06T15:51:47Z</time>
      </trkpt>
      <trkpt lat="45.55766" lon="2.94747">
        <ele>953</ele>
        <time>2025-06-06T15:51:51Z</time>
      </trkpt>
      <trkpt lat="45.55725" lon="2.94712">
        <ele>959</ele>
        <time>2025-06-06T15:52:03Z</time>
      </trkpt>
      <trkpt lat="45.55692" lon="2.94692">
        <ele>964</ele>
        <time>2025-06-06T15:52:11Z</time>
      </trkpt>
      <trkpt lat="45.55683" lon="2.94677">
        <ele>965</ele>
        <time>2025-06-06T15:52:14Z</time>
      </trkpt>
      <trkpt lat="45.55665" lon="2.94618">
        <ele>967</ele>
        <time>2025-06-06T15:52:25Z</time>
      </trkpt>
      <trkpt lat="45.55639" lon="2.94609">
        <ele>969</ele>
        <time>2025-06-06T15:52:31Z</time>
      </trkpt>
      <trkpt lat="45.55621" lon="2.94559">
        <ele>972</ele>
        <time>2025-06-06T15:52:40Z</time>
      </trkpt>
      <trkpt lat="45.55599" lon="2.9452">
        <ele>976</ele>
        <time>2025-06-06T15:52:48Z</time>
      </trkpt>
      <trkpt lat="45.55543" lon="2.94394">
        <ele>987</ele>
        <time>2025-06-06T15:53:13Z</time>
      </trkpt>
      <trkpt lat="45.55495" lon="2.94326">
        <ele>993</ele>
        <time>2025-06-06T15:53:28Z</time>
      </trkpt>
      <trkpt lat="45.55474" lon="2.94308">
        <ele>993</ele>
        <time>2025-06-06T15:53:34Z</time>
      </trkpt>
      <trkpt lat="45.55452" lon="2.94251">
        <ele>995</ele>
        <time>2025-06-06T15:53:45Z</time>
      </trkpt>
      <trkpt lat="45.55423" lon="2.9421">
        <ele>997</ele>
        <time>2025-06-06T15:53:54Z</time>
      </trkpt>
      <trkpt lat="45.55403" lon="2.94153">
        <ele>999</ele>
        <time>2025-06-06T15:54:05Z</time>
      </trkpt>
      <trkpt lat="45.55384" lon="2.94111">
        <ele>1001</ele>
        <time>2025-06-06T15:54:13Z</time>
      </trkpt>
      <trkpt lat="45.55356" lon="2.94081">
        <ele>1004</ele>
        <time>2025-06-06T15:54:21Z</time>
      </trkpt>
      <trkpt lat="45.55282" lon="2.94031">
        <ele>1014</ele>
        <time>2025-06-06T15:54:40Z</time>
      </trkpt>
      <trkpt lat="45.5526" lon="2.93998">
        <ele>1018</ele>
        <time>2025-06-06T15:54:48Z</time>
      </trkpt>
      <trkpt lat="45.55232" lon="2.93987">
        <ele>1021</ele>
        <time>2025-06-06T15:54:54Z</time>
      </trkpt>
      <trkpt lat="45.55193" lon="2.93962">
        <ele>1025</ele>
        <time>2025-06-06T15:55:04Z</time>
      </trkpt>
      <trkpt lat="45.55201" lon="2.93943">
        <ele>1025</ele>
        <time>2025-06-06T15:55:08Z</time>
      </trkpt>
      <trkpt lat="45.55249" lon="2.93877">
        <ele>1026</ele>
        <time>2025-06-06T15:55:24Z</time>
      </trkpt>
      <trkpt lat="45.55269" lon="2.93765">
        <ele>1030</ele>
        <time>2025-06-06T15:55:43Z</time>
      </trkpt>
      <trkpt lat="45.55251" lon="2.93635">
        <ele>1036</ele>
        <time>2025-06-06T15:56:04Z</time>
      </trkpt>
      <trkpt lat="45.55199" lon="2.93538">
        <ele>1043</ele>
        <time>2025-06-06T15:56:24Z</time>
      </trkpt>
      <trkpt lat="45.55184" lon="2.93526">
        <ele>1044</ele>
        <time>2025-06-06T15:56:28Z</time>
      </trkpt>
      <trkpt lat="45.55172" lon="2.93547">
        <ele>1044</ele>
        <time>2025-06-06T15:56:33Z</time>
      </trkpt>
      <trkpt lat="45.55147" lon="2.93575">
        <ele>1044</ele>
        <time>2025-06-06T15:56:40Z</time>
      </trkpt>
      <trkpt lat="45.5511" lon="2.93592">
        <ele>1044</ele>
        <time>2025-06-06T15:56:49Z</time>
      </trkpt>
      <trkpt lat="45.55055" lon="2.93625">
        <ele>1044</ele>
        <time>2025-06-06T15:57:03Z</time>
      </trkpt>
      <trkpt lat="45.55067" lon="2.93679">
        <ele>1042</ele>
        <time>2025-06-06T15:57:12Z</time>
      </trkpt>
      <trkpt lat="45.55083" lon="2.93732">
        <ele>1040</ele>
        <time>2025-06-06T15:57:22Z</time>
      </trkpt>
      <trkpt lat="45.551" lon="2.93777">
        <ele>1037</ele>
        <time>2025-06-06T15:57:30Z</time>
      </trkpt>
      <trkpt lat="45.55112" lon="2.93801">
        <ele>1036</ele>
        <time>2025-06-06T15:57:35Z</time>
      </trkpt>
      <trkpt lat="45.5499" lon="2.93734">
        <ele>1040</ele>
        <time>2025-06-06T15:58:05Z</time>
      </trkpt>
      <trkpt lat="45.54785" lon="2.93767">
        <ele>1050</ele>
        <time>2025-06-06T15:58:54Z</time>
      </trkpt>
      <trkpt lat="45.54591" lon="2.93854">
        <ele>1036</ele>
        <time>2025-06-06T15:59:41Z</time>
      </trkpt>
      <trkpt lat="45.544" lon="2.93833">
        <ele>1034</ele>
        <time>2025-06-06T16:00:26Z</time>
      </trkpt>
      <trkpt lat="45.54306" lon="2.93736">
        <ele>1027</ele>
        <time>2025-06-06T16:00:53Z</time>
      </trkpt>
      <trkpt lat="45.54233" lon="2.93565">
        <ele>1023</ele>
        <time>2025-06-06T16:01:26Z</time>
      </trkpt>
      <trkpt lat="45.54159" lon="2.93382">
        <ele>1026</ele>
        <time>2025-06-06T16:02:00Z</time>
      </trkpt>
      <trkpt lat="45.54114" lon="2.93382">
        <ele>1036</ele>
        <time>2025-06-06T16:02:11Z</time>
      </trkpt>
      <trkpt lat="45.54103" lon="2.93516">
        <ele>1034</ele>
        <time>2025-06-06T16:02:33Z</time>
      </trkpt>
      <trkpt lat="45.54074" lon="2.93756">
        <ele>1042</ele>
        <time>2025-06-06T16:03:13Z</time>
      </trkpt>
      <trkpt lat="45.54051" lon="2.93579">
        <ele>1043</ele>
        <time>2025-06-06T16:03:42Z</time>
      </trkpt>
      <trkpt lat="45.54022" lon="2.93534">
        <ele>1047</ele>
        <time>2025-06-06T16:03:52Z</time>
      </trkpt>
      <trkpt lat="45.53931" lon="2.93588">
        <ele>1057</ele>
        <time>2025-06-06T16:04:15Z</time>
      </trkpt>
      <trkpt lat="45.53699" lon="2.93678">
        <ele>1074</ele>
        <time>2025-06-06T16:05:11Z</time>
      </trkpt>
      <trkpt lat="45.53424" lon="2.93742">
        <ele>1098</ele>
        <time>2025-06-06T16:06:16Z</time>
      </trkpt>
      <trkpt lat="45.53224" lon="2.93705">
        <ele>1092</ele>
        <time>2025-06-06T16:07:03Z</time>
      </trkpt>
      <trkpt lat="45.53121" lon="2.93646">
        <ele>1092</ele>
        <time>2025-06-06T16:07:29Z</time>
      </trkpt>
      <trkpt lat="45.52941" lon="2.93638">
        <ele>1088</ele>
        <time>2025-06-06T16:08:11Z</time>
      </trkpt>
      <trkpt lat="45.52885" lon="2.93627">
        <ele>1084</ele>
        <time>2025-06-06T16:08:25Z</time>
      </trkpt>
      <trkpt lat="45.52845" lon="2.9364">
        <ele>1079</ele>
        <time>2025-06-06T16:08:34Z</time>
      </trkpt>
      <trkpt lat="45.5276" lon="2.93572">
        <ele>1080</ele>
        <time>2025-06-06T16:08:57Z</time>
      </trkpt>
      <trkpt lat="45.52625" lon="2.9364">
        <ele>1081</ele>
        <time>2025-06-06T16:09:30Z</time>
      </trkpt>
      <trkpt lat="45.5261" lon="2.93731">
        <ele>1079</ele>
        <time>2025-06-06T16:09:46Z</time>
      </trkpt>
      <trkpt lat="45.52554" lon="2.9363">
        <ele>1085</ele>
        <time>2025-06-06T16:10:07Z</time>
      </trkpt>
      <trkpt lat="45.52444" lon="2.93613">
        <ele>1091</ele>
        <time>2025-06-06T16:10:33Z</time>
      </trkpt>
      <trkpt lat="45.52406" lon="2.93619">
        <ele>1091</ele>
        <time>2025-06-06T16:10:42Z</time>
      </trkpt>
      <trkpt lat="45.52272" lon="2.93557">
        <ele>1083</ele>
        <time>2025-06-06T16:11:14Z</time>
      </trkpt>
      <trkpt lat="45.52212" lon="2.93409">
        <ele>1090</ele>
        <time>2025-06-06T16:11:42Z</time>
      </trkpt>
      <trkpt lat="45.52135" lon="2.9336">
        <ele>1088</ele>
        <time>2025-06-06T16:12:02Z</time>
      </trkpt>
      <trkpt lat="45.52101" lon="2.93405">
        <ele>1081</ele>
        <time>2025-06-06T16:12:13Z</time>
      </trkpt>
      <trkpt lat="45.52081" lon="2.93468">
        <ele>1074</ele>
        <time>2025-06-06T16:12:24Z</time>
      </trkpt>
      <trkpt lat="45.52029" lon="2.93465">
        <ele>1068</ele>
        <time>2025-06-06T16:12:36Z</time>
      </trkpt>
      <trkpt lat="45.51984" lon="2.93474">
        <ele>1061</ele>
        <time>2025-06-06T16:12:47Z</time>
      </trkpt>
      <trkpt lat="45.51946" lon="2.93403">
        <ele>1061</ele>
        <time>2025-06-06T16:13:02Z</time>
      </trkpt>
      <trkpt lat="45.51861" lon="2.93418">
        <ele>1054</ele>
        <time>2025-06-06T16:13:22Z</time>
      </trkpt>
      <trkpt lat="45.51768" lon="2.9343">
        <ele>1049</ele>
        <time>2025-06-06T16:13:43Z</time>
      </trkpt>
      <trkpt lat="45.51648" lon="2.93304">
        <ele>1041</ele>
        <time>2025-06-06T16:14:18Z</time>
      </trkpt>
      <trkpt lat="45.51576" lon="2.93303">
        <ele>1032</ele>
        <time>2025-06-06T16:14:35Z</time>
      </trkpt>
      <trkpt lat="45.51558" lon="2.93213">
        <ele>1033</ele>
        <time>2025-06-06T16:14:50Z</time>
      </trkpt>
      <trkpt lat="45.51539" lon="2.93015">
        <ele>1029</ele>
        <time>2025-06-06T16:15:23Z</time>
      </trkpt>
      <trkpt lat="45.51492" lon="2.92889">
        <ele>1019</ele>
        <time>2025-06-06T16:15:46Z</time>
      </trkpt>
      <trkpt lat="45.51397" lon="2.92888">
        <ele>1018</ele>
        <time>2025-06-06T16:16:09Z</time>
      </trkpt>
      <trkpt lat="45.5139" lon="2.92931">
        <ele>1018</ele>
        <time>2025-06-06T16:16:16Z</time>
      </trkpt>
      <trkpt lat="45.51382" lon="2.93031">
        <ele>1016</ele>
        <time>2025-06-06T16:16:32Z</time>
      </trkpt>
      <trkpt lat="45.51372" lon="2.9306">
        <ele>1017</ele>
        <time>2025-06-06T16:16:38Z</time>
      </trkpt>
      <trkpt lat="45.51349" lon="2.93108">
        <ele>1019</ele>
        <time>2025-06-06T16:16:47Z</time>
      </trkpt>
      <trkpt lat="45.51345" lon="2.93129">
        <ele>1020</ele>
        <time>2025-06-06T16:16:51Z</time>
      </trkpt>
      <trkpt lat="45.51317" lon="2.9315">
        <ele>1024</ele>
        <time>2025-06-06T16:16:58Z</time>
      </trkpt>
      <trkpt lat="45.51303" lon="2.93188">
        <ele>1027</ele>
        <time>2025-06-06T16:17:05Z</time>
      </trkpt>
      <trkpt lat="45.51297" lon="2.9323">
        <ele>1028</ele>
        <time>2025-06-06T16:17:12Z</time>
      </trkpt>
      <trkpt lat="45.51289" lon="2.93253">
        <ele>1030</ele>
        <time>2025-06-06T16:17:16Z</time>
      </trkpt>
      <trkpt lat="45.51263" lon="2.93226">
        <ele>1033</ele>
        <time>2025-06-06T16:17:24Z</time>
      </trkpt>
      <trkpt lat="45.51241" lon="2.93214">
        <ele>1036</ele>
        <time>2025-06-06T16:17:29Z</time>
      </trkpt>
      <trkpt lat="45.51156" lon="2.93183">
        <ele>1043</ele>
        <time>2025-06-06T16:17:50Z</time>
      </trkpt>
      <trkpt lat="45.51104" lon="2.9324">
        <ele>1044</ele>
        <time>2025-06-06T16:18:05Z</time>
      </trkpt>
      <trkpt lat="45.51023" lon="2.9316">
        <ele>1049</ele>
        <time>2025-06-06T16:18:28Z</time>
      </trkpt>
      <trkpt lat="45.50951" lon="2.93096">
        <ele>1051</ele>
        <time>2025-06-06T16:18:48Z</time>
      </trkpt>
      <trkpt lat="45.50856" lon="2.93069">
        <ele>1052</ele>
        <time>2025-06-06T16:19:11Z</time>
      </trkpt>
      <trkpt lat="45.50784" lon="2.93005">
        <ele>1058</ele>
        <time>2025-06-06T16:19:30Z</time>
      </trkpt>
      <trkpt lat="45.50646" lon="2.92983">
        <ele>1074</ele>
        <time>2025-06-06T16:20:03Z</time>
      </trkpt>
      <trkpt lat="45.50497" lon="2.92856">
        <ele>1093</ele>
        <time>2025-06-06T16:20:43Z</time>
      </trkpt>
      <trkpt lat="45.50461" lon="2.92856">
        <ele>1099</ele>
        <time>2025-06-06T16:20:52Z</time>
      </trkpt>
      <trkpt lat="45.5039" lon="2.92846">
        <ele>1107</ele>
        <time>2025-06-06T16:21:08Z</time>
      </trkpt>
      <trkpt lat="45.50294" lon="2.92816">
        <ele>1113</ele>
        <time>2025-06-06T16:21:31Z</time>
      </trkpt>
      <trkpt lat="45.50223" lon="2.92738">
        <ele>1123</ele>
        <time>2025-06-06T16:21:52Z</time>
      </trkpt>
      <trkpt lat="45.5022" lon="2.92694">
        <ele>1127</ele>
        <time>2025-06-06T16:22:00Z</time>
      </trkpt>
      <trkpt lat="45.50049" lon="2.92356">
        <ele>1154</ele>
        <time>2025-06-06T16:23:08Z</time>
      </trkpt>
      <trkpt lat="45.49969" lon="2.92186">
        <ele>1170</ele>
        <time>2025-06-06T16:23:41Z</time>
      </trkpt>
      <trkpt lat="45.49884" lon="2.92082">
        <ele>1177</ele>
        <time>2025-06-06T16:24:07Z</time>
      </trkpt>
      <trkpt lat="45.49895" lon="2.92054">
        <ele>1177</ele>
        <time>2025-06-06T16:24:13Z</time>
      </trkpt>
      <trkpt lat="45.49907" lon="2.91942">
        <ele>1183</ele>
        <time>2025-06-06T16:24:31Z</time>
      </trkpt>
      <trkpt lat="45.49948" lon="2.91821">
        <ele>1188</ele>
        <time>2025-06-06T16:24:53Z</time>
      </trkpt>
      <trkpt lat="45.50033" lon="2.9153">
        <ele>1193</ele>
        <time>2025-06-06T16:25:45Z</time>
      </trkpt>
      <trkpt lat="45.49995" lon="2.91438">
        <ele>1198</ele>
        <time>2025-06-06T16:26:02Z</time>
      </trkpt>
      <trkpt lat="45.49971" lon="2.91181">
        <ele>1203</ele>
        <time>2025-06-06T16:26:45Z</time>
      </trkpt>
      <trkpt lat="45.49923" lon="2.90973">
        <ele>1211</ele>
        <time>2025-06-06T16:27:21Z</time>
      </trkpt>
      <trkpt lat="45.49951" lon="2.90897">
        <ele>1214</ele>
        <time>2025-06-06T16:27:35Z</time>
      </trkpt>
      <trkpt lat="45.49902" lon="2.90869">
        <ele>1218</ele>
        <time>2025-06-06T16:27:47Z</time>
      </trkpt>
      <trkpt lat="45.49878" lon="2.90838">
        <ele>1220</ele>
        <time>2025-06-06T16:27:55Z</time>
      </trkpt>
      <trkpt lat="45.49843" lon="2.9078">
        <ele>1221</ele>
        <time>2025-06-06T16:28:07Z</time>
      </trkpt>
      <trkpt lat="45.49788" lon="2.90675">
        <ele>1225</ele>
        <time>2025-06-06T16:28:29Z</time>
      </trkpt>
      <trkpt lat="45.49763" lon="2.90616">
        <ele>1227</ele>
        <time>2025-06-06T16:28:40Z</time>
      </trkpt>
      <trkpt lat="45.49649" lon="2.90558">
        <ele>1235</ele>
        <time>2025-06-06T16:29:08Z</time>
      </trkpt>
      <trkpt lat="45.49542" lon="2.90409">
        <ele>1245</ele>
        <time>2025-06-06T16:29:43Z</time>
      </trkpt>
      <trkpt lat="45.49481" lon="2.90319">
        <ele>1254</ele>
        <time>2025-06-06T16:30:03Z</time>
      </trkpt>
      <trkpt lat="45.49412" lon="2.90261">
        <ele>1262</ele>
        <time>2025-06-06T16:30:22Z</time>
      </trkpt>
      <trkpt lat="45.49041" lon="2.90248">
        <ele>1252</ele>
        <time>2025-06-06T16:31:49Z</time>
      </trkpt>
      <trkpt lat="45.48922" lon="2.90166">
        <ele>1249</ele>
        <time>2025-06-06T16:32:20Z</time>
      </trkpt>
      <trkpt lat="45.48836" lon="2.90133">
        <ele>1246</ele>
        <time>2025-06-06T16:32:40Z</time>
      </trkpt>
      <trkpt lat="45.48746" lon="2.90085">
        <ele>1242</ele>
        <time>2025-06-06T16:33:03Z</time>
      </trkpt>
      <trkpt lat="45.4867" lon="2.90031">
        <ele>1237</ele>
        <time>2025-06-06T16:33:23Z</time>
      </trkpt>
      <trkpt lat="45.48955" lon="2.89517">
        <ele>1259</ele>
        <time>2025-06-06T16:35:10Z</time>
      </trkpt>
      <trkpt lat="45.48892" lon="2.89367">
        <ele>1262</ele>
        <time>2025-06-06T16:35:39Z</time>
      </trkpt>
      <trkpt lat="45.48856" lon="2.89291">
        <ele>1266</ele>
        <time>2025-06-06T16:35:54Z</time>
      </trkpt>
      <trkpt lat="45.48733" lon="2.89288">
        <ele>1273</ele>
        <time>2025-06-06T16:36:22Z</time>
      </trkpt>
      <trkpt lat="45.48664" lon="2.89237">
        <ele>1279</ele>
        <time>2025-06-06T16:36:41Z</time>
      </trkpt>
      <trkpt lat="45.48551" lon="2.8907">
        <ele>1277</ele>
        <time>2025-06-06T16:37:19Z</time>
      </trkpt>
      <trkpt lat="45.48517" lon="2.88948">
        <ele>1283</ele>
        <time>2025-06-06T16:37:40Z</time>
      </trkpt>
      <trkpt lat="45.48407" lon="2.88889">
        <ele>1283</ele>
        <time>2025-06-06T16:38:08Z</time>
      </trkpt>
      <trkpt lat="45.48377" lon="2.88791">
        <ele>1290</ele>
        <time>2025-06-06T16:38:25Z</time>
      </trkpt>
      <trkpt lat="45.4825" lon="2.88778">
        <ele>1287</ele>
        <time>2025-06-06T16:38:55Z</time>
      </trkpt>
      <trkpt lat="45.48191" lon="2.88787">
        <ele>1283</ele>
        <time>2025-06-06T16:39:09Z</time>
      </trkpt>
      <trkpt lat="45.48164" lon="2.88832">
        <ele>1280</ele>
        <time>2025-06-06T16:39:18Z</time>
      </trkpt>
      <trkpt lat="45.48045" lon="2.88827">
        <ele>1277</ele>
        <time>2025-06-06T16:39:46Z</time>
      </trkpt>
      <trkpt lat="45.4797" lon="2.89003">
        <ele>1271</ele>
        <time>2025-06-06T16:40:20Z</time>
      </trkpt>
      <trkpt lat="45.47873" lon="2.89094">
        <ele>1266</ele>
        <time>2025-06-06T16:40:47Z</time>
      </trkpt>
      <trkpt lat="45.47854" lon="2.89158">
        <ele>1262</ele>
        <time>2025-06-06T16:40:58Z</time>
      </trkpt>
      <trkpt lat="45.47837" lon="2.89234">
        <ele>1259</ele>
        <time>2025-06-06T16:41:11Z</time>
      </trkpt>
      <trkpt lat="45.47809" lon="2.89247">
        <ele>1258</ele>
        <time>2025-06-06T16:41:18Z</time>
      </trkpt>
      <trkpt lat="45.47745" lon="2.89435">
        <ele>1252</ele>
        <time>2025-06-06T16:41:52Z</time>
      </trkpt>
      <trkpt lat="45.47648" lon="2.8952">
        <ele>1246</ele>
        <time>2025-06-06T16:42:19Z</time>
      </trkpt>
      <trkpt lat="45.47622" lon="2.89621">
        <ele>1239</ele>
        <time>2025-06-06T16:42:37Z</time>
      </trkpt>
      <trkpt lat="45.47625" lon="2.89696">
        <ele>1236</ele>
        <time>2025-06-06T16:42:49Z</time>
      </trkpt>
      <trkpt lat="45.47557" lon="2.89625">
        <ele>1234</ele>
        <time>2025-06-06T16:43:09Z</time>
      </trkpt>
      <trkpt lat="45.47506" lon="2.89612">
        <ele>1231</ele>
        <time>2025-06-06T16:43:21Z</time>
      </trkpt>
      <trkpt lat="45.47369" lon="2.89594">
        <ele>1229</ele>
        <time>2025-06-06T16:43:53Z</time>
      </trkpt>
      <trkpt lat="45.472" lon="2.89599">
        <ele>1230</ele>
        <time>2025-06-06T16:44:32Z</time>
      </trkpt>
      <trkpt lat="45.47099" lon="2.89652">
        <ele>1224</ele>
        <time>2025-06-06T16:44:58Z</time>
      </trkpt>
      <trkpt lat="45.47087" lon="2.89691">
        <ele>1224</ele>
        <time>2025-06-06T16:45:04Z</time>
      </trkpt>
      <trkpt lat="45.46886" lon="2.89784">
        <ele>1206</ele>
        <time>2025-06-06T16:45:54Z</time>
      </trkpt>
      <trkpt lat="45.46711" lon="2.89837">
        <ele>1189</ele>
        <time>2025-06-06T16:46:36Z</time>
      </trkpt>
      <trkpt lat="45.46665" lon="2.89881">
        <ele>1185</ele>
        <time>2025-06-06T16:46:49Z</time>
      </trkpt>
      <trkpt lat="45.46537" lon="2.8987">
        <ele>1187</ele>
        <time>2025-06-06T16:47:18Z</time>
      </trkpt>
      <trkpt lat="45.46411" lon="2.89955">
        <ele>1191</ele>
        <time>2025-06-06T16:47:51Z</time>
      </trkpt>
      <trkpt lat="45.46319" lon="2.90167">
        <ele>1192</ele>
        <time>2025-06-06T16:48:32Z</time>
      </trkpt>
      <trkpt lat="45.46237" lon="2.9031">
        <ele>1185</ele>
        <time>2025-06-06T16:49:02Z</time>
      </trkpt>
      <trkpt lat="45.46139" lon="2.90282">
        <ele>1193</ele>
        <time>2025-06-06T16:49:25Z</time>
      </trkpt>
      <trkpt lat="45.46128" lon="2.90338">
        <ele>1205</ele>
        <time>2025-06-06T16:49:35Z</time>
      </trkpt>
      <trkpt lat="45.46156" lon="2.90499">
        <ele>1196</ele>
        <time>2025-06-06T16:50:02Z</time>
      </trkpt>
      <trkpt lat="45.46151" lon="2.90653">
        <ele>1180</ele>
        <time>2025-06-06T16:50:27Z</time>
      </trkpt>
      <trkpt lat="45.46157" lon="2.90755">
        <ele>1167</ele>
        <time>2025-06-06T16:50:44Z</time>
      </trkpt>
      <trkpt lat="45.46056" lon="2.90939">
        <ele>1182</ele>
        <time>2025-06-06T16:51:22Z</time>
      </trkpt>
      <trkpt lat="45.45948" lon="2.91007">
        <ele>1190</ele>
        <time>2025-06-06T16:51:50Z</time>
      </trkpt>
      <trkpt lat="45.45852" lon="2.91014">
        <ele>1205</ele>
        <time>2025-06-06T16:52:12Z</time>
      </trkpt>
      <trkpt lat="45.45809" lon="2.91057">
        <ele>1195</ele>
        <time>2025-06-06T16:52:25Z</time>
      </trkpt>
      <trkpt lat="45.45742" lon="2.91063">
        <ele>1191</ele>
        <time>2025-06-06T16:52:40Z</time>
      </trkpt>
      <trkpt lat="45.45529" lon="2.91461">
        <ele>1179</ele>
        <time>2025-06-06T16:54:02Z</time>
      </trkpt>
      <trkpt lat="45.45529" lon="2.91515">
        <ele>1172</ele>
        <time>2025-06-06T16:54:11Z</time>
      </trkpt>
      <trkpt lat="45.4542" lon="2.9154">
        <ele>1173</ele>
        <time>2025-06-06T16:54:37Z</time>
      </trkpt>
      <trkpt lat="45.45326" lon="2.91456">
        <ele>1178</ele>
        <time>2025-06-06T16:55:03Z</time>
      </trkpt>
      <trkpt lat="45.45232" lon="2.91436">
        <ele>1174</ele>
        <time>2025-06-06T16:55:25Z</time>
      </trkpt>
      <trkpt lat="45.45149" lon="2.91349">
        <ele>1180</ele>
        <time>2025-06-06T16:55:49Z</time>
      </trkpt>
      <trkpt lat="45.45074" lon="2.91412">
        <ele>1183</ele>
        <time>2025-06-06T16:56:10Z</time>
      </trkpt>
      <trkpt lat="45.45067" lon="2.91427">
        <ele>1182</ele>
        <time>2025-06-06T16:56:13Z</time>
      </trkpt>
      <trkpt lat="45.4485" lon="2.91633">
        <ele>1144</ele>
        <time>2025-06-06T16:57:13Z</time>
      </trkpt>
      <trkpt lat="45.44588" lon="2.91442">
        <ele>1122</ele>
        <time>2025-06-06T16:58:22Z</time>
      </trkpt>
      <trkpt lat="45.44558" lon="2.91477">
        <ele>1114</ele>
        <time>2025-06-06T16:58:31Z</time>
      </trkpt>
      <trkpt lat="45.44439" lon="2.91477">
        <ele>1109</ele>
        <time>2025-06-06T16:58:59Z</time>
      </trkpt>
      <trkpt lat="45.44385" lon="2.91593">
        <ele>1108</ele>
        <time>2025-06-06T16:59:22Z</time>
      </trkpt>
      <trkpt lat="45.44333" lon="2.91628">
        <ele>1110</ele>
        <time>2025-06-06T16:59:35Z</time>
      </trkpt>
      <trkpt lat="45.44164" lon="2.91718">
        <ele>1097</ele>
        <time>2025-06-06T17:00:17Z</time>
      </trkpt>
      <trkpt lat="45.43987" lon="2.91653">
        <ele>1081</ele>
        <time>2025-06-06T17:01:00Z</time>
      </trkpt>
      <trkpt lat="45.43893" lon="2.91575">
        <ele>1077</ele>
        <time>2025-06-06T17:01:25Z</time>
      </trkpt>
      <trkpt lat="45.43807" lon="2.91549">
        <ele>1056</ele>
        <time>2025-06-06T17:01:46Z</time>
      </trkpt>
      <trkpt lat="45.43845" lon="2.91619">
        <ele>1046</ele>
        <time>2025-06-06T17:02:00Z</time>
      </trkpt>
      <trkpt lat="45.43742" lon="2.91647">
        <ele>1039</ele>
        <time>2025-06-06T17:02:25Z</time>
      </trkpt>
      <trkpt lat="45.43616" lon="2.91511">
        <ele>1048</ele>
        <time>2025-06-06T17:03:02Z</time>
      </trkpt>
      <trkpt lat="45.43518" lon="2.91411">
        <ele>1059</ele>
        <time>2025-06-06T17:03:30Z</time>
      </trkpt>
      <trkpt lat="45.43352" lon="2.91403">
        <ele>1066</ele>
        <time>2025-06-06T17:04:09Z</time>
      </trkpt>
      <trkpt lat="45.4324" lon="2.91297">
        <ele>1074</ele>
        <time>2025-06-06T17:04:40Z</time>
      </trkpt>
      <trkpt lat="45.43021" lon="2.91377">
        <ele>1084</ele>
        <time>2025-06-06T17:05:33Z</time>
      </trkpt>
      <trkpt lat="45.42992" lon="2.91438">
        <ele>1089</ele>
        <time>2025-06-06T17:05:45Z</time>
      </trkpt>
      <trkpt lat="45.42944" lon="2.91385">
        <ele>1096</ele>
        <time>2025-06-06T17:05:59Z</time>
      </trkpt>
      <trkpt lat="45.42862" lon="2.91328">
        <ele>1111</ele>
        <time>2025-06-06T17:06:21Z</time>
      </trkpt>
      <trkpt lat="45.42744" lon="2.91363">
        <ele>1128</ele>
        <time>2025-06-06T17:06:49Z</time>
      </trkpt>
      <trkpt lat="45.42698" lon="2.91598">
        <ele>1144</ele>
        <time>2025-06-06T17:07:29Z</time>
      </trkpt>
      <trkpt lat="45.42424" lon="2.91569">
        <ele>1168</ele>
        <time>2025-06-06T17:08:33Z</time>
      </trkpt>
      <trkpt lat="45.42322" lon="2.91589">
        <ele>1179</ele>
        <time>2025-06-06T17:08:57Z</time>
      </trkpt>
      <trkpt lat="45.42406" lon="2.91743">
        <ele>1180</ele>
        <time>2025-06-06T17:09:29Z</time>
      </trkpt>
      <trkpt lat="45.42469" lon="2.91837">
        <ele>1178</ele>
        <time>2025-06-06T17:09:50Z</time>
      </trkpt>
      <trkpt lat="45.42556" lon="2.92072">
        <ele>1171</ele>
        <time>2025-06-06T17:10:34Z</time>
      </trkpt>
      <trkpt lat="45.4265" lon="2.92338">
        <ele>1163</ele>
        <time>2025-06-06T17:11:23Z</time>
      </trkpt>
      <trkpt lat="45.42673" lon="2.92607">
        <ele>1169</ele>
        <time>2025-06-06T17:12:07Z</time>
      </trkpt>
      <trkpt lat="45.42691" lon="2.92917">
        <ele>1170</ele>
        <time>2025-06-06T17:12:58Z</time>
      </trkpt>
      <trkpt lat="45.42715" lon="2.93086">
        <ele>1171</ele>
        <time>2025-06-06T17:13:26Z</time>
      </trkpt>
      <trkpt lat="45.42779" lon="2.9336">
        <ele>1171</ele>
        <time>2025-06-06T17:14:13Z</time>
      </trkpt>
      <trkpt lat="45.42702" lon="2.93441">
        <ele>1177</ele>
        <time>2025-06-06T17:14:36Z</time>
      </trkpt>
      <trkpt lat="45.42575" lon="2.93842">
        <ele>1182</ele>
        <time>2025-06-06T17:15:48Z</time>
      </trkpt>
      <trkpt lat="45.42447" lon="2.9395">
        <ele>1185</ele>
        <time>2025-06-06T17:16:23Z</time>
      </trkpt>
      <trkpt lat="45.42299" lon="2.94118">
        <ele>1186</ele>
        <time>2025-06-06T17:17:07Z</time>
      </trkpt>
      <trkpt lat="45.42209" lon="2.94248">
        <ele>1185</ele>
        <time>2025-06-06T17:17:37Z</time>
      </trkpt>
      <trkpt lat="45.42149" lon="2.94316">
        <ele>1187</ele>
        <time>2025-06-06T17:17:55Z</time>
      </trkpt>
      <trkpt lat="45.42092" lon="2.94454">
        <ele>1183</ele>
        <time>2025-06-06T17:18:21Z</time>
      </trkpt>
      <trkpt lat="45.42097" lon="2.9463">
        <ele>1178</ele>
        <time>2025-06-06T17:18:50Z</time>
      </trkpt>
      <trkpt lat="45.42072" lon="2.94823">
        <ele>1169</ele>
        <time>2025-06-06T17:19:22Z</time>
      </trkpt>
      <trkpt lat="45.42033" lon="2.94938">
        <ele>1163</ele>
        <time>2025-06-06T17:19:43Z</time>
      </trkpt>
      <trkpt lat="45.41956" lon="2.95017">
        <ele>1167</ele>
        <time>2025-06-06T17:20:05Z</time>
      </trkpt>
      <trkpt lat="45.41942" lon="2.95087">
        <ele>1173</ele>
        <time>2025-06-06T17:20:17Z</time>
      </trkpt>
      <trkpt lat="45.4188" lon="2.95236">
        <ele>1179</ele>
        <time>2025-06-06T17:20:45Z</time>
      </trkpt>
      <trkpt lat="45.41871" lon="2.95316">
        <ele>1184</ele>
        <time>2025-06-06T17:20:59Z</time>
      </trkpt>
      <trkpt lat="45.41825" lon="2.95453">
        <ele>1191</ele>
        <time>2025-06-06T17:21:24Z</time>
      </trkpt>
      <trkpt lat="45.41716" lon="2.95486">
        <ele>1196</ele>
        <time>2025-06-06T17:21:50Z</time>
      </trkpt>
      <trkpt lat="45.41543" lon="2.95587">
        <ele>1211</ele>
        <time>2025-06-06T17:22:33Z</time>
      </trkpt>
      <trkpt lat="45.41509" lon="2.95656">
        <ele>1216</ele>
        <time>2025-06-06T17:22:47Z</time>
      </trkpt>
      <trkpt lat="45.41409" lon="2.9552">
        <ele>1221</ele>
        <time>2025-06-06T17:23:19Z</time>
      </trkpt>
      <trkpt lat="45.41378" lon="2.95438">
        <ele>1222</ele>
        <time>2025-06-06T17:23:35Z</time>
      </trkpt>
      <trkpt lat="45.41289" lon="2.95281">
        <ele>1224</ele>
        <time>2025-06-06T17:24:08Z</time>
      </trkpt>
      <trkpt lat="45.4117" lon="2.95149">
        <ele>1224</ele>
        <time>2025-06-06T17:24:43Z</time>
      </trkpt>
      <trkpt lat="45.41135" lon="2.94944">
        <ele>1214</ele>
        <time>2025-06-06T17:25:18Z</time>
      </trkpt>
      <trkpt lat="45.41213" lon="2.9468">
        <ele>1209</ele>
        <time>2025-06-06T17:26:05Z</time>
      </trkpt>
      <trkpt lat="45.40505" lon="2.94171">
        <ele>1271</ele>
        <time>2025-06-06T17:29:10Z</time>
      </trkpt>
      <trkpt lat="45.40374" lon="2.94335">
        <ele>1252</ele>
        <time>2025-06-06T17:29:50Z</time>
      </trkpt>
      <trkpt lat="45.40225" lon="2.94027">
        <ele>1255</ele>
        <time>2025-06-06T17:30:52Z</time>
      </trkpt>
      <trkpt lat="45.40121" lon="2.93722">
        <ele>1233</ele>
        <time>2025-06-06T17:31:47Z</time>
      </trkpt>
      <trkpt lat="45.40114" lon="2.93646">
        <ele>1231</ele>
        <time>2025-06-06T17:32:00Z</time>
      </trkpt>
      <trkpt lat="45.40041" lon="2.93572">
        <ele>1219</ele>
        <time>2025-06-06T17:32:21Z</time>
      </trkpt>
      <trkpt lat="45.39991" lon="2.93552">
        <ele>1210</ele>
        <time>2025-06-06T17:32:33Z</time>
      </trkpt>
      <trkpt lat="45.4002" lon="2.93416">
        <ele>1209</ele>
        <time>2025-06-06T17:32:56Z</time>
      </trkpt>
      <trkpt lat="45.39938" lon="2.93388">
        <ele>1203</ele>
        <time>2025-06-06T17:33:16Z</time>
      </trkpt>
      <trkpt lat="45.39907" lon="2.93388">
        <ele>1202</ele>
        <time>2025-06-06T17:33:23Z</time>
      </trkpt>
      <trkpt lat="45.39824" lon="2.93304">
        <ele>1204</ele>
        <time>2025-06-06T17:33:47Z</time>
      </trkpt>
      <trkpt lat="45.39737" lon="2.93169">
        <ele>1206</ele>
        <time>2025-06-06T17:34:17Z</time>
      </trkpt>
      <trkpt lat="45.39544" lon="2.93053">
        <ele>1216</ele>
        <time>2025-06-06T17:35:06Z</time>
      </trkpt>
      <trkpt lat="45.39514" lon="2.92981">
        <ele>1214</ele>
        <time>2025-06-06T17:35:20Z</time>
      </trkpt>
      <trkpt lat="45.39393" lon="2.92947">
        <ele>1218</ele>
        <time>2025-06-06T17:35:49Z</time>
      </trkpt>
      <trkpt lat="45.39237" lon="2.92751">
        <ele>1214</ele>
        <time>2025-06-06T17:36:37Z</time>
      </trkpt>
      <trkpt lat="45.39203" lon="2.92692">
        <ele>1212</ele>
        <time>2025-06-06T17:36:50Z</time>
      </trkpt>
      <trkpt lat="45.39137" lon="2.92625">
        <ele>1213</ele>
        <time>2025-06-06T17:37:09Z</time>
      </trkpt>
      <trkpt lat="45.39017" lon="2.92464">
        <ele>1207</ele>
        <time>2025-06-06T17:37:47Z</time>
      </trkpt>
      <trkpt lat="45.38932" lon="2.92406">
        <ele>1205</ele>
        <time>2025-06-06T17:38:09Z</time>
      </trkpt>
      <trkpt lat="45.38914" lon="2.92401">
        <ele>1205</ele>
        <time>2025-06-06T17:38:13Z</time>
      </trkpt>
      <trkpt lat="45.38872" lon="2.92421">
        <ele>1205</ele>
        <time>2025-06-06T17:38:24Z</time>
      </trkpt>
      <trkpt lat="45.38855" lon="2.92394">
        <ele>1205</ele>
        <time>2025-06-06T17:38:30Z</time>
      </trkpt>
      <trkpt lat="45.3886" lon="2.92363">
        <ele>1206</ele>
        <time>2025-06-06T17:38:35Z</time>
      </trkpt>
      <trkpt lat="45.3884" lon="2.92367">
        <ele>1206</ele>
        <time>2025-06-06T17:38:40Z</time>
      </trkpt>
      <trkpt lat="45.38841" lon="2.92394">
        <ele>1205</ele>
        <time>2025-06-06T17:38:44Z</time>
      </trkpt>
      <trkpt lat="45.38867" lon="2.92441">
        <ele>1206</ele>
        <time>2025-06-06T17:38:54Z</time>
      </trkpt>
      <trkpt lat="45.38919" lon="2.92417">
        <ele>1206</ele>
        <time>2025-06-06T17:39:07Z</time>
      </trkpt>
      <trkpt lat="45.39002" lon="2.92475">
        <ele>1210</ele>
        <time>2025-06-06T17:39:28Z</time>
      </trkpt>
      <trkpt lat="45.39126" lon="2.92639">
        <ele>1215</ele>
        <time>2025-06-06T17:40:08Z</time>
      </trkpt>
      <trkpt lat="45.39191" lon="2.92702">
        <ele>1213</ele>
        <time>2025-06-06T17:40:26Z</time>
      </trkpt>
      <trkpt lat="45.39227" lon="2.92764">
        <ele>1215</ele>
        <time>2025-06-06T17:40:39Z</time>
      </trkpt>
      <trkpt lat="45.39371" lon="2.92942">
        <ele>1219</ele>
        <time>2025-06-06T17:41:24Z</time>
      </trkpt>
      <trkpt lat="45.39461" lon="2.93088">
        <ele>1222</ele>
        <time>2025-06-06T17:41:56Z</time>
      </trkpt>
      <trkpt lat="45.395" lon="2.93164">
        <ele>1221</ele>
        <time>2025-06-06T17:42:11Z</time>
      </trkpt>
      <trkpt lat="45.39507" lon="2.93216">
        <ele>1222</ele>
        <time>2025-06-06T17:42:20Z</time>
      </trkpt>
      <trkpt lat="45.39528" lon="2.93272">
        <ele>1220</ele>
        <time>2025-06-06T17:42:30Z</time>
      </trkpt>
      <trkpt lat="45.39546" lon="2.93312">
        <ele>1218</ele>
        <time>2025-06-06T17:42:38Z</time>
      </trkpt>
      <trkpt lat="45.39544" lon="2.93367">
        <ele>1218</ele>
        <time>2025-06-06T17:42:47Z</time>
      </trkpt>
      <trkpt lat="45.39559" lon="2.93403">
        <ele>1215</ele>
        <time>2025-06-06T17:42:54Z</time>
      </trkpt>
      <trkpt lat="45.39553" lon="2.93507">
        <ele>1215</ele>
        <time>2025-06-06T17:43:11Z</time>
      </trkpt>
      <trkpt lat="45.39556" lon="2.93555">
        <ele>1217</ele>
        <time>2025-06-06T17:43:19Z</time>
      </trkpt>
      <trkpt lat="45.39564" lon="2.93579">
        <ele>1217</ele>
        <time>2025-06-06T17:43:23Z</time>
      </trkpt>
      <trkpt lat="45.39559" lon="2.93675">
        <ele>1220</ele>
        <time>2025-06-06T17:43:39Z</time>
      </trkpt>
      <trkpt lat="45.39568" lon="2.93723">
        <ele>1222</ele>
        <time>2025-06-06T17:43:47Z</time>
      </trkpt>
      <trkpt lat="45.3959" lon="2.93763">
        <ele>1223</ele>
        <time>2025-06-06T17:43:55Z</time>
      </trkpt>
      <trkpt lat="45.39604" lon="2.93809">
        <ele>1225</ele>
        <time>2025-06-06T17:44:04Z</time>
      </trkpt>
      <trkpt lat="45.39618" lon="2.9384">
        <ele>1224</ele>
        <time>2025-06-06T17:44:10Z</time>
      </trkpt>
      <trkpt lat="45.39638" lon="2.93857">
        <ele>1221</ele>
        <time>2025-06-06T17:44:15Z</time>
      </trkpt>
      <trkpt lat="45.39646" lon="2.93898">
        <ele>1221</ele>
        <time>2025-06-06T17:44:22Z</time>
      </trkpt>
      <trkpt lat="45.39667" lon="2.9396">
        <ele>1222</ele>
        <time>2025-06-06T17:44:33Z</time>
      </trkpt>
      <trkpt lat="45.39759" lon="2.94183">
        <ele>1218</ele>
        <time>2025-06-06T17:45:16Z</time>
      </trkpt>
      <trkpt lat="45.39763" lon="2.94207">
        <ele>1218</ele>
        <time>2025-06-06T17:45:20Z</time>
      </trkpt>
      <trkpt lat="45.3975" lon="2.94245">
        <ele>1220</ele>
        <time>2025-06-06T17:45:27Z</time>
      </trkpt>
      <trkpt lat="45.39745" lon="2.94274">
        <ele>1221</ele>
        <time>2025-06-06T17:45:32Z</time>
      </trkpt>
      <trkpt lat="45.39755" lon="2.94312">
        <ele>1219</ele>
        <time>2025-06-06T17:45:38Z</time>
      </trkpt>
      <trkpt lat="45.39764" lon="2.9436">
        <ele>1217</ele>
        <time>2025-06-06T17:45:47Z</time>
      </trkpt>
      <trkpt lat="45.39749" lon="2.94404">
        <ele>1216</ele>
        <time>2025-06-06T17:45:55Z</time>
      </trkpt>
      <trkpt lat="45.39704" lon="2.94458">
        <ele>1221</ele>
        <time>2025-06-06T17:46:08Z</time>
      </trkpt>
      <trkpt lat="45.39683" lon="2.94479">
        <ele>1224</ele>
        <time>2025-06-06T17:46:14Z</time>
      </trkpt>
      <trkpt lat="45.39688" lon="2.94517">
        <ele>1223</ele>
        <time>2025-06-06T17:46:21Z</time>
      </trkpt>
      <trkpt lat="45.397" lon="2.94551">
        <ele>1222</ele>
        <time>2025-06-06T17:46:27Z</time>
      </trkpt>
      <trkpt lat="45.39753" lon="2.94661">
        <ele>1220</ele>
        <time>2025-06-06T17:46:49Z</time>
      </trkpt>
      <trkpt lat="45.39754" lon="2.94692">
        <ele>1221</ele>
        <time>2025-06-06T17:46:54Z</time>
      </trkpt>
      <trkpt lat="45.39747" lon="2.94751">
        <ele>1221</ele>
        <time>2025-06-06T17:47:04Z</time>
      </trkpt>
      <trkpt lat="45.39731" lon="2.94792">
        <ele>1220</ele>
        <time>2025-06-06T17:47:11Z</time>
      </trkpt>
      <trkpt lat="45.3967" lon="2.94855">
        <ele>1220</ele>
        <time>2025-06-06T17:47:29Z</time>
      </trkpt>
      <trkpt lat="45.39664" lon="2.94887">
        <ele>1219</ele>
        <time>2025-06-06T17:47:34Z</time>
      </trkpt>
      <trkpt lat="45.39652" lon="2.94926">
        <ele>1217</ele>
        <time>2025-06-06T17:47:41Z</time>
      </trkpt>
      <trkpt lat="45.39629" lon="2.94937">
        <ele>1219</ele>
        <time>2025-06-06T17:47:47Z</time>
      </trkpt>
      <trkpt lat="45.39606" lon="2.94941">
        <ele>1220</ele>
        <time>2025-06-06T17:47:52Z</time>
      </trkpt>
      <trkpt lat="45.39593" lon="2.94965">
        <ele>1220</ele>
        <time>2025-06-06T17:47:57Z</time>
      </trkpt>
      <trkpt lat="45.39586" lon="2.95001">
        <ele>1219</ele>
        <time>2025-06-06T17:48:04Z</time>
      </trkpt>
      <trkpt lat="45.39571" lon="2.95047">
        <ele>1221</ele>
        <time>2025-06-06T17:48:12Z</time>
      </trkpt>
      <trkpt lat="45.39571" lon="2.95084">
        <ele>1221</ele>
        <time>2025-06-06T17:48:18Z</time>
      </trkpt>
      <trkpt lat="45.39586" lon="2.95194">
        <ele>1220</ele>
        <time>2025-06-06T17:48:36Z</time>
      </trkpt>
      <trkpt lat="45.39608" lon="2.95317">
        <ele>1217</ele>
        <time>2025-06-06T17:48:57Z</time>
      </trkpt>
      <trkpt lat="45.39635" lon="2.95424">
        <ele>1214</ele>
        <time>2025-06-06T17:49:16Z</time>
      </trkpt>
      <trkpt lat="45.39674" lon="2.95503">
        <ele>1212</ele>
        <time>2025-06-06T17:49:32Z</time>
      </trkpt>
      <trkpt lat="45.39686" lon="2.95537">
        <ele>1210</ele>
        <time>2025-06-06T17:49:38Z</time>
      </trkpt>
      <trkpt lat="45.39686" lon="2.95569">
        <ele>1210</ele>
        <time>2025-06-06T17:49:43Z</time>
      </trkpt>
      <trkpt lat="45.39676" lon="2.95628">
        <ele>1214</ele>
        <time>2025-06-06T17:49:53Z</time>
      </trkpt>
      <trkpt lat="45.39687" lon="2.95668">
        <ele>1214</ele>
        <time>2025-06-06T17:50:00Z</time>
      </trkpt>
      <trkpt lat="45.39717" lon="2.95744">
        <ele>1212</ele>
        <time>2025-06-06T17:50:14Z</time>
      </trkpt>
      <trkpt lat="45.39722" lon="2.95919">
        <ele>1222</ele>
        <time>2025-06-06T17:50:43Z</time>
      </trkpt>
      <trkpt lat="45.39732" lon="2.95957">
        <ele>1223</ele>
        <time>2025-06-06T17:50:50Z</time>
      </trkpt>
      <trkpt lat="45.39772" lon="2.96023">
        <ele>1222</ele>
        <time>2025-06-06T17:51:04Z</time>
      </trkpt>
      <trkpt lat="45.39829" lon="2.96104">
        <ele>1220</ele>
        <time>2025-06-06T17:51:23Z</time>
      </trkpt>
      <trkpt lat="45.39778" lon="2.96123">
        <ele>1223</ele>
        <time>2025-06-06T17:51:35Z</time>
      </trkpt>
      <trkpt lat="45.39765" lon="2.96164">
        <ele>1224</ele>
        <time>2025-06-06T17:51:43Z</time>
      </trkpt>
      <trkpt lat="45.39753" lon="2.96217">
        <ele>1222</ele>
        <time>2025-06-06T17:51:52Z</time>
      </trkpt>
      <trkpt lat="45.39721" lon="2.96252">
        <ele>1225</ele>
        <time>2025-06-06T17:52:01Z</time>
      </trkpt>
      <trkpt lat="45.39696" lon="2.96266">
        <ele>1228</ele>
        <time>2025-06-06T17:52:07Z</time>
      </trkpt>
      <trkpt lat="45.39649" lon="2.96248">
        <ele>1234</ele>
        <time>2025-06-06T17:52:19Z</time>
      </trkpt>
      <trkpt lat="45.39606" lon="2.96224">
        <ele>1236</ele>
        <time>2025-06-06T17:52:30Z</time>
      </trkpt>
      <trkpt lat="45.39588" lon="2.96196">
        <ele>1237</ele>
        <time>2025-06-06T17:52:36Z</time>
      </trkpt>
      <trkpt lat="45.39578" lon="2.96164">
        <ele>1239</ele>
        <time>2025-06-06T17:52:41Z</time>
      </trkpt>
      <trkpt lat="45.39393" lon="2.96197">
        <ele>1234</ele>
        <time>2025-06-06T17:53:25Z</time>
      </trkpt>
      <trkpt lat="45.39175" lon="2.96256">
        <ele>1228</ele>
        <time>2025-06-06T17:54:17Z</time>
      </trkpt>
      <trkpt lat="45.39139" lon="2.96262">
        <ele>1228</ele>
        <time>2025-06-06T17:54:25Z</time>
      </trkpt>
      <trkpt lat="45.39093" lon="2.96235">
        <ele>1224</ele>
        <time>2025-06-06T17:54:37Z</time>
      </trkpt>
      <trkpt lat="45.39049" lon="2.96204">
        <ele>1221</ele>
        <time>2025-06-06T17:54:48Z</time>
      </trkpt>
      <trkpt lat="45.39004" lon="2.96191">
        <ele>1219</ele>
        <time>2025-06-06T17:54:59Z</time>
      </trkpt>
      <trkpt lat="45.38946" lon="2.96166">
        <ele>1215</ele>
        <time>2025-06-06T17:55:13Z</time>
      </trkpt>
      <trkpt lat="45.38875" lon="2.96141">
        <ele>1209</ele>
        <time>2025-06-06T17:55:30Z</time>
      </trkpt>
      <trkpt lat="45.38811" lon="2.9614">
        <ele>1202</ele>
        <time>2025-06-06T17:55:45Z</time>
      </trkpt>
      <trkpt lat="45.38769" lon="2.96156">
        <ele>1197</ele>
        <time>2025-06-06T17:55:55Z</time>
      </trkpt>
      <trkpt lat="45.38737" lon="2.96198">
        <ele>1192</ele>
        <time>2025-06-06T17:56:06Z</time>
      </trkpt>
      <trkpt lat="45.38751" lon="2.96298">
        <ele>1192</ele>
        <time>2025-06-06T17:56:22Z</time>
      </trkpt>
      <trkpt lat="45.38739" lon="2.96345">
        <ele>1190</ele>
        <time>2025-06-06T17:56:31Z</time>
      </trkpt>
      <trkpt lat="45.38728" lon="2.96368">
        <ele>1189</ele>
        <time>2025-06-06T17:56:35Z</time>
      </trkpt>
      <trkpt lat="45.38576" lon="2.9642">
        <ele>1184</ele>
        <time>2025-06-06T17:57:12Z</time>
      </trkpt>
      <trkpt lat="45.38525" lon="2.9642">
        <ele>1181</ele>
        <time>2025-06-06T17:57:24Z</time>
      </trkpt>
      <trkpt lat="45.38483" lon="2.96408">
        <ele>1180</ele>
        <time>2025-06-06T17:57:34Z</time>
      </trkpt>
      <trkpt lat="45.38449" lon="2.96404">
        <ele>1179</ele>
        <time>2025-06-06T17:57:41Z</time>
      </trkpt>
      <trkpt lat="45.38417" lon="2.96384">
        <ele>1178</ele>
        <time>2025-06-06T17:57:50Z</time>
      </trkpt>
      <trkpt lat="45.38397" lon="2.96377">
        <ele>1177</ele>
        <time>2025-06-06T17:57:54Z</time>
      </trkpt>
      <trkpt lat="45.3837" lon="2.96405">
        <ele>1175</ele>
        <time>2025-06-06T17:58:02Z</time>
      </trkpt>
      <trkpt lat="45.38333" lon="2.96481">
        <ele>1175</ele>
        <time>2025-06-06T17:58:17Z</time>
      </trkpt>
      <trkpt lat="45.38289" lon="2.96543">
        <ele>1171</ele>
        <time>2025-06-06T17:58:32Z</time>
      </trkpt>
      <trkpt lat="45.38262" lon="2.96609">
        <ele>1170</ele>
        <time>2025-06-06T17:58:44Z</time>
      </trkpt>
      <trkpt lat="45.38212" lon="2.96679">
        <ele>1166</ele>
        <time>2025-06-06T17:59:01Z</time>
      </trkpt>
      <trkpt lat="45.38178" lon="2.96722">
        <ele>1164</ele>
        <time>2025-06-06T17:59:11Z</time>
      </trkpt>
      <trkpt lat="45.38132" lon="2.96767">
        <ele>1163</ele>
        <time>2025-06-06T17:59:24Z</time>
      </trkpt>
      <trkpt lat="45.3809" lon="2.96786">
        <ele>1160</ele>
        <time>2025-06-06T17:59:35Z</time>
      </trkpt>
      <trkpt lat="45.38061" lon="2.96853">
        <ele>1159</ele>
        <time>2025-06-06T17:59:48Z</time>
      </trkpt>
      <trkpt lat="45.3804" lon="2.96912">
        <ele>1158</ele>
        <time>2025-06-06T17:59:58Z</time>
      </trkpt>
      <trkpt lat="45.37936" lon="2.96877">
        <ele>1156</ele>
        <time>2025-06-06T18:00:23Z</time>
      </trkpt>
      <trkpt lat="45.37918" lon="2.96878">
        <ele>1156</ele>
        <time>2025-06-06T18:00:28Z</time>
      </trkpt>
      <trkpt lat="45.37913" lon="2.96893">
        <ele>1157</ele>
        <time>2025-06-06T18:00:30Z</time>
      </trkpt>
      <trkpt lat="45.37917" lon="2.96899">
        <ele>1156</ele>
        <time>2025-06-06T18:00:32Z</time>
      </trkpt>
      <trkpt lat="45.37828" lon="2.9709">
        <ele>1159</ele>
        <time>2025-06-06T18:01:09Z</time>
      </trkpt>
      <trkpt lat="45.37813" lon="2.9708">
        <ele>1162</ele>
        <time>2025-06-06T18:01:13Z</time>
      </trkpt>
      <trkpt lat="45.37767" lon="2.9715">
        <ele>1167</ele>
        <time>2025-06-06T18:01:29Z</time>
      </trkpt>
      <trkpt lat="45.3776" lon="2.97252">
        <ele>1169</ele>
        <time>2025-06-06T18:01:46Z</time>
      </trkpt>
      <trkpt lat="45.37737" lon="2.97341">
        <ele>1172</ele>
        <time>2025-06-06T18:02:01Z</time>
      </trkpt>
      <trkpt lat="45.37656" lon="2.97311">
        <ele>1178</ele>
        <time>2025-06-06T18:02:21Z</time>
      </trkpt>
      <trkpt lat="45.37577" lon="2.9731">
        <ele>1179</ele>
        <time>2025-06-06T18:02:39Z</time>
      </trkpt>
      <trkpt lat="45.37526" lon="2.97335">
        <ele>1178</ele>
        <time>2025-06-06T18:02:52Z</time>
      </trkpt>
      <trkpt lat="45.37425" lon="2.97229">
        <ele>1185</ele>
        <time>2025-06-06T18:03:21Z</time>
      </trkpt>
      <trkpt lat="45.3736" lon="2.97244">
        <ele>1179</ele>
        <time>2025-06-06T18:03:37Z</time>
      </trkpt>
      <trkpt lat="45.37268" lon="2.97151">
        <ele>1181</ele>
        <time>2025-06-06T18:04:03Z</time>
      </trkpt>
      <trkpt lat="45.37187" lon="2.97178">
        <ele>1183</ele>
        <time>2025-06-06T18:04:22Z</time>
      </trkpt>
      <trkpt lat="45.37031" lon="2.97253">
        <ele>1185</ele>
        <time>2025-06-06T18:05:01Z</time>
      </trkpt>
      <trkpt lat="45.36892" lon="2.97175">
        <ele>1195</ele>
        <time>2025-06-06T18:05:36Z</time>
      </trkpt>
      <trkpt lat="45.36719" lon="2.9716">
        <ele>1205</ele>
        <time>2025-06-06T18:06:16Z</time>
      </trkpt>
      <trkpt lat="45.36592" lon="2.97063">
        <ele>1209</ele>
        <time>2025-06-06T18:06:50Z</time>
      </trkpt>
      <trkpt lat="45.36536" lon="2.97048">
        <ele>1211</ele>
        <time>2025-06-06T18:07:03Z</time>
      </trkpt>
      <trkpt lat="45.36454" lon="2.96967">
        <ele>1219</ele>
        <time>2025-06-06T18:07:26Z</time>
      </trkpt>
      <trkpt lat="45.36404" lon="2.96937">
        <ele>1222</ele>
        <time>2025-06-06T18:07:39Z</time>
      </trkpt>
      <trkpt lat="45.36305" lon="2.96988">
        <ele>1224</ele>
        <time>2025-06-06T18:08:04Z</time>
      </trkpt>
      <trkpt lat="45.36252" lon="2.97056">
        <ele>1231</ele>
        <time>2025-06-06T18:08:20Z</time>
      </trkpt>
      <trkpt lat="45.36107" lon="2.96901">
        <ele>1249</ele>
        <time>2025-06-06T18:09:03Z</time>
      </trkpt>
      <trkpt lat="45.3609" lon="2.96713">
        <ele>1238</ele>
        <time>2025-06-06T18:09:34Z</time>
      </trkpt>
      <trkpt lat="45.36034" lon="2.96597">
        <ele>1243</ele>
        <time>2025-06-06T18:09:57Z</time>
      </trkpt>
      <trkpt lat="45.35998" lon="2.96492">
        <ele>1249</ele>
        <time>2025-06-06T18:10:16Z</time>
      </trkpt>
      <trkpt lat="45.35961" lon="2.96421">
        <ele>1252</ele>
        <time>2025-06-06T18:10:31Z</time>
      </trkpt>
      <trkpt lat="45.35899" lon="2.96235">
        <ele>1244</ele>
        <time>2025-06-06T18:11:04Z</time>
      </trkpt>
      <trkpt lat="45.35833" lon="2.96286">
        <ele>1237</ele>
        <time>2025-06-06T18:11:22Z</time>
      </trkpt>
      <trkpt lat="45.35663" lon="2.96137">
        <ele>1232</ele>
        <time>2025-06-06T18:12:09Z</time>
      </trkpt>
      <trkpt lat="45.35533" lon="2.95892">
        <ele>1232</ele>
        <time>2025-06-06T18:12:59Z</time>
      </trkpt>
      <trkpt lat="45.353" lon="2.95511">
        <ele>1237</ele>
        <time>2025-06-06T18:14:22Z</time>
      </trkpt>
      <trkpt lat="45.35292" lon="2.95393">
        <ele>1237</ele>
        <time>2025-06-06T18:14:41Z</time>
      </trkpt>
      <trkpt lat="45.35254" lon="2.95344">
        <ele>1240</ele>
        <time>2025-06-06T18:14:53Z</time>
      </trkpt>
      <trkpt lat="45.3526" lon="2.95257">
        <ele>1239</ele>
        <time>2025-06-06T18:15:08Z</time>
      </trkpt>
      <trkpt lat="45.35145" lon="2.95107">
        <ele>1245</ele>
        <time>2025-06-06T18:15:44Z</time>
      </trkpt>
      <trkpt lat="45.35085" lon="2.95087">
        <ele>1252</ele>
        <time>2025-06-06T18:15:58Z</time>
      </trkpt>
      <trkpt lat="45.34917" lon="2.94894">
        <ele>1263</ele>
        <time>2025-06-06T18:16:49Z</time>
      </trkpt>
      <trkpt lat="45.34861" lon="2.9482">
        <ele>1263</ele>
        <time>2025-06-06T18:17:07Z</time>
      </trkpt>
      <trkpt lat="45.34554" lon="2.94696">
        <ele>1275</ele>
        <time>2025-06-06T18:18:21Z</time>
      </trkpt>
      <trkpt lat="45.34386" lon="2.94573">
        <ele>1275</ele>
        <time>2025-06-06T18:19:05Z</time>
      </trkpt>
      <trkpt lat="45.34309" lon="2.94581">
        <ele>1282</ele>
        <time>2025-06-06T18:19:23Z</time>
      </trkpt>
      <trkpt lat="45.34231" lon="2.94507">
        <ele>1282</ele>
        <time>2025-06-06T18:19:45Z</time>
      </trkpt>
      <trkpt lat="45.3417" lon="2.94484">
        <ele>1287</ele>
        <time>2025-06-06T18:20:00Z</time>
      </trkpt>
      <trkpt lat="45.34105" lon="2.9442">
        <ele>1287</ele>
        <time>2025-06-06T18:20:18Z</time>
      </trkpt>
      <trkpt lat="45.34081" lon="2.94324">
        <ele>1285</ele>
        <time>2025-06-06T18:20:35Z</time>
      </trkpt>
      <trkpt lat="45.34034" lon="2.94294">
        <ele>1289</ele>
        <time>2025-06-06T18:20:47Z</time>
      </trkpt>
      <trkpt lat="45.34" lon="2.94297">
        <ele>1291</ele>
        <time>2025-06-06T18:20:55Z</time>
      </trkpt>
      <trkpt lat="45.33989" lon="2.94217">
        <ele>1290</ele>
        <time>2025-06-06T18:21:09Z</time>
      </trkpt>
      <trkpt lat="45.33823" lon="2.9416">
        <ele>1297</ele>
        <time>2025-06-06T18:21:48Z</time>
      </trkpt>
      <trkpt lat="45.33854" lon="2.94267">
        <ele>1302</ele>
        <time>2025-06-06T18:22:07Z</time>
      </trkpt>
      <trkpt lat="45.33843" lon="2.94359">
        <ele>1309</ele>
        <time>2025-06-06T18:22:23Z</time>
      </trkpt>
      <trkpt lat="45.338" lon="2.94404">
        <ele>1317</ele>
        <time>2025-06-06T18:22:35Z</time>
      </trkpt>
      <trkpt lat="45.33687" lon="2.94399">
        <ele>1331</ele>
        <time>2025-06-06T18:23:02Z</time>
      </trkpt>
      <trkpt lat="45.336" lon="2.9436">
        <ele>1335</ele>
        <time>2025-06-06T18:23:23Z</time>
      </trkpt>
      <trkpt lat="45.33514" lon="2.94359">
        <ele>1352</ele>
        <time>2025-06-06T18:23:43Z</time>
      </trkpt>
      <trkpt lat="45.33467" lon="2.94276">
        <ele>1347</ele>
        <time>2025-06-06T18:24:00Z</time>
      </trkpt>
      <trkpt lat="45.33373" lon="2.94281">
        <ele>1358</ele>
        <time>2025-06-06T18:24:22Z</time>
      </trkpt>
      <trkpt lat="45.3324" lon="2.94375">
        <ele>1369</ele>
        <time>2025-06-06T18:24:57Z</time>
      </trkpt>
      <trkpt lat="45.33197" lon="2.94467">
        <ele>1382</ele>
        <time>2025-06-06T18:25:15Z</time>
      </trkpt>
      <trkpt lat="45.33014" lon="2.94602">
        <ele>1401</ele>
        <time>2025-06-06T18:26:03Z</time>
      </trkpt>
      <trkpt lat="45.32914" lon="2.94745">
        <ele>1414</ele>
        <time>2025-06-06T18:26:37Z</time>
      </trkpt>
      <trkpt lat="45.32818" lon="2.94941">
        <ele>1434</ele>
        <time>2025-06-06T18:27:16Z</time>
      </trkpt>
      <trkpt lat="45.32686" lon="2.94943">
        <ele>1439</ele>
        <time>2025-06-06T18:27:47Z</time>
      </trkpt>
      <trkpt lat="45.32622" lon="2.94892">
        <ele>1440</ele>
        <time>2025-06-06T18:28:04Z</time>
      </trkpt>
      <trkpt lat="45.32123" lon="2.94953">
        <ele>1458</ele>
        <time>2025-06-06T18:30:01Z</time>
      </trkpt>
      <trkpt lat="45.3204" lon="2.94926">
        <ele>1454</ele>
        <time>2025-06-06T18:30:21Z</time>
      </trkpt>
      <trkpt lat="45.31966" lon="2.9496">
        <ele>1448</ele>
        <time>2025-06-06T18:30:39Z</time>
      </trkpt>
      <trkpt lat="45.31936" lon="2.95024">
        <ele>1444</ele>
        <time>2025-06-06T18:30:51Z</time>
      </trkpt>
      <trkpt lat="45.31978" lon="2.95193">
        <ele>1446</ele>
        <time>2025-06-06T18:31:21Z</time>
      </trkpt>
      <trkpt lat="45.31962" lon="2.95241">
        <ele>1442</ele>
        <time>2025-06-06T18:31:29Z</time>
      </trkpt>
      <trkpt lat="45.31876" lon="2.95275">
        <ele>1433</ele>
        <time>2025-06-06T18:31:50Z</time>
      </trkpt>
      <trkpt lat="45.31847" lon="2.95358">
        <ele>1430</ele>
        <time>2025-06-06T18:32:06Z</time>
      </trkpt>
      <trkpt lat="45.31826" lon="2.95434">
        <ele>1429</ele>
        <time>2025-06-06T18:32:19Z</time>
      </trkpt>
      <trkpt lat="45.31759" lon="2.95417">
        <ele>1424</ele>
        <time>2025-06-06T18:32:35Z</time>
      </trkpt>
      <trkpt lat="45.3155" lon="2.95316">
        <ele>1409</ele>
        <time>2025-06-06T18:33:26Z</time>
      </trkpt>
      <trkpt lat="45.3149" lon="2.95274">
        <ele>1403</ele>
        <time>2025-06-06T18:33:42Z</time>
      </trkpt>
      <trkpt lat="45.31395" lon="2.95263">
        <ele>1396</ele>
        <time>2025-06-06T18:34:04Z</time>
      </trkpt>
      <trkpt lat="45.31366" lon="2.9532">
        <ele>1394</ele>
        <time>2025-06-06T18:34:16Z</time>
      </trkpt>
      <trkpt lat="45.31345" lon="2.95317">
        <ele>1392</ele>
        <time>2025-06-06T18:34:21Z</time>
      </trkpt>
      <trkpt lat="45.31323" lon="2.95269">
        <ele>1390</ele>
        <time>2025-06-06T18:34:30Z</time>
      </trkpt>
      <trkpt lat="45.3131" lon="2.95211">
        <ele>1387</ele>
        <time>2025-06-06T18:34:40Z</time>
      </trkpt>
      <trkpt lat="45.31249" lon="2.95169">
        <ele>1383</ele>
        <time>2025-06-06T18:34:56Z</time>
      </trkpt>
      <trkpt lat="45.3113" lon="2.95171">
        <ele>1377</ele>
        <time>2025-06-06T18:35:24Z</time>
      </trkpt>
      <trkpt lat="45.31095" lon="2.95094">
        <ele>1373</ele>
        <time>2025-06-06T18:35:39Z</time>
      </trkpt>
      <trkpt lat="45.30863" lon="2.94879">
        <ele>1370</ele>
        <time>2025-06-06T18:36:44Z</time>
      </trkpt>
      <trkpt lat="45.30686" lon="2.94528">
        <ele>1383</ele>
        <time>2025-06-06T18:37:54Z</time>
      </trkpt>
      <trkpt lat="45.30649" lon="2.94481">
        <ele>1386</ele>
        <time>2025-06-06T18:38:06Z</time>
      </trkpt>
      <trkpt lat="45.30612" lon="2.94387">
        <ele>1388</ele>
        <time>2025-06-06T18:38:24Z</time>
      </trkpt>
      <trkpt lat="45.30259" lon="2.93814">
        <ele>1378</ele>
        <time>2025-06-06T18:40:29Z</time>
      </trkpt>
      <trkpt lat="45.30103" lon="2.93652">
        <ele>1357</ele>
        <time>2025-06-06T18:41:14Z</time>
      </trkpt>
      <trkpt lat="45.30031" lon="2.93632">
        <ele>1356</ele>
        <time>2025-06-06T18:41:31Z</time>
      </trkpt>
      <trkpt lat="45.29892" lon="2.93632">
        <ele>1353</ele>
        <time>2025-06-06T18:42:04Z</time>
      </trkpt>
      <trkpt lat="45.29265" lon="2.93906">
        <ele>1302</ele>
        <time>2025-06-06T18:44:37Z</time>
      </trkpt>
      <trkpt lat="45.29133" lon="2.93932">
        <ele>1294</ele>
        <time>2025-06-06T18:45:08Z</time>
      </trkpt>
      <trkpt lat="45.28882" lon="2.9395">
        <ele>1294</ele>
        <time>2025-06-06T18:46:07Z</time>
      </trkpt>
      <trkpt lat="45.28609" lon="2.94003">
        <ele>1286</ele>
        <time>2025-06-06T18:47:11Z</time>
      </trkpt>
      <trkpt lat="45.27931" lon="2.94257">
        <ele>1278</ele>
        <time>2025-06-06T18:49:55Z</time>
      </trkpt>
      <trkpt lat="45.27766" lon="2.94052">
        <ele>1271</ele>
        <time>2025-06-06T18:50:46Z</time>
      </trkpt>
      <trkpt lat="45.27669" lon="2.94001">
        <ele>1266</ele>
        <time>2025-06-06T18:51:10Z</time>
      </trkpt>
      <trkpt lat="45.27501" lon="2.93729">
        <ele>1252</ele>
        <time>2025-06-06T18:52:09Z</time>
      </trkpt>
      <trkpt lat="45.27442" lon="2.9357">
        <ele>1246</ele>
        <time>2025-06-06T18:52:39Z</time>
      </trkpt>
      <trkpt lat="45.27375" lon="2.935">
        <ele>1243</ele>
        <time>2025-06-06T18:52:58Z</time>
      </trkpt>
      <trkpt lat="45.27341" lon="2.93374">
        <ele>1236</ele>
        <time>2025-06-06T18:53:21Z</time>
      </trkpt>
      <trkpt lat="45.27313" lon="2.93333">
        <ele>1235</ele>
        <time>2025-06-06T18:53:30Z</time>
      </trkpt>
      <trkpt lat="45.27263" lon="2.93186">
        <ele>1227</ele>
        <time>2025-06-06T18:53:57Z</time>
      </trkpt>
      <trkpt lat="45.27262" lon="2.93087">
        <ele>1223</ele>
        <time>2025-06-06T18:54:13Z</time>
      </trkpt>
      <trkpt lat="45.27234" lon="2.92929">
        <ele>1218</ele>
        <time>2025-06-06T18:54:40Z</time>
      </trkpt>
      <trkpt lat="45.27246" lon="2.92774">
        <ele>1202</ele>
        <time>2025-06-06T18:55:05Z</time>
      </trkpt>
      <trkpt lat="45.27208" lon="2.92681">
        <ele>1194</ele>
        <time>2025-06-06T18:55:23Z</time>
      </trkpt>
      <trkpt lat="45.26978" lon="2.92441">
        <ele>1175</ele>
        <time>2025-06-06T18:56:30Z</time>
      </trkpt>
      <trkpt lat="45.26908" lon="2.92443">
        <ele>1175</ele>
        <time>2025-06-06T18:56:46Z</time>
      </trkpt>
      <trkpt lat="45.26847" lon="2.92468">
        <ele>1179</ele>
        <time>2025-06-06T18:57:01Z</time>
      </trkpt>
      <trkpt lat="45.26668" lon="2.92462">
        <ele>1176</ele>
        <time>2025-06-06T18:57:43Z</time>
      </trkpt>
      <trkpt lat="45.26613" lon="2.92385">
        <ele>1169</ele>
        <time>2025-06-06T18:58:01Z</time>
      </trkpt>
      <trkpt lat="45.26488" lon="2.92277">
        <ele>1160</ele>
        <time>2025-06-06T18:58:35Z</time>
      </trkpt>
      <trkpt lat="45.26429" lon="2.92135">
        <ele>1151</ele>
        <time>2025-06-06T18:59:02Z</time>
      </trkpt>
      <trkpt lat="45.26375" lon="2.92044">
        <ele>1143</ele>
        <time>2025-06-06T18:59:22Z</time>
      </trkpt>
      <trkpt lat="45.26333" lon="2.91999">
        <ele>1141</ele>
        <time>2025-06-06T18:59:34Z</time>
      </trkpt>
      <trkpt lat="45.26304" lon="2.91993">
        <ele>1139</ele>
        <time>2025-06-06T18:59:41Z</time>
      </trkpt>
      <trkpt lat="45.26254" lon="2.92037">
        <ele>1141</ele>
        <time>2025-06-06T18:59:55Z</time>
      </trkpt>
      <trkpt lat="45.26147" lon="2.92189">
        <ele>1137</ele>
        <time>2025-06-06T19:00:30Z</time>
      </trkpt>
      <trkpt lat="45.26111" lon="2.92257">
        <ele>1133</ele>
        <time>2025-06-06T19:00:44Z</time>
      </trkpt>
      <trkpt lat="45.2604" lon="2.92309">
        <ele>1127</ele>
        <time>2025-06-06T19:01:03Z</time>
      </trkpt>
      <trkpt lat="45.25982" lon="2.92302">
        <ele>1122</ele>
        <time>2025-06-06T19:01:16Z</time>
      </trkpt>
      <trkpt lat="45.25924" lon="2.92329">
        <ele>1117</ele>
        <time>2025-06-06T19:01:30Z</time>
      </trkpt>
      <trkpt lat="45.25861" lon="2.92373">
        <ele>1112</ele>
        <time>2025-06-06T19:01:47Z</time>
      </trkpt>
      <trkpt lat="45.25752" lon="2.92386">
        <ele>1104</ele>
        <time>2025-06-06T19:02:12Z</time>
      </trkpt>
      <trkpt lat="45.25705" lon="2.92416">
        <ele>1102</ele>
        <time>2025-06-06T19:02:24Z</time>
      </trkpt>
      <trkpt lat="45.25689" lon="2.92497">
        <ele>1105</ele>
        <time>2025-06-06T19:02:38Z</time>
      </trkpt>
      <trkpt lat="45.25572" lon="2.92523">
        <ele>1105</ele>
        <time>2025-06-06T19:03:06Z</time>
      </trkpt>
      <trkpt lat="45.2552" lon="2.92399">
        <ele>1094</ele>
        <time>2025-06-06T19:03:30Z</time>
      </trkpt>
      <trkpt lat="45.25417" lon="2.92225">
        <ele>1082</ele>
        <time>2025-06-06T19:04:07Z</time>
      </trkpt>
      <trkpt lat="45.25351" lon="2.92104">
        <ele>1063</ele>
        <time>2025-06-06T19:04:32Z</time>
      </trkpt>
      <trkpt lat="45.25304" lon="2.92108">
        <ele>1054</ele>
        <time>2025-06-06T19:04:43Z</time>
      </trkpt>
      <trkpt lat="45.25279" lon="2.92133">
        <ele>1052</ele>
        <time>2025-06-06T19:04:50Z</time>
      </trkpt>
      <trkpt lat="45.2524" lon="2.92165">
        <ele>1046</ele>
        <time>2025-06-06T19:05:01Z</time>
      </trkpt>
      <trkpt lat="45.2523" lon="2.92154">
        <ele>1042</ele>
        <time>2025-06-06T19:05:04Z</time>
      </trkpt>
      <trkpt lat="45.25233" lon="2.92114">
        <ele>1038</ele>
        <time>2025-06-06T19:05:10Z</time>
      </trkpt>
      <trkpt lat="45.25275" lon="2.92008">
        <ele>1033</ele>
        <time>2025-06-06T19:05:30Z</time>
      </trkpt>
      <trkpt lat="45.25259" lon="2.91946">
        <ele>1025</ele>
        <time>2025-06-06T19:05:41Z</time>
      </trkpt>
      <trkpt lat="45.25224" lon="2.91895">
        <ele>1022</ele>
        <time>2025-06-06T19:05:53Z</time>
      </trkpt>
      <trkpt lat="45.25156" lon="2.91848">
        <ele>1023</ele>
        <time>2025-06-06T19:06:11Z</time>
      </trkpt>
      <trkpt lat="45.25121" lon="2.91784">
        <ele>1028</ele>
        <time>2025-06-06T19:06:24Z</time>
      </trkpt>
      <trkpt lat="45.25084" lon="2.91706">
        <ele>1034</ele>
        <time>2025-06-06T19:06:39Z</time>
      </trkpt>
      <trkpt lat="45.25057" lon="2.91705">
        <ele>1033</ele>
        <time>2025-06-06T19:06:46Z</time>
      </trkpt>
      <trkpt lat="45.24978" lon="2.91761">
        <ele>1030</ele>
        <time>2025-06-06T19:07:06Z</time>
      </trkpt>
      <trkpt lat="45.2498" lon="2.9173">
        <ele>1030</ele>
        <time>2025-06-06T19:07:11Z</time>
      </trkpt>
      <trkpt lat="45.24972" lon="2.91704">
        <ele>1031</ele>
        <time>2025-06-06T19:07:16Z</time>
      </trkpt>
      <trkpt lat="45.24896" lon="2.91677">
        <ele>1031</ele>
        <time>2025-06-06T19:07:34Z</time>
      </trkpt>
      <trkpt lat="45.24879" lon="2.91665">
        <ele>1031</ele>
        <time>2025-06-06T19:07:39Z</time>
      </trkpt>
      <trkpt lat="45.24856" lon="2.9162">
        <ele>1034</ele>
        <time>2025-06-06T19:07:48Z</time>
      </trkpt>
      <trkpt lat="45.24846" lon="2.91582">
        <ele>1037</ele>
        <time>2025-06-06T19:07:55Z</time>
      </trkpt>
      <trkpt lat="45.24821" lon="2.91549">
        <ele>1039</ele>
        <time>2025-06-06T19:08:03Z</time>
      </trkpt>
      <trkpt lat="45.24777" lon="2.91453">
        <ele>1047</ele>
        <time>2025-06-06T19:08:21Z</time>
      </trkpt>
      <trkpt lat="45.24762" lon="2.91427">
        <ele>1048</ele>
        <time>2025-06-06T19:08:27Z</time>
      </trkpt>
      <trkpt lat="45.2475" lon="2.91388">
        <ele>1050</ele>
        <time>2025-06-06T19:08:34Z</time>
      </trkpt>
      <trkpt lat="45.24728" lon="2.91304">
        <ele>1054</ele>
        <time>2025-06-06T19:08:49Z</time>
      </trkpt>
      <trkpt lat="45.24749" lon="2.9123">
        <ele>1063</ele>
        <time>2025-06-06T19:09:02Z</time>
      </trkpt>
      <trkpt lat="45.24822" lon="2.90988">
        <ele>1075</ele>
        <time>2025-06-06T19:09:45Z</time>
      </trkpt>
      <trkpt lat="45.24855" lon="2.9092">
        <ele>1076</ele>
        <time>2025-06-06T19:09:59Z</time>
      </trkpt>
      <trkpt lat="45.24892" lon="2.90836">
        <ele>1078</ele>
        <time>2025-06-06T19:10:15Z</time>
      </trkpt>
      <trkpt lat="45.24957" lon="2.90731">
        <ele>1074</ele>
        <time>2025-06-06T19:10:38Z</time>
      </trkpt>
      <trkpt lat="45.25017" lon="2.90623">
        <ele>1069</ele>
        <time>2025-06-06T19:11:00Z</time>
      </trkpt>
      <trkpt lat="45.25049" lon="2.90535">
        <ele>1066</ele>
        <time>2025-06-06T19:11:17Z</time>
      </trkpt>
      <trkpt lat="45.25067" lon="2.90451">
        <ele>1065</ele>
        <time>2025-06-06T19:11:31Z</time>
      </trkpt>
      <trkpt lat="45.25105" lon="2.9035">
        <ele>1067</ele>
        <time>2025-06-06T19:11:50Z</time>
      </trkpt>
      <trkpt lat="45.25117" lon="2.90304">
        <ele>1068</ele>
        <time>2025-06-06T19:11:58Z</time>
      </trkpt>
      <trkpt lat="45.25174" lon="2.90141">
        <ele>1074</ele>
        <time>2025-06-06T19:12:28Z</time>
      </trkpt>
      <trkpt lat="45.25193" lon="2.9008">
        <ele>1075</ele>
        <time>2025-06-06T19:12:39Z</time>
      </trkpt>
      <trkpt lat="45.25261" lon="2.8991">
        <ele>1080</ele>
        <time>2025-06-06T19:13:11Z</time>
      </trkpt>
      <trkpt lat="45.25281" lon="2.89854">
        <ele>1081</ele>
        <time>2025-06-06T19:13:21Z</time>
      </trkpt>
      <trkpt lat="45.25349" lon="2.8973">
        <ele>1077</ele>
        <time>2025-06-06T19:13:47Z</time>
      </trkpt>
      <trkpt lat="45.25482" lon="2.8954">
        <ele>1068</ele>
        <time>2025-06-06T19:14:31Z</time>
      </trkpt>
      <trkpt lat="45.25501" lon="2.89516">
        <ele>1066</ele>
        <time>2025-06-06T19:14:37Z</time>
      </trkpt>
      <trkpt lat="45.25497" lon="2.89507">
        <ele>1065</ele>
        <time>2025-06-06T19:14:39Z</time>
      </trkpt>
      <trkpt lat="45.25457" lon="2.8952">
        <ele>1064</ele>
        <time>2025-06-06T19:14:49Z</time>
      </trkpt>
      <trkpt lat="45.25409" lon="2.8953">
        <ele>1063</ele>
        <time>2025-06-06T19:15:00Z</time>
      </trkpt>
      <trkpt lat="45.2536" lon="2.89532">
        <ele>1062</ele>
        <time>2025-06-06T19:15:11Z</time>
      </trkpt>
      <trkpt lat="45.25328" lon="2.89525">
        <ele>1061</ele>
        <time>2025-06-06T19:15:19Z</time>
      </trkpt>
      <trkpt lat="45.25288" lon="2.89522">
        <ele>1059</ele>
        <time>2025-06-06T19:15:28Z</time>
      </trkpt>
      <trkpt lat="45.25255" lon="2.89526">
        <ele>1058</ele>
        <time>2025-06-06T19:15:36Z</time>
      </trkpt>
      <trkpt lat="45.2521" lon="2.8954">
        <ele>1055</ele>
        <time>2025-06-06T19:15:47Z</time>
      </trkpt>
      <trkpt lat="45.25169" lon="2.89565">
        <ele>1055</ele>
        <time>2025-06-06T19:15:57Z</time>
      </trkpt>
      <trkpt lat="45.25047" lon="2.89616">
        <ele>1054</ele>
        <time>2025-06-06T19:16:27Z</time>
      </trkpt>
      <trkpt lat="45.24999" lon="2.89624">
        <ele>1052</ele>
        <time>2025-06-06T19:16:38Z</time>
      </trkpt>
      <trkpt lat="45.24946" lon="2.8962">
        <ele>1046</ele>
        <time>2025-06-06T19:16:51Z</time>
      </trkpt>
      <trkpt lat="45.24918" lon="2.89628">
        <ele>1045</ele>
        <time>2025-06-06T19:16:57Z</time>
      </trkpt>
      <trkpt lat="45.24908" lon="2.89643">
        <ele>1046</ele>
        <time>2025-06-06T19:17:01Z</time>
      </trkpt>
      <trkpt lat="45.24896" lon="2.89672">
        <ele>1047</ele>
        <time>2025-06-06T19:17:06Z</time>
      </trkpt>
      <trkpt lat="45.24894" lon="2.89722">
        <ele>1048</ele>
        <time>2025-06-06T19:17:14Z</time>
      </trkpt>
      <trkpt lat="45.2489" lon="2.89751">
        <ele>1048</ele>
        <time>2025-06-06T19:17:19Z</time>
      </trkpt>
      <trkpt lat="45.24852" lon="2.8987">
        <ele>1045</ele>
        <time>2025-06-06T19:17:41Z</time>
      </trkpt>
      <trkpt lat="45.24839" lon="2.89954">
        <ele>1044</ele>
        <time>2025-06-06T19:17:55Z</time>
      </trkpt>
      <trkpt lat="45.24816" lon="2.90068">
        <ele>1040</ele>
        <time>2025-06-06T19:18:14Z</time>
      </trkpt>
      <trkpt lat="45.24812" lon="2.90108">
        <ele>1038</ele>
        <time>2025-06-06T19:18:21Z</time>
      </trkpt>
      <trkpt lat="45.24815" lon="2.90148">
        <ele>1038</ele>
        <time>2025-06-06T19:18:28Z</time>
      </trkpt>
      <trkpt lat="45.24828" lon="2.90224">
        <ele>1038</ele>
        <time>2025-06-06T19:18:41Z</time>
      </trkpt>
      <trkpt lat="45.24832" lon="2.90275">
        <ele>1038</ele>
        <time>2025-06-06T19:18:49Z</time>
      </trkpt>
      <trkpt lat="45.2483" lon="2.90315">
        <ele>1038</ele>
        <time>2025-06-06T19:18:56Z</time>
      </trkpt>
      <trkpt lat="45.24813" lon="2.90363">
        <ele>1038</ele>
        <time>2025-06-06T19:19:04Z</time>
      </trkpt>
      <trkpt lat="45.24717" lon="2.90495">
        <ele>1034</ele>
        <time>2025-06-06T19:19:36Z</time>
      </trkpt>
      <trkpt lat="45.24692" lon="2.90539">
        <ele>1033</ele>
        <time>2025-06-06T19:19:45Z</time>
      </trkpt>
      <trkpt lat="45.24667" lon="2.90592">
        <ele>1032</ele>
        <time>2025-06-06T19:19:55Z</time>
      </trkpt>
      <trkpt lat="45.24636" lon="2.9067">
        <ele>1032</ele>
        <time>2025-06-06T19:20:10Z</time>
      </trkpt>
      <trkpt lat="45.2462" lon="2.90742">
        <ele>1033</ele>
        <time>2025-06-06T19:20:23Z</time>
      </trkpt>
      <trkpt lat="45.24612" lon="2.90803">
        <ele>1032</ele>
        <time>2025-06-06T19:20:33Z</time>
      </trkpt>
      <trkpt lat="45.24592" lon="2.90875">
        <ele>1028</ele>
        <time>2025-06-06T19:20:45Z</time>
      </trkpt>
      <trkpt lat="45.2455" lon="2.90967">
        <ele>1024</ele>
        <time>2025-06-06T19:21:03Z</time>
      </trkpt>
      <trkpt lat="45.24503" lon="2.91047">
        <ele>1019</ele>
        <time>2025-06-06T19:21:21Z</time>
      </trkpt>
      <trkpt lat="45.24502" lon="2.91105">
        <ele>1019</ele>
        <time>2025-06-06T19:21:30Z</time>
      </trkpt>
      <trkpt lat="45.24513" lon="2.91289">
        <ele>1017</ele>
        <time>2025-06-06T19:22:01Z</time>
      </trkpt>
      <trkpt lat="45.24526" lon="2.91345">
        <ele>1016</ele>
        <time>2025-06-06T19:22:10Z</time>
      </trkpt>
      <trkpt lat="45.24691" lon="2.91727">
        <ele>1008</ele>
        <time>2025-06-06T19:23:24Z</time>
      </trkpt>
      <trkpt lat="45.2471" lon="2.91782">
        <ele>1006</ele>
        <time>2025-06-06T19:23:34Z</time>
      </trkpt>
      <trkpt lat="45.24717" lon="2.91846">
        <ele>1006</ele>
        <time>2025-06-06T19:23:45Z</time>
      </trkpt>
      <trkpt lat="45.24709" lon="2.91905">
        <ele>1007</ele>
        <time>2025-06-06T19:23:55Z</time>
      </trkpt>
      <trkpt lat="45.24667" lon="2.91985">
        <ele>1006</ele>
        <time>2025-06-06T19:24:11Z</time>
      </trkpt>
      <trkpt lat="45.24626" lon="2.92018">
        <ele>1004</ele>
        <time>2025-06-06T19:24:22Z</time>
      </trkpt>
      <trkpt lat="45.24574" lon="2.92055">
        <ele>1001</ele>
        <time>2025-06-06T19:24:36Z</time>
      </trkpt>
      <trkpt lat="45.24509" lon="2.92115">
        <ele>999</ele>
        <time>2025-06-06T19:24:54Z</time>
      </trkpt>
      <trkpt lat="45.2448" lon="2.92151">
        <ele>998</ele>
        <time>2025-06-06T19:25:03Z</time>
      </trkpt>
      <trkpt lat="45.24464" lon="2.92188">
        <ele>998</ele>
        <time>2025-06-06T19:25:10Z</time>
      </trkpt>
      <trkpt lat="45.24449" lon="2.92252">
        <ele>997</ele>
        <time>2025-06-06T19:25:21Z</time>
      </trkpt>
      <trkpt lat="45.24417" lon="2.92356">
        <ele>994</ele>
        <time>2025-06-06T19:25:39Z</time>
      </trkpt>
      <trkpt lat="45.24377" lon="2.92431">
        <ele>993</ele>
        <time>2025-06-06T19:25:55Z</time>
      </trkpt>
      <trkpt lat="45.24231" lon="2.92631">
        <ele>989</ele>
        <time>2025-06-06T19:26:42Z</time>
      </trkpt>
      <trkpt lat="45.24043" lon="2.92898">
        <ele>986</ele>
        <time>2025-06-06T19:27:44Z</time>
      </trkpt>
      <trkpt lat="45.24029" lon="2.92902">
        <ele>986</ele>
        <time>2025-06-06T19:27:48Z</time>
      </trkpt>
      <trkpt lat="45.23993" lon="2.92842">
        <ele>987</ele>
        <time>2025-06-06T19:28:01Z</time>
      </trkpt>
      <trkpt lat="45.2396" lon="2.92765">
        <ele>984</ele>
        <time>2025-06-06T19:28:16Z</time>
      </trkpt>
      <trkpt lat="45.2392" lon="2.92779">
        <ele>983</ele>
        <time>2025-06-06T19:28:25Z</time>
      </trkpt>
      <trkpt lat="45.23812" lon="2.9285">
        <ele>981</ele>
        <time>2025-06-06T19:28:53Z</time>
      </trkpt>
      <trkpt lat="45.23764" lon="2.92888">
        <ele>981</ele>
        <time>2025-06-06T19:29:06Z</time>
      </trkpt>
      <trkpt lat="45.23724" lon="2.929">
        <ele>980</ele>
        <time>2025-06-06T19:29:15Z</time>
      </trkpt>
      <trkpt lat="45.237" lon="2.92947">
        <ele>979</ele>
        <time>2025-06-06T19:29:25Z</time>
      </trkpt>
      <trkpt lat="45.23669" lon="2.9295">
        <ele>979</ele>
        <time>2025-06-06T19:29:32Z</time>
      </trkpt>
      <trkpt lat="45.23629" lon="2.92988">
        <ele>978</ele>
        <time>2025-06-06T19:29:43Z</time>
      </trkpt>
      <trkpt lat="45.23598" lon="2.92989">
        <ele>978</ele>
        <time>2025-06-06T19:29:51Z</time>
      </trkpt>
      <trkpt lat="45.23566" lon="2.93006">
        <ele>978</ele>
        <time>2025-06-06T19:29:59Z</time>
      </trkpt>
      <trkpt lat="45.23542" lon="2.9303">
        <ele>977</ele>
        <time>2025-06-06T19:30:05Z</time>
      </trkpt>
      <trkpt lat="45.23429" lon="2.93079">
        <ele>975</ele>
        <time>2025-06-06T19:30:33Z</time>
      </trkpt>
      <trkpt lat="45.23372" lon="2.93156">
        <ele>973</ele>
        <time>2025-06-06T19:30:51Z</time>
      </trkpt>
      <trkpt lat="45.23292" lon="2.93159">
        <ele>973</ele>
        <time>2025-06-06T19:31:10Z</time>
      </trkpt>
      <trkpt lat="45.23238" lon="2.93149">
        <ele>974</ele>
        <time>2025-06-06T19:31:23Z</time>
      </trkpt>
      <trkpt lat="45.23195" lon="2.93182">
        <ele>974</ele>
        <time>2025-06-06T19:31:34Z</time>
      </trkpt>
      <trkpt lat="45.23164" lon="2.93182">
        <ele>974</ele>
        <time>2025-06-06T19:31:41Z</time>
      </trkpt>
      <trkpt lat="45.23086" lon="2.93158">
        <ele>979</ele>
        <time>2025-06-06T19:32:00Z</time>
      </trkpt>
      <trkpt lat="45.23073" lon="2.93212">
        <ele>976</ele>
        <time>2025-06-06T19:32:10Z</time>
      </trkpt>
      <trkpt lat="45.23059" lon="2.93248">
        <ele>975</ele>
        <time>2025-06-06T19:32:16Z</time>
      </trkpt>
      <trkpt lat="45.23044" lon="2.93274">
        <ele>976</ele>
        <time>2025-06-06T19:32:22Z</time>
      </trkpt>
      <trkpt lat="45.23038" lon="2.93296">
        <ele>976</ele>
        <time>2025-06-06T19:32:26Z</time>
      </trkpt>
      <trkpt lat="45.23049" lon="2.933">
        <ele>976</ele>
        <time>2025-06-06T19:32:28Z</time>
      </trkpt>
      <trkpt lat="45.23057" lon="2.93293">
        <ele>976</ele>
        <time>2025-06-06T19:32:31Z</time>
      </trkpt>
      <trkpt lat="45.23066" lon="2.93306">
        <ele>976</ele>
        <time>2025-06-06T19:32:34Z</time>
      </trkpt>
      <trkpt lat="45.23007" lon="2.93341">
        <ele>977</ele>
        <time>2025-06-06T19:32:48Z</time>
      </trkpt>
      <trkpt lat="45.22985" lon="2.93344">
        <ele>977</ele>
        <time>2025-06-06T19:32:54Z</time>
      </trkpt>
      <trkpt lat="45.22959" lon="2.93332">
        <ele>976</ele>
        <time>2025-06-06T19:33:00Z</time>
      </trkpt>
      <trkpt lat="45.22949" lon="2.93323">
        <ele>976</ele>
        <time>2025-06-06T19:33:03Z</time>
      </trkpt>
      <trkpt lat="45.22933" lon="2.93314">
        <ele>977</ele>
        <time>2025-06-06T19:33:07Z</time>
        <extensions>
          <visugpx:TrkExtension xmlns:visugpx="https://www.visugpx.com/editgpx/">
            <visugpx:etape>1</visugpx:etape>
            </visugpx:TrkExtension>
        </extensions>
      </trkpt>
      <trkpt lat="45.22884" lon="2.93321">
        <ele>977</ele>
        <time>2025-06-06T19:33:18Z</time>
      </trkpt>
      <trkpt lat="45.22866" lon="2.93327">
        <ele>977</ele>
        <time>2025-06-06T19:33:23Z</time>
      </trkpt>
      <trkpt lat="45.22838" lon="2.93315">
        <ele>978</ele>
        <time>2025-06-06T19:33:29Z</time>
      </trkpt>
      <trkpt lat="45.22817" lon="2.93321">
        <ele>978</ele>
        <time>2025-06-06T19:33:34Z</time>
      </trkpt>
      <trkpt lat="45.22798" lon="2.93331">
        <ele>977</ele>
        <time>2025-06-06T19:33:39Z</time>
      </trkpt>
      <trkpt lat="45.2279" lon="2.93338">
        <ele>977</ele>
        <time>2025-06-06T19:33:41Z</time>
      </trkpt>
      <trkpt lat="45.22789" lon="2.93349">
        <ele>977</ele>
        <time>2025-06-06T19:33:43Z</time>
      </trkpt>
      <trkpt lat="45.2278" lon="2.93368">
        <ele>977</ele>
        <time>2025-06-06T19:33:47Z</time>
      </trkpt>
      <trkpt lat="45.2277" lon="2.93364">
        <ele>976</ele>
        <time>2025-06-06T19:33:49Z</time>
      </trkpt>
      <trkpt lat="45.22761" lon="2.93374">
        <ele>976</ele>
        <time>2025-06-06T19:33:52Z</time>
      </trkpt>
      <trkpt lat="45.22753" lon="2.93392">
        <ele>976</ele>
        <time>2025-06-06T19:33:56Z</time>
      </trkpt>
      <trkpt lat="45.22746" lon="2.93349">
        <ele>976</ele>
        <time>2025-06-06T19:34:03Z</time>
      </trkpt>
      <trkpt lat="45.22738" lon="2.93342">
        <ele>976</ele>
        <time>2025-06-06T19:34:05Z</time>
      </trkpt>
      <trkpt lat="45.2272" lon="2.93346">
        <ele>976</ele>
        <time>2025-06-06T19:34:09Z</time>
      </trkpt>
      <trkpt lat="45.22687" lon="2.93345">
        <ele>975</ele>
        <time>2025-06-06T19:34:17Z</time>
      </trkpt>
      <trkpt lat="45.22646" lon="2.93353">
        <ele>975</ele>
        <time>2025-06-06T19:34:27Z</time>
      </trkpt>
      <trkpt lat="45.22602" lon="2.93358">
        <ele>975</ele>
        <time>2025-06-06T19:34:37Z</time>
      </trkpt>
      <trkpt lat="45.22539" lon="2.93359">
        <ele>975</ele>
        <time>2025-06-06T19:34:52Z</time>
      </trkpt>
      <trkpt lat="45.22515" lon="2.93344">
        <ele>975</ele>
        <time>2025-06-06T19:34:58Z</time>
      </trkpt>
      <trkpt lat="45.22434" lon="2.93284">
        <ele>977</ele>
        <time>2025-06-06T19:35:19Z</time>
      </trkpt>
      <trkpt lat="45.22414" lon="2.93276">
        <ele>977</ele>
        <time>2025-06-06T19:35:24Z</time>
      </trkpt>
      <trkpt lat="45.22379" lon="2.93256">
        <ele>979</ele>
        <time>2025-06-06T19:35:33Z</time>
      </trkpt>
      <trkpt lat="45.22351" lon="2.93224">
        <ele>979</ele>
        <time>2025-06-06T19:35:41Z</time>
      </trkpt>
      <trkpt lat="45.22294" lon="2.93177">
        <ele>978</ele>
        <time>2025-06-06T19:35:57Z</time>
      </trkpt>
      <trkpt lat="45.22273" lon="2.93148">
        <ele>979</ele>
        <time>2025-06-06T19:36:03Z</time>
      </trkpt>
      <trkpt lat="45.22259" lon="2.93122">
        <ele>980</ele>
        <time>2025-06-06T19:36:09Z</time>
      </trkpt>
      <trkpt lat="45.2225" lon="2.93097">
        <ele>981</ele>
        <time>2025-06-06T19:36:13Z</time>
      </trkpt>
      <trkpt lat="45.22223" lon="2.93131">
        <ele>982</ele>
        <time>2025-06-06T19:36:22Z</time>
      </trkpt>
      <trkpt lat="45.22156" lon="2.9324">
        <ele>978</ele>
        <time>2025-06-06T19:36:46Z</time>
      </trkpt>
      <trkpt lat="45.22145" lon="2.93237">
        <ele>979</ele>
        <time>2025-06-06T19:36:48Z</time>
      </trkpt>
      <trkpt lat="45.22068" lon="2.93165">
        <ele>988</ele>
        <time>2025-06-06T19:37:10Z</time>
      </trkpt>
      <trkpt lat="45.22044" lon="2.93151">
        <ele>989</ele>
        <time>2025-06-06T19:37:16Z</time>
      </trkpt>
      <trkpt lat="45.22025" lon="2.9317">
        <ele>988</ele>
        <time>2025-06-06T19:37:21Z</time>
      </trkpt>
      <trkpt lat="45.22006" lon="2.9324">
        <ele>982</ele>
        <time>2025-06-06T19:37:34Z</time>
      </trkpt>
      <trkpt lat="45.22" lon="2.9329">
        <ele>978</ele>
        <time>2025-06-06T19:37:42Z</time>
      </trkpt>
      <trkpt lat="45.22003" lon="2.93334">
        <ele>974</ele>
        <time>2025-06-06T19:37:49Z</time>
      </trkpt>
      <trkpt lat="45.22007" lon="2.93353">
        <ele>972</ele>
        <time>2025-06-06T19:37:52Z</time>
      </trkpt>
      <trkpt lat="45.21995" lon="2.93362">
        <ele>971</ele>
        <time>2025-06-06T19:37:56Z</time>
      </trkpt>
      <trkpt lat="45.21957" lon="2.93367">
        <ele>969</ele>
        <time>2025-06-06T19:38:05Z</time>
      </trkpt>
      <trkpt lat="45.2195" lon="2.93379">
        <ele>967</ele>
        <time>2025-06-06T19:38:07Z</time>
      </trkpt>
      <trkpt lat="45.21939" lon="2.93382">
        <ele>967</ele>
        <time>2025-06-06T19:38:10Z</time>
      </trkpt>
      <trkpt lat="45.21855" lon="2.93382">
        <ele>964</ele>
        <time>2025-06-06T19:38:29Z</time>
      </trkpt>
      <trkpt lat="45.21845" lon="2.93398">
        <ele>963</ele>
        <time>2025-06-06T19:38:33Z</time>
      </trkpt>
      <trkpt lat="45.21745" lon="2.93402">
        <ele>962</ele>
        <time>2025-06-06T19:38:56Z</time>
      </trkpt>
      <trkpt lat="45.21648" lon="2.93396">
        <ele>964</ele>
        <time>2025-06-06T19:39:19Z</time>
      </trkpt>
      <trkpt lat="45.21591" lon="2.93406">
        <ele>963</ele>
        <time>2025-06-06T19:39:32Z</time>
      </trkpt>
      <trkpt lat="45.21442" lon="2.93402">
        <ele>960</ele>
        <time>2025-06-06T19:40:07Z</time>
      </trkpt>
      <trkpt lat="45.21258" lon="2.93408">
        <ele>961</ele>
        <time>2025-06-06T19:40:50Z</time>
      </trkpt>
      <trkpt lat="45.21226" lon="2.9344">
        <ele>958</ele>
        <time>2025-06-06T19:40:59Z</time>
      </trkpt>
      <trkpt lat="45.21187" lon="2.93437">
        <ele>959</ele>
        <time>2025-06-06T19:41:08Z</time>
      </trkpt>
      <trkpt lat="45.21127" lon="2.93477">
        <ele>956</ele>
        <time>2025-06-06T19:41:24Z</time>
      </trkpt>
      <trkpt lat="45.21039" lon="2.93494">
        <ele>956</ele>
        <time>2025-06-06T19:41:45Z</time>
      </trkpt>
      <trkpt lat="45.21008" lon="2.93506">
        <ele>955</ele>
        <time>2025-06-06T19:41:52Z</time>
      </trkpt>
      <trkpt lat="45.20968" lon="2.93493">
        <ele>956</ele>
        <time>2025-06-06T19:42:02Z</time>
      </trkpt>
      <trkpt lat="45.20861" lon="2.93431">
        <ele>960</ele>
        <time>2025-06-06T19:42:29Z</time>
      </trkpt>
      <trkpt lat="45.20754" lon="2.93361">
        <ele>959</ele>
        <time>2025-06-06T19:42:56Z</time>
      </trkpt>
      <trkpt lat="45.20716" lon="2.93345">
        <ele>956</ele>
        <time>2025-06-06T19:43:05Z</time>
      </trkpt>
      <trkpt lat="45.20638" lon="2.93331">
        <ele>951</ele>
        <time>2025-06-06T19:43:24Z</time>
      </trkpt>
      <trkpt lat="45.20507" lon="2.93284">
        <ele>954</ele>
        <time>2025-06-06T19:43:55Z</time>
      </trkpt>
      <trkpt lat="45.205" lon="2.93271">
        <ele>956</ele>
        <time>2025-06-06T19:43:58Z</time>
      </trkpt>
      <trkpt lat="45.20505" lon="2.93246">
        <ele>958</ele>
        <time>2025-06-06T19:44:02Z</time>
      </trkpt>
      <trkpt lat="45.20532" lon="2.93183">
        <ele>963</ele>
        <time>2025-06-06T19:44:14Z</time>
      </trkpt>
      <trkpt lat="45.2054" lon="2.93159">
        <ele>964</ele>
        <time>2025-06-06T19:44:19Z</time>
      </trkpt>
      <trkpt lat="45.20537" lon="2.93126">
        <ele>966</ele>
        <time>2025-06-06T19:44:24Z</time>
      </trkpt>
      <trkpt lat="45.20528" lon="2.93105">
        <ele>969</ele>
        <time>2025-06-06T19:44:28Z</time>
      </trkpt>
      <trkpt lat="45.20519" lon="2.93049">
        <ele>972</ele>
        <time>2025-06-06T19:44:38Z</time>
      </trkpt>
      <trkpt lat="45.20513" lon="2.93049">
        <ele>973</ele>
        <time>2025-06-06T19:44:39Z</time>
      </trkpt>
      <trkpt lat="45.20493" lon="2.93076">
        <ele>978</ele>
        <time>2025-06-06T19:44:46Z</time>
      </trkpt>
      <trkpt lat="45.20483" lon="2.93155">
        <ele>977</ele>
        <time>2025-06-06T19:44:59Z</time>
      </trkpt>
      <trkpt lat="45.20468" lon="2.93183">
        <ele>978</ele>
        <time>2025-06-06T19:45:05Z</time>
      </trkpt>
      <trkpt lat="45.20433" lon="2.93228">
        <ele>980</ele>
        <time>2025-06-06T19:45:16Z</time>
      </trkpt>
      <trkpt lat="45.20407" lon="2.93244">
        <ele>984</ele>
        <time>2025-06-06T19:45:22Z</time>
      </trkpt>
      <trkpt lat="45.20374" lon="2.93257">
        <ele>988</ele>
        <time>2025-06-06T19:45:30Z</time>
      </trkpt>
      <trkpt lat="45.20301" lon="2.93265">
        <ele>1000</ele>
        <time>2025-06-06T19:45:47Z</time>
      </trkpt>
      <trkpt lat="45.20231" lon="2.93263">
        <ele>1013</ele>
        <time>2025-06-06T19:46:04Z</time>
      </trkpt>
      <trkpt lat="45.20116" lon="2.9325">
        <ele>1025</ele>
        <time>2025-06-06T19:46:31Z</time>
      </trkpt>
      <trkpt lat="45.20084" lon="2.93218">
        <ele>1031</ele>
        <time>2025-06-06T19:46:40Z</time>
      </trkpt>
      <trkpt lat="45.20009" lon="2.93212">
        <ele>1038</ele>
        <time>2025-06-06T19:46:57Z</time>
      </trkpt>
      <trkpt lat="45.1996" lon="2.93244">
        <ele>1038</ele>
        <time>2025-06-06T19:47:10Z</time>
      </trkpt>
      <trkpt lat="45.19792" lon="2.93319">
        <ele>1048</ele>
        <time>2025-06-06T19:47:51Z</time>
      </trkpt>
      <trkpt lat="45.19743" lon="2.93308">
        <ele>1052</ele>
        <time>2025-06-06T19:48:03Z</time>
      </trkpt>
      <trkpt lat="45.19703" lon="2.93292">
        <ele>1052</ele>
        <time>2025-06-06T19:48:12Z</time>
      </trkpt>
      <trkpt lat="45.1954" lon="2.9317">
        <ele>1056</ele>
        <time>2025-06-06T19:48:55Z</time>
      </trkpt>
      <trkpt lat="45.19428" lon="2.93127">
        <ele>1054</ele>
        <time>2025-06-06T19:49:22Z</time>
      </trkpt>
      <trkpt lat="45.19378" lon="2.93104">
        <ele>1052</ele>
        <time>2025-06-06T19:49:35Z</time>
      </trkpt>
      <trkpt lat="45.19226" lon="2.93022">
        <ele>1045</ele>
        <time>2025-06-06T19:50:13Z</time>
      </trkpt>
      <trkpt lat="45.19147" lon="2.92997">
        <ele>1041</ele>
        <time>2025-06-06T19:50:32Z</time>
      </trkpt>
      <trkpt lat="45.19089" lon="2.92989">
        <ele>1039</ele>
        <time>2025-06-06T19:50:45Z</time>
      </trkpt>
      <trkpt lat="45.19068" lon="2.92989">
        <ele>1040</ele>
        <time>2025-06-06T19:50:50Z</time>
      </trkpt>
      <trkpt lat="45.19061" lon="2.92993">
        <ele>1040</ele>
        <time>2025-06-06T19:50:52Z</time>
      </trkpt>
      <trkpt lat="45.19056" lon="2.93002">
        <ele>1040</ele>
        <time>2025-06-06T19:50:54Z</time>
      </trkpt>
      <trkpt lat="45.19042" lon="2.9304">
        <ele>1043</ele>
        <time>2025-06-06T19:51:01Z</time>
      </trkpt>
      <trkpt lat="45.1905" lon="2.93052">
        <ele>1042</ele>
        <time>2025-06-06T19:51:04Z</time>
      </trkpt>
      <trkpt lat="45.19064" lon="2.93093">
        <ele>1041</ele>
        <time>2025-06-06T19:51:11Z</time>
      </trkpt>
      <trkpt lat="45.19066" lon="2.93146">
        <ele>1042</ele>
        <time>2025-06-06T19:51:20Z</time>
      </trkpt>
      <trkpt lat="45.19064" lon="2.93263">
        <ele>1046</ele>
        <time>2025-06-06T19:51:39Z</time>
      </trkpt>
      <trkpt lat="45.19066" lon="2.93296">
        <ele>1048</ele>
        <time>2025-06-06T19:51:45Z</time>
      </trkpt>
      <trkpt lat="45.1908" lon="2.93362">
        <ele>1050</ele>
        <time>2025-06-06T19:51:56Z</time>
      </trkpt>
      <trkpt lat="45.19105" lon="2.93448">
        <ele>1051</ele>
        <time>2025-06-06T19:52:11Z</time>
      </trkpt>
      <trkpt lat="45.19129" lon="2.9352">
        <ele>1051</ele>
        <time>2025-06-06T19:52:24Z</time>
      </trkpt>
      <trkpt lat="45.19197" lon="2.93643">
        <ele>1056</ele>
        <time>2025-06-06T19:52:50Z</time>
      </trkpt>
      <trkpt lat="45.19209" lon="2.93699">
        <ele>1060</ele>
        <time>2025-06-06T19:53:00Z</time>
      </trkpt>
      <trkpt lat="45.19211" lon="2.93752">
        <ele>1063</ele>
        <time>2025-06-06T19:53:08Z</time>
      </trkpt>
      <trkpt lat="45.19201" lon="2.93842">
        <ele>1064</ele>
        <time>2025-06-06T19:53:23Z</time>
      </trkpt>
      <trkpt lat="45.19191" lon="2.93875">
        <ele>1064</ele>
        <time>2025-06-06T19:53:29Z</time>
      </trkpt>
      <trkpt lat="45.19166" lon="2.93927">
        <ele>1065</ele>
        <time>2025-06-06T19:53:40Z</time>
      </trkpt>
      <trkpt lat="45.19101" lon="2.9403">
        <ele>1069</ele>
        <time>2025-06-06T19:54:02Z</time>
      </trkpt>
      <trkpt lat="45.19075" lon="2.94052">
        <ele>1069</ele>
        <time>2025-06-06T19:54:09Z</time>
      </trkpt>
      <trkpt lat="45.19039" lon="2.94094">
        <ele>1067</ele>
        <time>2025-06-06T19:54:20Z</time>
      </trkpt>
      <trkpt lat="45.19009" lon="2.94123">
        <ele>1066</ele>
        <time>2025-06-06T19:54:29Z</time>
      </trkpt>
      <trkpt lat="45.18979" lon="2.94142">
        <ele>1066</ele>
        <time>2025-06-06T19:54:37Z</time>
      </trkpt>
      <trkpt lat="45.18917" lon="2.94171">
        <ele>1065</ele>
        <time>2025-06-06T19:54:52Z</time>
      </trkpt>
      <trkpt lat="45.18773" lon="2.94214">
        <ele>1070</ele>
        <time>2025-06-06T19:55:26Z</time>
      </trkpt>
      <trkpt lat="45.18681" lon="2.94293">
        <ele>1073</ele>
        <time>2025-06-06T19:55:51Z</time>
      </trkpt>
      <trkpt lat="45.18662" lon="2.94299">
        <ele>1073</ele>
        <time>2025-06-06T19:55:56Z</time>
      </trkpt>
      <trkpt lat="45.18639" lon="2.94298">
        <ele>1074</ele>
        <time>2025-06-06T19:56:01Z</time>
      </trkpt>
      <trkpt lat="45.18505" lon="2.9427">
        <ele>1078</ele>
        <time>2025-06-06T19:56:33Z</time>
      </trkpt>
      <trkpt lat="45.1847" lon="2.94277">
        <ele>1075</ele>
        <time>2025-06-06T19:56:41Z</time>
      </trkpt>
      <trkpt lat="45.18451" lon="2.94271">
        <ele>1074</ele>
        <time>2025-06-06T19:56:46Z</time>
      </trkpt>
      <trkpt lat="45.18422" lon="2.94255">
        <ele>1072</ele>
        <time>2025-06-06T19:56:53Z</time>
      </trkpt>
      <trkpt lat="45.18387" lon="2.94244">
        <ele>1070</ele>
        <time>2025-06-06T19:57:01Z</time>
      </trkpt>
      <trkpt lat="45.18308" lon="2.94165">
        <ele>1064</ele>
        <time>2025-06-06T19:57:24Z</time>
      </trkpt>
      <trkpt lat="45.18281" lon="2.94103">
        <ele>1060</ele>
        <time>2025-06-06T19:57:36Z</time>
      </trkpt>
      <trkpt lat="45.18256" lon="2.94024">
        <ele>1057</ele>
        <time>2025-06-06T19:57:50Z</time>
      </trkpt>
      <trkpt lat="45.18249" lon="2.93924">
        <ele>1053</ele>
        <time>2025-06-06T19:58:07Z</time>
      </trkpt>
      <trkpt lat="45.18239" lon="2.9383">
        <ele>1053</ele>
        <time>2025-06-06T19:58:22Z</time>
      </trkpt>
      <trkpt lat="45.18228" lon="2.93758">
        <ele>1054</ele>
        <time>2025-06-06T19:58:34Z</time>
      </trkpt>
      <trkpt lat="45.18206" lon="2.93717">
        <ele>1053</ele>
        <time>2025-06-06T19:58:43Z</time>
      </trkpt>
      <trkpt lat="45.18193" lon="2.93679">
        <ele>1054</ele>
        <time>2025-06-06T19:58:50Z</time>
      </trkpt>
      <trkpt lat="45.18183" lon="2.93668">
        <ele>1054</ele>
        <time>2025-06-06T19:58:53Z</time>
      </trkpt>
      <trkpt lat="45.18152" lon="2.93658">
        <ele>1053</ele>
        <time>2025-06-06T19:59:00Z</time>
      </trkpt>
      <trkpt lat="45.18097" lon="2.93618">
        <ele>1055</ele>
        <time>2025-06-06T19:59:15Z</time>
      </trkpt>
      <trkpt lat="45.18075" lon="2.93593">
        <ele>1055</ele>
        <time>2025-06-06T19:59:21Z</time>
      </trkpt>
      <trkpt lat="45.17992" lon="2.93545">
        <ele>1054</ele>
        <time>2025-06-06T19:59:42Z</time>
      </trkpt>
      <trkpt lat="45.18002" lon="2.93535">
        <ele>1054</ele>
        <time>2025-06-06T19:59:45Z</time>
      </trkpt>
      <trkpt lat="45.18054" lon="2.93497">
        <ele>1054</ele>
        <time>2025-06-06T19:59:59Z</time>
      </trkpt>
      <trkpt lat="45.18065" lon="2.93479">
        <ele>1054</ele>
        <time>2025-06-06T20:00:03Z</time>
      </trkpt>
      <trkpt lat="45.18078" lon="2.93445">
        <ele>1053</ele>
        <time>2025-06-06T20:00:09Z</time>
      </trkpt>
      <trkpt lat="45.18096" lon="2.93376">
        <ele>1052</ele>
        <time>2025-06-06T20:00:21Z</time>
      </trkpt>
      <trkpt lat="45.18108" lon="2.9335">
        <ele>1053</ele>
        <time>2025-06-06T20:00:26Z</time>
      </trkpt>
      <trkpt lat="45.18108" lon="2.9334">
        <ele>1053</ele>
        <time>2025-06-06T20:00:28Z</time>
      </trkpt>
      <trkpt lat="45.18102" lon="2.93338">
        <ele>1053</ele>
        <time>2025-06-06T20:00:29Z</time>
      </trkpt>
      <trkpt lat="45.18056" lon="2.93394">
        <ele>1049</ele>
        <time>2025-06-06T20:00:43Z</time>
      </trkpt>
      <trkpt lat="45.18039" lon="2.93406">
        <ele>1048</ele>
        <time>2025-06-06T20:00:48Z</time>
      </trkpt>
      <trkpt lat="45.18019" lon="2.93414">
        <ele>1047</ele>
        <time>2025-06-06T20:00:53Z</time>
      </trkpt>
      <trkpt lat="45.17995" lon="2.9341">
        <ele>1045</ele>
        <time>2025-06-06T20:00:58Z</time>
      </trkpt>
      <trkpt lat="45.18023" lon="2.93366">
        <ele>1044</ele>
        <time>2025-06-06T20:01:08Z</time>
      </trkpt>
      <trkpt lat="45.1804" lon="2.93322">
        <ele>1044</ele>
        <time>2025-06-06T20:01:16Z</time>
      </trkpt>
      <trkpt lat="45.1804" lon="2.93264">
        <ele>1042</ele>
        <time>2025-06-06T20:01:26Z</time>
      </trkpt>
      <trkpt lat="45.18037" lon="2.93208">
        <ele>1039</ele>
        <time>2025-06-06T20:01:35Z</time>
      </trkpt>
      <trkpt lat="45.18028" lon="2.9318">
        <ele>1037</ele>
        <time>2025-06-06T20:01:40Z</time>
      </trkpt>
      <trkpt lat="45.18006" lon="2.93142">
        <ele>1035</ele>
        <time>2025-06-06T20:01:48Z</time>
      </trkpt>
      <trkpt lat="45.17937" lon="2.93073">
        <ele>1028</ele>
        <time>2025-06-06T20:02:08Z</time>
      </trkpt>
      <trkpt lat="45.17911" lon="2.93042">
        <ele>1026</ele>
        <time>2025-06-06T20:02:16Z</time>
      </trkpt>
      <trkpt lat="45.17898" lon="2.93019">
        <ele>1026</ele>
        <time>2025-06-06T20:02:21Z</time>
      </trkpt>
      <trkpt lat="45.17884" lon="2.92972">
        <ele>1027</ele>
        <time>2025-06-06T20:02:29Z</time>
      </trkpt>
      <trkpt lat="45.17845" lon="2.92913">
        <ele>1026</ele>
        <time>2025-06-06T20:02:43Z</time>
      </trkpt>
      <trkpt lat="45.17825" lon="2.92894">
        <ele>1028</ele>
        <time>2025-06-06T20:02:48Z</time>
      </trkpt>
      <trkpt lat="45.17769" lon="2.92743">
        <ele>1033</ele>
        <time>2025-06-06T20:03:16Z</time>
      </trkpt>
      <trkpt lat="45.17759" lon="2.92727">
        <ele>1032</ele>
        <time>2025-06-06T20:03:20Z</time>
      </trkpt>
      <trkpt lat="45.17709" lon="2.9269">
        <ele>1043</ele>
        <time>2025-06-06T20:03:33Z</time>
      </trkpt>
      <trkpt lat="45.17698" lon="2.92642">
        <ele>1044</ele>
        <time>2025-06-06T20:03:41Z</time>
      </trkpt>
      <trkpt lat="45.17658" lon="2.92514">
        <ele>1049</ele>
        <time>2025-06-06T20:04:04Z</time>
      </trkpt>
      <trkpt lat="45.17652" lon="2.92451">
        <ele>1048</ele>
        <time>2025-06-06T20:04:15Z</time>
      </trkpt>
      <trkpt lat="45.1761" lon="2.92311">
        <ele>1062</ele>
        <time>2025-06-06T20:04:40Z</time>
      </trkpt>
      <trkpt lat="45.1761" lon="2.92252">
        <ele>1062</ele>
        <time>2025-06-06T20:04:49Z</time>
      </trkpt>
      <trkpt lat="45.17622" lon="2.92183">
        <ele>1057</ele>
        <time>2025-06-06T20:05:01Z</time>
      </trkpt>
      <trkpt lat="45.17634" lon="2.92008">
        <ele>1057</ele>
        <time>2025-06-06T20:05:30Z</time>
      </trkpt>
      <trkpt lat="45.17578" lon="2.91749">
        <ele>1061</ele>
        <time>2025-06-06T20:06:15Z</time>
      </trkpt>
      <trkpt lat="45.17467" lon="2.91642">
        <ele>1074</ele>
        <time>2025-06-06T20:06:46Z</time>
      </trkpt>
      <trkpt lat="45.17416" lon="2.91566">
        <ele>1079</ele>
        <time>2025-06-06T20:07:03Z</time>
      </trkpt>
      <trkpt lat="45.17383" lon="2.91549">
        <ele>1082</ele>
        <time>2025-06-06T20:07:12Z</time>
      </trkpt>
      <trkpt lat="45.17342" lon="2.9155">
        <ele>1088</ele>
        <time>2025-06-06T20:07:21Z</time>
      </trkpt>
      <trkpt lat="45.17288" lon="2.916">
        <ele>1097</ele>
        <time>2025-06-06T20:07:36Z</time>
      </trkpt>
      <trkpt lat="45.17306" lon="2.9182">
        <ele>1108</ele>
        <time>2025-06-06T20:08:13Z</time>
      </trkpt>
      <trkpt lat="45.17195" lon="2.91853">
        <ele>1113</ele>
        <time>2025-06-06T20:08:39Z</time>
      </trkpt>
      <trkpt lat="45.17163" lon="2.91838">
        <ele>1113</ele>
        <time>2025-06-06T20:08:47Z</time>
      </trkpt>
      <trkpt lat="45.17131" lon="2.9181">
        <ele>1115</ele>
        <time>2025-06-06T20:08:56Z</time>
      </trkpt>
      <trkpt lat="45.17079" lon="2.91722">
        <ele>1114</ele>
        <time>2025-06-06T20:09:15Z</time>
      </trkpt>
      <trkpt lat="45.17051" lon="2.91664">
        <ele>1118</ele>
        <time>2025-06-06T20:09:26Z</time>
      </trkpt>
      <trkpt lat="45.17009" lon="2.91587">
        <ele>1120</ele>
        <time>2025-06-06T20:09:42Z</time>
      </trkpt>
      <trkpt lat="45.16995" lon="2.91501">
        <ele>1122</ele>
        <time>2025-06-06T20:09:57Z</time>
      </trkpt>
      <trkpt lat="45.16965" lon="2.91435">
        <ele>1124</ele>
        <time>2025-06-06T20:10:10Z</time>
      </trkpt>
      <trkpt lat="45.1691" lon="2.9139">
        <ele>1131</ele>
        <time>2025-06-06T20:10:25Z</time>
      </trkpt>
      <trkpt lat="45.16834" lon="2.91284">
        <ele>1140</ele>
        <time>2025-06-06T20:10:49Z</time>
      </trkpt>
      <trkpt lat="45.16632" lon="2.91261">
        <ele>1140</ele>
        <time>2025-06-06T20:11:37Z</time>
      </trkpt>
      <trkpt lat="45.16531" lon="2.91192">
        <ele>1135</ele>
        <time>2025-06-06T20:12:03Z</time>
      </trkpt>
      <trkpt lat="45.16523" lon="2.91239">
        <ele>1135</ele>
        <time>2025-06-06T20:12:11Z</time>
      </trkpt>
      <trkpt lat="45.16524" lon="2.91313">
        <ele>1137</ele>
        <time>2025-06-06T20:12:23Z</time>
      </trkpt>
      <trkpt lat="45.16521" lon="2.91348">
        <ele>1138</ele>
        <time>2025-06-06T20:12:29Z</time>
      </trkpt>
      <trkpt lat="45.16509" lon="2.91415">
        <ele>1139</ele>
        <time>2025-06-06T20:12:40Z</time>
      </trkpt>
      <trkpt lat="45.16504" lon="2.91472">
        <ele>1138</ele>
        <time>2025-06-06T20:12:50Z</time>
      </trkpt>
      <trkpt lat="45.16494" lon="2.91512">
        <ele>1138</ele>
        <time>2025-06-06T20:12:57Z</time>
      </trkpt>
      <trkpt lat="45.16487" lon="2.91601">
        <ele>1139</ele>
        <time>2025-06-06T20:13:12Z</time>
      </trkpt>
      <trkpt lat="45.16493" lon="2.91631">
        <ele>1140</ele>
        <time>2025-06-06T20:13:17Z</time>
      </trkpt>
      <trkpt lat="45.16505" lon="2.91667">
        <ele>1140</ele>
        <time>2025-06-06T20:13:23Z</time>
      </trkpt>
      <trkpt lat="45.16545" lon="2.91743">
        <ele>1141</ele>
        <time>2025-06-06T20:13:39Z</time>
      </trkpt>
      <trkpt lat="45.16554" lon="2.9177">
        <ele>1141</ele>
        <time>2025-06-06T20:13:44Z</time>
      </trkpt>
      <trkpt lat="45.16558" lon="2.91793">
        <ele>1141</ele>
        <time>2025-06-06T20:13:48Z</time>
      </trkpt>
      <trkpt lat="45.16557" lon="2.91839">
        <ele>1141</ele>
        <time>2025-06-06T20:13:55Z</time>
      </trkpt>
      <trkpt lat="45.16549" lon="2.9186">
        <ele>1141</ele>
        <time>2025-06-06T20:13:59Z</time>
      </trkpt>
      <trkpt lat="45.16524" lon="2.91906">
        <ele>1140</ele>
        <time>2025-06-06T20:14:09Z</time>
      </trkpt>
      <trkpt lat="45.16475" lon="2.91943">
        <ele>1139</ele>
        <time>2025-06-06T20:14:22Z</time>
      </trkpt>
      <trkpt lat="45.16441" lon="2.91956">
        <ele>1139</ele>
        <time>2025-06-06T20:14:30Z</time>
      </trkpt>
      <trkpt lat="45.16433" lon="2.91964">
        <ele>1139</ele>
        <time>2025-06-06T20:14:32Z</time>
      </trkpt>
      <trkpt lat="45.16426" lon="2.91974">
        <ele>1138</ele>
        <time>2025-06-06T20:14:34Z</time>
      </trkpt>
      <trkpt lat="45.1642" lon="2.91992">
        <ele>1137</ele>
        <time>2025-06-06T20:14:38Z</time>
      </trkpt>
      <trkpt lat="45.16404" lon="2.9202">
        <ele>1134</ele>
        <time>2025-06-06T20:14:44Z</time>
      </trkpt>
      <trkpt lat="45.16373" lon="2.92034">
        <ele>1134</ele>
        <time>2025-06-06T20:14:51Z</time>
      </trkpt>
      <trkpt lat="45.16311" lon="2.92076">
        <ele>1131</ele>
        <time>2025-06-06T20:15:07Z</time>
      </trkpt>
      <trkpt lat="45.16287" lon="2.92098">
        <ele>1129</ele>
        <time>2025-06-06T20:15:14Z</time>
      </trkpt>
      <trkpt lat="45.16251" lon="2.92126">
        <ele>1128</ele>
        <time>2025-06-06T20:15:24Z</time>
      </trkpt>
      <trkpt lat="45.1623" lon="2.92149">
        <ele>1126</ele>
        <time>2025-06-06T20:15:30Z</time>
      </trkpt>
      <trkpt lat="45.162" lon="2.92198">
        <ele>1122</ele>
        <time>2025-06-06T20:15:40Z</time>
      </trkpt>
      <trkpt lat="45.1615" lon="2.92301">
        <ele>1115</ele>
        <time>2025-06-06T20:16:01Z</time>
      </trkpt>
      <trkpt lat="45.16144" lon="2.92332">
        <ele>1114</ele>
        <time>2025-06-06T20:16:06Z</time>
      </trkpt>
      <trkpt lat="45.16141" lon="2.92384">
        <ele>1112</ele>
        <time>2025-06-06T20:16:15Z</time>
      </trkpt>
      <trkpt lat="45.16131" lon="2.92429">
        <ele>1110</ele>
        <time>2025-06-06T20:16:23Z</time>
      </trkpt>
      <trkpt lat="45.1613" lon="2.92504">
        <ele>1107</ele>
        <time>2025-06-06T20:16:35Z</time>
      </trkpt>
      <trkpt lat="45.16097" lon="2.92604">
        <ele>1104</ele>
        <time>2025-06-06T20:16:53Z</time>
      </trkpt>
      <trkpt lat="45.16084" lon="2.92665">
        <ele>1101</ele>
        <time>2025-06-06T20:17:04Z</time>
      </trkpt>
      <trkpt lat="45.16016" lon="2.92825">
        <ele>1095</ele>
        <time>2025-06-06T20:17:35Z</time>
      </trkpt>
      <trkpt lat="45.15971" lon="2.9296">
        <ele>1092</ele>
        <time>2025-06-06T20:17:59Z</time>
      </trkpt>
      <trkpt lat="45.15963" lon="2.92967">
        <ele>1092</ele>
        <time>2025-06-06T20:18:01Z</time>
      </trkpt>
      <trkpt lat="45.15955" lon="2.92969">
        <ele>1092</ele>
        <time>2025-06-06T20:18:03Z</time>
      </trkpt>
      <trkpt lat="45.15919" lon="2.92939">
        <ele>1094</ele>
        <time>2025-06-06T20:18:13Z</time>
      </trkpt>
      <trkpt lat="45.15889" lon="2.92924">
        <ele>1094</ele>
        <time>2025-06-06T20:18:20Z</time>
      </trkpt>
      <trkpt lat="45.15779" lon="2.92907">
        <ele>1093</ele>
        <time>2025-06-06T20:18:46Z</time>
      </trkpt>
      <trkpt lat="45.15645" lon="2.92835">
        <ele>1092</ele>
        <time>2025-06-06T20:19:20Z</time>
      </trkpt>
      <trkpt lat="45.15496" lon="2.92945">
        <ele>1082</ele>
        <time>2025-06-06T20:19:59Z</time>
      </trkpt>
      <trkpt lat="45.15511" lon="2.93151">
        <ele>1074</ele>
        <time>2025-06-06T20:20:33Z</time>
      </trkpt>
      <trkpt lat="45.15502" lon="2.93199">
        <ele>1072</ele>
        <time>2025-06-07T00:23:55Z</time>
        <extensions>
          <visugpx:TrkExtension xmlns:visugpx="https://www.visugpx.com/editgpx/">
            <visugpx:node>1</visugpx:node>
            </visugpx:TrkExtension>
        </extensions>
      </trkpt>
      <trkpt lat="45.15515" lon="2.9325">
        <ele>1070</ele>
        <time>2025-06-07T00:24:04Z</time>
      </trkpt>
      <trkpt lat="45.15511" lon="2.9331">
        <ele>1066</ele>
        <time>2025-06-07T00:24:14Z</time>
      </trkpt>
      <trkpt lat="45.15455" lon="2.9352">
        <ele>1060</ele>
        <time>2025-06-07T00:24:51Z</time>
      </trkpt>
      <trkpt lat="45.15419" lon="2.93613">
        <ele>1057</ele>
        <time>2025-06-07T00:25:08Z</time>
      </trkpt>
      <trkpt lat="45.15313" lon="2.93772">
        <ele>1047</ele>
        <time>2025-06-07T00:25:45Z</time>
      </trkpt>
      <trkpt lat="45.15289" lon="2.93788">
        <ele>1045</ele>
        <time>2025-06-07T00:25:51Z</time>
      </trkpt>
      <trkpt lat="45.15199" lon="2.93927">
        <ele>1039</ele>
        <time>2025-06-07T00:26:22Z</time>
      </trkpt>
      <trkpt lat="45.14989" lon="2.94055">
        <ele>1027</ele>
        <time>2025-06-07T00:27:15Z</time>
      </trkpt>
      <trkpt lat="45.14953" lon="2.94016">
        <ele>1026</ele>
        <time>2025-06-07T00:27:26Z</time>
      </trkpt>
      <trkpt lat="45.14929" lon="2.94013">
        <ele>1025</ele>
        <time>2025-06-07T00:27:31Z</time>
      </trkpt>
      <trkpt lat="45.1488" lon="2.94053">
        <ele>1023</ele>
        <time>2025-06-07T00:27:45Z</time>
      </trkpt>
      <trkpt lat="45.14768" lon="2.94097">
        <ele>1025</ele>
        <time>2025-06-07T00:28:12Z</time>
      </trkpt>
      <trkpt lat="45.14712" lon="2.94174">
        <ele>1023</ele>
        <time>2025-06-07T00:28:30Z</time>
      </trkpt>
      <trkpt lat="45.14688" lon="2.94236">
        <ele>1021</ele>
        <time>2025-06-07T00:28:42Z</time>
      </trkpt>
      <trkpt lat="45.14648" lon="2.94272">
        <ele>1023</ele>
        <time>2025-06-07T00:28:53Z</time>
      </trkpt>
      <trkpt lat="45.14589" lon="2.94417">
        <ele>1027</ele>
        <time>2025-06-07T00:29:20Z</time>
      </trkpt>
      <trkpt lat="45.14477" lon="2.9459">
        <ele>1026</ele>
        <time>2025-06-07T00:29:59Z</time>
      </trkpt>
      <trkpt lat="45.14269" lon="2.94464">
        <ele>1033</ele>
        <time>2025-06-07T00:30:52Z</time>
      </trkpt>
      <trkpt lat="45.14196" lon="2.94374">
        <ele>1033</ele>
        <time>2025-06-07T00:31:14Z</time>
      </trkpt>
      <trkpt lat="45.142" lon="2.94308">
        <ele>1034</ele>
        <time>2025-06-07T00:31:25Z</time>
      </trkpt>
      <trkpt lat="45.14149" lon="2.94245">
        <ele>1033</ele>
        <time>2025-06-07T00:31:41Z</time>
      </trkpt>
      <trkpt lat="45.14176" lon="2.94093">
        <ele>1036</ele>
        <time>2025-06-07T00:32:07Z</time>
      </trkpt>
      <trkpt lat="45.1418" lon="2.93996">
        <ele>1037</ele>
        <time>2025-06-07T00:32:23Z</time>
      </trkpt>
      <trkpt lat="45.14076" lon="2.93905">
        <ele>1038</ele>
        <time>2025-06-07T00:32:51Z</time>
      </trkpt>
      <trkpt lat="45.13949" lon="2.93828">
        <ele>1037</ele>
        <time>2025-06-07T00:33:24Z</time>
      </trkpt>
      <trkpt lat="45.13934" lon="2.93775">
        <ele>1038</ele>
        <time>2025-06-07T00:33:33Z</time>
      </trkpt>
      <trkpt lat="45.13931" lon="2.93711">
        <ele>1041</ele>
        <time>2025-06-07T00:33:44Z</time>
      </trkpt>
      <trkpt lat="45.13933" lon="2.93682">
        <ele>1043</ele>
        <time>2025-06-07T00:33:48Z</time>
      </trkpt>
      <trkpt lat="45.13916" lon="2.93654">
        <ele>1045</ele>
        <time>2025-06-07T00:33:55Z</time>
      </trkpt>
      <trkpt lat="45.13883" lon="2.93645">
        <ele>1045</ele>
        <time>2025-06-07T00:34:02Z</time>
      </trkpt>
      <trkpt lat="45.13864" lon="2.93654">
        <ele>1044</ele>
        <time>2025-06-07T00:34:07Z</time>
      </trkpt>
      <trkpt lat="45.13833" lon="2.93684">
        <ele>1043</ele>
        <time>2025-06-07T00:34:16Z</time>
      </trkpt>
      <trkpt lat="45.1379" lon="2.93715">
        <ele>1039</ele>
        <time>2025-06-07T00:34:27Z</time>
      </trkpt>
      <trkpt lat="45.13782" lon="2.93769">
        <ele>1037</ele>
        <time>2025-06-07T00:34:36Z</time>
      </trkpt>
      <trkpt lat="45.13782" lon="2.93789">
        <ele>1037</ele>
        <time>2025-06-07T00:34:39Z</time>
      </trkpt>
      <trkpt lat="45.13785" lon="2.93801">
        <ele>1037</ele>
        <time>2025-06-07T00:34:42Z</time>
      </trkpt>
      <trkpt lat="45.13779" lon="2.93836">
        <ele>1036</ele>
        <time>2025-06-07T00:34:47Z</time>
      </trkpt>
      <trkpt lat="45.13732" lon="2.93951">
        <ele>1035</ele>
        <time>2025-06-07T00:35:09Z</time>
      </trkpt>
      <trkpt lat="45.13704" lon="2.94173">
        <ele>1034</ele>
        <time>2025-06-07T00:35:47Z</time>
      </trkpt>
      <trkpt lat="45.13697" lon="2.94282">
        <ele>1034</ele>
        <time>2025-06-07T00:36:05Z</time>
      </trkpt>
      <trkpt lat="45.13683" lon="2.94392">
        <ele>1033</ele>
        <time>2025-06-07T00:36:23Z</time>
      </trkpt>
      <trkpt lat="45.13695" lon="2.94577">
        <ele>1028</ele>
        <time>2025-06-07T00:36:54Z</time>
      </trkpt>
      <trkpt lat="45.13673" lon="2.94676">
        <ele>1030</ele>
        <time>2025-06-07T00:37:11Z</time>
      </trkpt>
      <trkpt lat="45.13677" lon="2.94765">
        <ele>1028</ele>
        <time>2025-06-07T00:37:25Z</time>
      </trkpt>
      <trkpt lat="45.13663" lon="2.94917">
        <ele>1025</ele>
        <time>2025-06-07T00:37:51Z</time>
      </trkpt>
      <trkpt lat="45.13688" lon="2.951">
        <ele>1018</ele>
        <time>2025-06-07T00:38:21Z</time>
      </trkpt>
      <trkpt lat="45.13688" lon="2.95149">
        <ele>1016</ele>
        <time>2025-06-07T00:38:29Z</time>
      </trkpt>
      <trkpt lat="45.13652" lon="2.95212">
        <ele>1015</ele>
        <time>2025-06-07T00:38:43Z</time>
      </trkpt>
      <trkpt lat="45.13634" lon="2.95268">
        <ele>1013</ele>
        <time>2025-06-07T00:38:53Z</time>
      </trkpt>
      <trkpt lat="45.13639" lon="2.95545">
        <ele>994</ele>
        <time>2025-06-07T00:39:39Z</time>
      </trkpt>
      <trkpt lat="45.13625" lon="2.95574">
        <ele>989</ele>
        <time>2025-06-07T00:39:44Z</time>
      </trkpt>
      <trkpt lat="45.13616" lon="2.95665">
        <ele>984</ele>
        <time>2025-06-07T00:39:59Z</time>
      </trkpt>
      <trkpt lat="45.13621" lon="2.95791">
        <ele>978</ele>
        <time>2025-06-07T00:40:20Z</time>
      </trkpt>
      <trkpt lat="45.13614" lon="2.95877">
        <ele>972</ele>
        <time>2025-06-07T00:40:35Z</time>
      </trkpt>
      <trkpt lat="45.13622" lon="2.95975">
        <ele>974</ele>
        <time>2025-06-07T00:40:51Z</time>
      </trkpt>
      <trkpt lat="45.13612" lon="2.96">
        <ele>971</ele>
        <time>2025-06-07T00:40:56Z</time>
      </trkpt>
      <trkpt lat="45.13601" lon="2.96073">
        <ele>970</ele>
        <time>2025-06-07T00:41:08Z</time>
      </trkpt>
      <trkpt lat="45.13567" lon="2.96129">
        <ele>958</ele>
        <time>2025-06-07T00:41:20Z</time>
      </trkpt>
      <trkpt lat="45.13537" lon="2.96166">
        <ele>947</ele>
        <time>2025-06-07T00:41:29Z</time>
      </trkpt>
      <trkpt lat="45.13491" lon="2.96344">
        <ele>935</ele>
        <time>2025-06-07T00:42:01Z</time>
      </trkpt>
      <trkpt lat="45.1348" lon="2.96425">
        <ele>931</ele>
        <time>2025-06-07T00:42:14Z</time>
      </trkpt>
      <trkpt lat="45.13483" lon="2.96457">
        <ele>931</ele>
        <time>2025-06-07T00:42:19Z</time>
      </trkpt>
      <trkpt lat="45.13497" lon="2.96479">
        <ele>933</ele>
        <time>2025-06-07T00:42:24Z</time>
      </trkpt>
      <trkpt lat="45.13516" lon="2.9649">
        <ele>937</ele>
        <time>2025-06-07T00:42:29Z</time>
      </trkpt>
      <trkpt lat="45.13573" lon="2.96588">
        <ele>930</ele>
        <time>2025-06-07T00:42:50Z</time>
      </trkpt>
      <trkpt lat="45.13616" lon="2.96644">
        <ele>920</ele>
        <time>2025-06-07T00:43:04Z</time>
      </trkpt>
      <trkpt lat="45.13763" lon="2.9686">
        <ele>895</ele>
        <time>2025-06-07T00:43:53Z</time>
      </trkpt>
      <trkpt lat="45.13776" lon="2.96876">
        <ele>892</ele>
        <time>2025-06-07T00:43:57Z</time>
      </trkpt>
      <trkpt lat="45.13818" lon="2.96999">
        <ele>882</ele>
        <time>2025-06-07T00:44:20Z</time>
      </trkpt>
      <trkpt lat="45.13872" lon="2.9709">
        <ele>876</ele>
        <time>2025-06-07T00:44:39Z</time>
      </trkpt>
      <trkpt lat="45.13907" lon="2.97158">
        <ele>868</ele>
        <time>2025-06-07T00:44:53Z</time>
      </trkpt>
      <trkpt lat="45.13946" lon="2.97196">
        <ele>862</ele>
        <time>2025-06-07T00:45:04Z</time>
      </trkpt>
      <trkpt lat="45.14187" lon="2.97369">
        <ele>825</ele>
        <time>2025-06-07T00:46:07Z</time>
      </trkpt>
      <trkpt lat="45.14291" lon="2.97356">
        <ele>820</ele>
        <time>2025-06-07T00:46:32Z</time>
      </trkpt>
      <trkpt lat="45.14232" lon="2.97485">
        <ele>822</ele>
        <time>2025-06-07T00:46:57Z</time>
      </trkpt>
      <trkpt lat="45.14149" lon="2.97494">
        <ele>829</ele>
        <time>2025-06-07T00:47:16Z</time>
      </trkpt>
      <trkpt lat="45.14091" lon="2.97473">
        <ele>832</ele>
        <time>2025-06-07T00:47:30Z</time>
      </trkpt>
      <trkpt lat="45.13955" lon="2.97459">
        <ele>839</ele>
        <time>2025-06-07T00:48:02Z</time>
      </trkpt>
      <trkpt lat="45.13925" lon="2.97445">
        <ele>840</ele>
        <time>2025-06-07T00:48:10Z</time>
      </trkpt>
      <trkpt lat="45.13862" lon="2.97458">
        <ele>839</ele>
        <time>2025-06-07T00:48:24Z</time>
      </trkpt>
      <trkpt lat="45.13858" lon="2.97414">
        <ele>841</ele>
        <time>2025-06-07T00:48:32Z</time>
      </trkpt>
      <trkpt lat="45.13832" lon="2.97414">
        <ele>840</ele>
        <time>2025-06-07T00:48:38Z</time>
      </trkpt>
      <trkpt lat="45.13712" lon="2.97341">
        <ele>839</ele>
        <time>2025-06-07T00:49:08Z</time>
      </trkpt>
      <trkpt lat="45.13621" lon="2.97301">
        <ele>841</ele>
        <time>2025-06-07T00:49:31Z</time>
      </trkpt>
      <trkpt lat="45.13548" lon="2.97298">
        <ele>840</ele>
        <time>2025-06-07T00:49:48Z</time>
      </trkpt>
      <trkpt lat="45.13498" lon="2.9728">
        <ele>841</ele>
        <time>2025-06-07T00:50:00Z</time>
      </trkpt>
      <trkpt lat="45.1348" lon="2.97255">
        <ele>842</ele>
        <time>2025-06-07T00:50:06Z</time>
      </trkpt>
      <trkpt lat="45.13465" lon="2.97251">
        <ele>840</ele>
        <time>2025-06-07T00:50:09Z</time>
      </trkpt>
      <trkpt lat="45.13415" lon="2.97247">
        <ele>834</ele>
        <time>2025-06-07T00:50:21Z</time>
      </trkpt>
      <trkpt lat="45.13384" lon="2.9722">
        <ele>833</ele>
        <time>2025-06-07T00:50:29Z</time>
      </trkpt>
      <trkpt lat="45.13346" lon="2.96978">
        <ele>845</ele>
        <time>2025-06-07T00:51:10Z</time>
      </trkpt>
      <trkpt lat="45.13257" lon="2.96999">
        <ele>827</ele>
        <time>2025-06-07T00:51:31Z</time>
      </trkpt>
      <trkpt lat="45.13246" lon="2.9699">
        <ele>826</ele>
        <time>2025-06-07T00:51:34Z</time>
      </trkpt>
      <trkpt lat="45.13235" lon="2.96868">
        <ele>830</ele>
        <time>2025-06-07T00:51:54Z</time>
      </trkpt>
      <trkpt lat="45.13221" lon="2.96792">
        <ele>833</ele>
        <time>2025-06-07T00:52:07Z</time>
      </trkpt>
      <trkpt lat="45.1319" lon="2.96722">
        <ele>834</ele>
        <time>2025-06-07T00:52:21Z</time>
      </trkpt>
      <trkpt lat="45.13137" lon="2.96641">
        <ele>835</ele>
        <time>2025-06-07T00:52:39Z</time>
      </trkpt>
      <trkpt lat="45.13115" lon="2.96625">
        <ele>835</ele>
        <time>2025-06-07T00:52:45Z</time>
      </trkpt>
      <trkpt lat="45.13084" lon="2.96627">
        <ele>833</ele>
        <time>2025-06-07T00:52:52Z</time>
      </trkpt>
      <trkpt lat="45.13052" lon="2.96653">
        <ele>834</ele>
        <time>2025-06-07T00:53:01Z</time>
      </trkpt>
      <trkpt lat="45.1301" lon="2.96714">
        <ele>831</ele>
        <time>2025-06-07T00:53:15Z</time>
      </trkpt>
      <trkpt lat="45.12994" lon="2.9673">
        <ele>830</ele>
        <time>2025-06-07T00:53:19Z</time>
      </trkpt>
      <trkpt lat="45.12949" lon="2.96739">
        <ele>824</ele>
        <time>2025-06-07T00:53:30Z</time>
      </trkpt>
      <trkpt lat="45.12926" lon="2.96762">
        <ele>821</ele>
        <time>2025-06-07T00:53:37Z</time>
      </trkpt>
      <trkpt lat="45.12898" lon="2.9696">
        <ele>815</ele>
        <time>2025-06-07T00:54:10Z</time>
      </trkpt>
      <trkpt lat="45.12897" lon="2.97113">
        <ele>810</ele>
        <time>2025-06-07T00:54:35Z</time>
      </trkpt>
      <trkpt lat="45.12829" lon="2.97446">
        <ele>806</ele>
        <time>2025-06-07T00:55:32Z</time>
      </trkpt>
      <trkpt lat="45.12802" lon="2.97499">
        <ele>803</ele>
        <time>2025-06-07T00:55:43Z</time>
      </trkpt>
      <trkpt lat="45.12691" lon="2.97437">
        <ele>800</ele>
        <time>2025-06-07T00:56:11Z</time>
      </trkpt>
      <trkpt lat="45.12638" lon="2.97424">
        <ele>803</ele>
        <time>2025-06-07T00:56:23Z</time>
      </trkpt>
      <trkpt lat="45.12616" lon="2.97433">
        <ele>804</ele>
        <time>2025-06-07T00:56:29Z</time>
      </trkpt>
      <trkpt lat="45.1253" lon="2.97514">
        <ele>809</ele>
        <time>2025-06-07T00:56:53Z</time>
      </trkpt>
      <trkpt lat="45.12496" lon="2.97529">
        <ele>812</ele>
        <time>2025-06-07T00:57:01Z</time>
      </trkpt>
      <trkpt lat="45.12489" lon="2.97545">
        <ele>814</ele>
        <time>2025-06-07T00:57:04Z</time>
      </trkpt>
      <trkpt lat="45.12491" lon="2.97641">
        <ele>813</ele>
        <time>2025-06-07T00:57:20Z</time>
      </trkpt>
      <trkpt lat="45.1248" lon="2.97641">
        <ele>815</ele>
        <time>2025-06-07T00:57:23Z</time>
      </trkpt>
      <trkpt lat="45.12469" lon="2.97512">
        <ele>819</ele>
        <time>2025-06-07T00:57:44Z</time>
      </trkpt>
      <trkpt lat="45.1244" lon="2.9751">
        <ele>826</ele>
        <time>2025-06-07T00:57:51Z</time>
      </trkpt>
      <trkpt lat="45.12432" lon="2.97515">
        <ele>827</ele>
        <time>2025-06-07T00:57:53Z</time>
      </trkpt>
      <trkpt lat="45.12421" lon="2.97507">
        <ele>830</ele>
        <time>2025-06-07T00:57:56Z</time>
      </trkpt>
      <trkpt lat="45.12418" lon="2.97484">
        <ele>835</ele>
        <time>2025-06-07T00:58:00Z</time>
      </trkpt>
      <trkpt lat="45.12408" lon="2.97486">
        <ele>839</ele>
        <time>2025-06-07T00:58:02Z</time>
      </trkpt>
      <trkpt lat="45.12375" lon="2.97534">
        <ele>848</ele>
        <time>2025-06-07T00:58:13Z</time>
      </trkpt>
      <trkpt lat="45.12349" lon="2.97557">
        <ele>856</ele>
        <time>2025-06-07T00:58:20Z</time>
      </trkpt>
      <trkpt lat="45.1229" lon="2.97689">
        <ele>872</ele>
        <time>2025-06-07T00:58:46Z</time>
      </trkpt>
      <trkpt lat="45.12259" lon="2.97768">
        <ele>874</ele>
        <time>2025-06-07T00:59:01Z</time>
      </trkpt>
      <trkpt lat="45.12197" lon="2.97818">
        <ele>890</ele>
        <time>2025-06-07T00:59:18Z</time>
      </trkpt>
      <trkpt lat="45.12171" lon="2.97851">
        <ele>894</ele>
        <time>2025-06-07T00:59:26Z</time>
      </trkpt>
      <trkpt lat="45.12132" lon="2.97952">
        <ele>898</ele>
        <time>2025-06-07T00:59:45Z</time>
      </trkpt>
      <trkpt lat="45.12101" lon="2.98007">
        <ele>902</ele>
        <time>2025-06-07T00:59:56Z</time>
      </trkpt>
      <trkpt lat="45.12077" lon="2.98064">
        <ele>902</ele>
        <time>2025-06-07T01:00:07Z</time>
      </trkpt>
      <trkpt lat="45.12046" lon="2.98114">
        <ele>907</ele>
        <time>2025-06-07T01:00:18Z</time>
      </trkpt>
      <trkpt lat="45.12016" lon="2.98175">
        <ele>908</ele>
        <time>2025-06-07T01:00:30Z</time>
      </trkpt>
      <trkpt lat="45.12004" lon="2.98213">
        <ele>910</ele>
        <time>2025-06-07T01:00:37Z</time>
      </trkpt>
      <trkpt lat="45.11999" lon="2.98253">
        <ele>909</ele>
        <time>2025-06-07T01:00:44Z</time>
      </trkpt>
      <trkpt lat="45.12003" lon="2.98351">
        <ele>906</ele>
        <time>2025-06-07T01:01:00Z</time>
      </trkpt>
      <trkpt lat="45.11993" lon="2.9842">
        <ele>913</ele>
        <time>2025-06-07T01:01:12Z</time>
      </trkpt>
      <trkpt lat="45.11992" lon="2.9846">
        <ele>917</ele>
        <time>2025-06-07T01:01:18Z</time>
      </trkpt>
      <trkpt lat="45.12016" lon="2.98502">
        <ele>915</ele>
        <time>2025-06-07T01:01:27Z</time>
      </trkpt>
      <trkpt lat="45.12123" lon="2.98656">
        <ele>919</ele>
        <time>2025-06-07T01:02:03Z</time>
      </trkpt>
      <trkpt lat="45.12085" lon="2.98839">
        <ele>919</ele>
        <time>2025-06-07T01:02:34Z</time>
      </trkpt>
      <trkpt lat="45.12018" lon="2.98873">
        <ele>930</ele>
        <time>2025-06-07T01:02:51Z</time>
      </trkpt>
      <trkpt lat="45.11985" lon="2.98991">
        <ele>924</ele>
        <time>2025-06-07T01:03:12Z</time>
      </trkpt>
      <trkpt lat="45.11949" lon="2.99025">
        <ele>926</ele>
        <time>2025-06-07T01:03:22Z</time>
      </trkpt>
      <trkpt lat="45.11913" lon="2.99111">
        <ele>923</ele>
        <time>2025-06-07T01:03:38Z</time>
      </trkpt>
      <trkpt lat="45.11803" lon="2.99239">
        <ele>942</ele>
        <time>2025-06-07T01:04:12Z</time>
      </trkpt>
      <trkpt lat="45.11748" lon="2.99498">
        <ele>956</ele>
        <time>2025-06-07T01:04:56Z</time>
      </trkpt>
      <trkpt lat="45.11667" lon="2.99583">
        <ele>967</ele>
        <time>2025-06-07T01:05:20Z</time>
      </trkpt>
      <trkpt lat="45.11402" lon="2.99502">
        <ele>973</ele>
        <time>2025-06-07T01:06:23Z</time>
      </trkpt>
      <trkpt lat="45.11285" lon="3.0024">
        <ele>967</ele>
        <time>2025-06-07T01:08:28Z</time>
      </trkpt>
      <trkpt lat="45.1125" lon="3.00259">
        <ele>967</ele>
        <time>2025-06-07T01:08:36Z</time>
      </trkpt>
      <trkpt lat="45.11169" lon="3.00148">
        <ele>967</ele>
        <time>2025-06-07T01:09:03Z</time>
      </trkpt>
      <trkpt lat="45.10974" lon="2.99909">
        <ele>966</ele>
        <time>2025-06-07T01:10:03Z</time>
      </trkpt>
      <trkpt lat="45.10947" lon="2.99862">
        <ele>965</ele>
        <time>2025-06-07T01:10:13Z</time>
      </trkpt>
      <trkpt lat="45.10938" lon="2.99664">
        <ele>962</ele>
        <time>2025-06-07T01:10:46Z</time>
      </trkpt>
      <trkpt lat="45.10916" lon="2.99512">
        <ele>962</ele>
        <time>2025-06-07T01:11:11Z</time>
      </trkpt>
      <trkpt lat="45.10883" lon="2.99452">
        <ele>962</ele>
        <time>2025-06-07T01:11:24Z</time>
      </trkpt>
      <trkpt lat="45.10716" lon="2.99438">
        <ele>963</ele>
        <time>2025-06-07T01:12:03Z</time>
      </trkpt>
      <trkpt lat="45.10595" lon="2.99442">
        <ele>959</ele>
        <time>2025-06-07T01:12:31Z</time>
      </trkpt>
      <trkpt lat="45.10504" lon="2.99475">
        <ele>958</ele>
        <time>2025-06-07T01:12:53Z</time>
      </trkpt>
      <trkpt lat="45.1044" lon="2.99455">
        <ele>953</ele>
        <time>2025-06-07T01:13:08Z</time>
      </trkpt>
      <trkpt lat="45.104" lon="2.99449">
        <ele>951</ele>
        <time>2025-06-07T01:13:18Z</time>
      </trkpt>
      <trkpt lat="45.10378" lon="2.99422">
        <ele>952</ele>
        <time>2025-06-07T01:13:25Z</time>
      </trkpt>
      <trkpt lat="45.10392" lon="2.99324">
        <ele>954</ele>
        <time>2025-06-07T01:13:41Z</time>
      </trkpt>
      <trkpt lat="45.10423" lon="2.99274">
        <ele>953</ele>
        <time>2025-06-07T01:13:52Z</time>
      </trkpt>
      <trkpt lat="45.10392" lon="2.99233">
        <ele>954</ele>
        <time>2025-06-07T01:14:02Z</time>
      </trkpt>
      <trkpt lat="45.10357" lon="2.99223">
        <ele>955</ele>
        <time>2025-06-07T01:14:10Z</time>
      </trkpt>
      <trkpt lat="45.1028" lon="2.99242">
        <ele>958</ele>
        <time>2025-06-07T01:14:29Z</time>
      </trkpt>
      <trkpt lat="45.10215" lon="2.99241">
        <ele>959</ele>
        <time>2025-06-07T01:14:44Z</time>
      </trkpt>
      <trkpt lat="45.10087" lon="2.9919">
        <ele>956</ele>
        <time>2025-06-07T01:15:15Z</time>
      </trkpt>
      <trkpt lat="45.10027" lon="2.99201">
        <ele>953</ele>
        <time>2025-06-07T01:15:29Z</time>
      </trkpt>
      <trkpt lat="45.09861" lon="2.99207">
        <ele>948</ele>
        <time>2025-06-07T01:16:08Z</time>
      </trkpt>
      <trkpt lat="45.09816" lon="2.99179">
        <ele>947</ele>
        <time>2025-06-07T01:16:19Z</time>
      </trkpt>
      <trkpt lat="45.09748" lon="2.99108">
        <ele>947</ele>
        <time>2025-06-07T01:16:39Z</time>
      </trkpt>
      <trkpt lat="45.09627" lon="2.99028">
        <ele>952</ele>
        <time>2025-06-07T01:17:10Z</time>
      </trkpt>
      <trkpt lat="45.09541" lon="2.9894">
        <ele>960</ele>
        <time>2025-06-07T01:17:35Z</time>
      </trkpt>
      <trkpt lat="45.09501" lon="2.98927">
        <ele>960</ele>
        <time>2025-06-07T01:17:44Z</time>
      </trkpt>
      <trkpt lat="45.09422" lon="2.98859">
        <ele>965</ele>
        <time>2025-06-07T01:18:06Z</time>
      </trkpt>
      <trkpt lat="45.09346" lon="2.98804">
        <ele>968</ele>
        <time>2025-06-07T01:18:26Z</time>
      </trkpt>
      <trkpt lat="45.09312" lon="2.98804">
        <ele>965</ele>
        <time>2025-06-07T01:18:34Z</time>
      </trkpt>
      <trkpt lat="45.09294" lon="2.98851">
        <ele>962</ele>
        <time>2025-06-07T01:18:43Z</time>
      </trkpt>
      <trkpt lat="45.09232" lon="2.98812">
        <ele>957</ele>
        <time>2025-06-07T01:18:59Z</time>
      </trkpt>
      <trkpt lat="45.09219" lon="2.98786">
        <ele>957</ele>
        <time>2025-06-07T01:19:04Z</time>
      </trkpt>
      <trkpt lat="45.09219" lon="2.98786">
        <ele>957</ele>
        <time>2025-06-07T01:19:04Z</time>
        <extensions>
          <visugpx:TrkExtension xmlns:visugpx="https://www.visugpx.com/editgpx/">
            <visugpx:node>2</visugpx:node>
            </visugpx:TrkExtension>
        </extensions>
      </trkpt>
      <trkpt lat="45.09191" lon="2.98755">
        <ele>956</ele>
        <time>2025-06-07T01:19:12Z</time>
      </trkpt>
      <trkpt lat="45.09167" lon="2.98739">
        <ele>955</ele>
        <time>2025-06-07T01:19:18Z</time>
      </trkpt>
      <trkpt lat="45.09143" lon="2.98778">
        <ele>956</ele>
        <time>2025-06-07T01:19:27Z</time>
      </trkpt>
      <trkpt lat="45.09131" lon="2.98818">
        <ele>956</ele>
        <time>2025-06-07T01:19:34Z</time>
      </trkpt>
      <trkpt lat="45.09123" lon="2.98855">
        <ele>955</ele>
        <time>2025-06-07T01:19:40Z</time>
      </trkpt>
      <trkpt lat="45.09107" lon="2.9967">
        <ele>948</ele>
        <time>2025-06-07T01:21:55Z</time>
      </trkpt>
      <trkpt lat="45.09101" lon="2.99732">
        <ele>948</ele>
        <time>2025-06-07T01:22:05Z</time>
      </trkpt>
      <trkpt lat="45.09079" lon="2.99772">
        <ele>949</ele>
        <time>2025-06-07T01:22:13Z</time>
      </trkpt>
      <trkpt lat="45.0896" lon="2.99907">
        <ele>952</ele>
        <time>2025-06-07T01:22:49Z</time>
      </trkpt>
      <trkpt lat="45.08745" lon="3.00166">
        <ele>942</ele>
        <time>2025-06-07T01:23:55Z</time>
      </trkpt>
      <trkpt lat="45.08711" lon="3.00216">
        <ele>942</ele>
        <time>2025-06-07T01:24:06Z</time>
      </trkpt>
      <trkpt lat="45.08707" lon="3.00246">
        <ele>941</ele>
        <time>2025-06-07T01:24:11Z</time>
      </trkpt>
      <trkpt lat="45.08718" lon="3.00382">
        <ele>940</ele>
        <time>2025-06-07T01:24:34Z</time>
      </trkpt>
      <trkpt lat="45.08715" lon="3.00434">
        <ele>940</ele>
        <time>2025-06-07T01:24:43Z</time>
      </trkpt>
      <trkpt lat="45.08686" lon="3.00535">
        <ele>940</ele>
        <time>2025-06-07T01:25:01Z</time>
      </trkpt>
      <trkpt lat="45.08553" lon="3.00961">
        <ele>939</ele>
        <time>2025-06-07T01:26:17Z</time>
      </trkpt>
      <trkpt lat="45.08513" lon="3.01041">
        <ele>940</ele>
        <time>2025-06-07T01:26:34Z</time>
      </trkpt>
      <trkpt lat="45.08502" lon="3.01082">
        <ele>939</ele>
        <time>2025-06-07T01:26:41Z</time>
      </trkpt>
      <trkpt lat="45.08483" lon="3.01125">
        <ele>938</ele>
        <time>2025-06-07T01:26:49Z</time>
      </trkpt>
      <trkpt lat="45.08482" lon="3.01142">
        <ele>938</ele>
        <time>2025-06-07T01:26:52Z</time>
      </trkpt>
      <trkpt lat="45.08484" lon="3.01156">
        <ele>937</ele>
        <time>2025-06-07T01:26:54Z</time>
      </trkpt>
      <trkpt lat="45.08462" lon="3.01152">
        <ele>938</ele>
        <time>2025-06-07T01:26:59Z</time>
      </trkpt>
      <trkpt lat="45.08436" lon="3.01166">
        <ele>938</ele>
        <time>2025-06-07T01:27:06Z</time>
      </trkpt>
      <trkpt lat="45.08419" lon="3.01184">
        <ele>938</ele>
        <time>2025-06-07T01:27:11Z</time>
      </trkpt>
      <trkpt lat="45.08407" lon="3.01214">
        <ele>938</ele>
        <time>2025-06-07T01:27:17Z</time>
      </trkpt>
      <trkpt lat="45.08392" lon="3.0124">
        <ele>939</ele>
        <time>2025-06-07T01:27:22Z</time>
      </trkpt>
      <trkpt lat="45.08386" lon="3.01272">
        <ele>939</ele>
        <time>2025-06-07T01:27:28Z</time>
      </trkpt>
      <trkpt lat="45.08369" lon="3.01304">
        <ele>940</ele>
        <time>2025-06-07T01:27:34Z</time>
      </trkpt>
      <trkpt lat="45.08365" lon="3.01332">
        <ele>940</ele>
        <time>2025-06-07T01:27:39Z</time>
      </trkpt>
      <trkpt lat="45.08322" lon="3.01394">
        <ele>943</ele>
        <time>2025-06-07T01:27:53Z</time>
      </trkpt>
      <trkpt lat="45.08289" lon="3.01423">
        <ele>943</ele>
        <time>2025-06-07T01:28:02Z</time>
      </trkpt>
      <trkpt lat="45.08273" lon="3.01454">
        <ele>943</ele>
        <time>2025-06-07T01:28:09Z</time>
      </trkpt>
      <trkpt lat="45.08328" lon="3.01561">
        <ele>940</ele>
        <time>2025-06-07T01:28:30Z</time>
      </trkpt>
      <trkpt lat="45.08325" lon="3.01628">
        <ele>941</ele>
        <time>2025-06-07T01:28:42Z</time>
      </trkpt>
      <trkpt lat="45.08309" lon="3.01696">
        <ele>943</ele>
        <time>2025-06-07T01:28:53Z</time>
      </trkpt>
      <trkpt lat="45.08274" lon="3.01715">
        <ele>946</ele>
        <time>2025-06-07T01:29:02Z</time>
      </trkpt>
      <trkpt lat="45.08241" lon="3.01738">
        <ele>948</ele>
        <time>2025-06-07T01:29:11Z</time>
      </trkpt>
      <trkpt lat="45.08205" lon="3.01925">
        <ele>960</ele>
        <time>2025-06-07T01:29:43Z</time>
      </trkpt>
      <trkpt lat="45.08193" lon="3.02018">
        <ele>961</ele>
        <time>2025-06-07T01:29:58Z</time>
      </trkpt>
      <trkpt lat="45.08153" lon="3.02139">
        <ele>964</ele>
        <time>2025-06-07T01:30:20Z</time>
      </trkpt>
      <trkpt lat="45.08098" lon="3.02335">
        <ele>965</ele>
        <time>2025-06-07T01:30:55Z</time>
      </trkpt>
      <trkpt lat="45.08047" lon="3.02493">
        <ele>968</ele>
        <time>2025-06-07T01:31:24Z</time>
      </trkpt>
      <trkpt lat="45.0797" lon="3.02704">
        <ele>967</ele>
        <time>2025-06-07T01:32:03Z</time>
      </trkpt>
      <trkpt lat="45.07905" lon="3.0287">
        <ele>968</ele>
        <time>2025-06-07T01:32:34Z</time>
      </trkpt>
      <trkpt lat="45.07842" lon="3.02949">
        <ele>968</ele>
        <time>2025-06-07T01:32:54Z</time>
      </trkpt>
      <trkpt lat="45.07807" lon="3.0298">
        <ele>968</ele>
        <time>2025-06-07T01:33:03Z</time>
      </trkpt>
      <trkpt lat="45.0774" lon="3.03051">
        <ele>969</ele>
        <time>2025-06-07T01:33:23Z</time>
      </trkpt>
      <trkpt lat="45.07722" lon="3.03085">
        <ele>969</ele>
        <time>2025-06-07T01:33:30Z</time>
      </trkpt>
      <trkpt lat="45.077" lon="3.03101">
        <ele>969</ele>
        <time>2025-06-07T01:33:36Z</time>
      </trkpt>
      <trkpt lat="45.07672" lon="3.03137">
        <ele>969</ele>
        <time>2025-06-07T01:33:45Z</time>
      </trkpt>
      <trkpt lat="45.07637" lon="3.0319">
        <ele>969</ele>
        <time>2025-06-07T01:33:57Z</time>
      </trkpt>
      <trkpt lat="45.07605" lon="3.0321">
        <ele>969</ele>
        <time>2025-06-07T01:34:05Z</time>
      </trkpt>
      <trkpt lat="45.07584" lon="3.03237">
        <ele>970</ele>
        <time>2025-06-07T01:34:11Z</time>
      </trkpt>
      <trkpt lat="45.07539" lon="3.03239">
        <ele>969</ele>
        <time>2025-06-07T01:34:22Z</time>
      </trkpt>
      <trkpt lat="45.07493" lon="3.03253">
        <ele>968</ele>
        <time>2025-06-07T01:34:33Z</time>
      </trkpt>
      <trkpt lat="45.07485" lon="3.03061">
        <ele>967</ele>
        <time>2025-06-07T01:35:05Z</time>
      </trkpt>
      <trkpt lat="45.07476" lon="3.03002">
        <ele>967</ele>
        <time>2025-06-07T01:35:15Z</time>
      </trkpt>
      <trkpt lat="45.07459" lon="3.0293">
        <ele>968</ele>
        <time>2025-06-07T01:35:27Z</time>
      </trkpt>
      <trkpt lat="45.07435" lon="3.02852">
        <ele>967</ele>
        <time>2025-06-07T01:35:41Z</time>
      </trkpt>
      <trkpt lat="45.07434" lon="3.02786">
        <ele>967</ele>
        <time>2025-06-07T01:35:52Z</time>
      </trkpt>
      <trkpt lat="45.07428" lon="3.02717">
        <ele>968</ele>
        <time>2025-06-07T01:36:03Z</time>
      </trkpt>
      <trkpt lat="45.07422" lon="3.02599">
        <ele>967</ele>
        <time>2025-06-07T01:36:23Z</time>
      </trkpt>
      <trkpt lat="45.07422" lon="3.02539">
        <ele>968</ele>
        <time>2025-06-07T01:36:33Z</time>
      </trkpt>
      <trkpt lat="45.07397" lon="3.02254">
        <ele>971</ele>
        <time>2025-06-07T01:37:20Z</time>
      </trkpt>
      <trkpt lat="45.07358" lon="3.02047">
        <ele>970</ele>
        <time>2025-06-07T01:37:56Z</time>
      </trkpt>
      <trkpt lat="45.07328" lon="3.0197">
        <ele>969</ele>
        <time>2025-06-07T01:38:10Z</time>
      </trkpt>
      <trkpt lat="45.07303" lon="3.01914">
        <ele>968</ele>
        <time>2025-06-07T01:38:21Z</time>
      </trkpt>
      <trkpt lat="45.07287" lon="3.01886">
        <ele>968</ele>
        <time>2025-06-07T01:38:27Z</time>
      </trkpt>
      <trkpt lat="45.07264" lon="3.01862">
        <ele>967</ele>
        <time>2025-06-07T01:38:34Z</time>
      </trkpt>
      <trkpt lat="45.07223" lon="3.01836">
        <ele>968</ele>
        <time>2025-06-07T01:38:44Z</time>
      </trkpt>
      <trkpt lat="45.07181" lon="3.01815">
        <ele>967</ele>
        <time>2025-06-07T01:38:55Z</time>
      </trkpt>
      <trkpt lat="45.07174" lon="3.01818">
        <ele>967</ele>
        <time>2025-06-07T01:38:56Z</time>
      </trkpt>
      <trkpt lat="45.07165" lon="3.01937">
        <ele>967</ele>
        <time>2025-06-07T01:39:16Z</time>
      </trkpt>
      <trkpt lat="45.07146" lon="3.01998">
        <ele>966</ele>
        <time>2025-06-07T01:39:27Z</time>
      </trkpt>
      <trkpt lat="45.07169" lon="3.02104">
        <ele>965</ele>
        <time>2025-06-07T01:39:45Z</time>
      </trkpt>
      <trkpt lat="45.07184" lon="3.02147">
        <ele>966</ele>
        <time>2025-06-07T01:39:53Z</time>
      </trkpt>
      <trkpt lat="45.07161" lon="3.02296">
        <ele>963</ele>
        <time>2025-06-07T01:40:18Z</time>
      </trkpt>
      <trkpt lat="45.07145" lon="3.02423">
        <ele>963</ele>
        <time>2025-06-07T01:40:40Z</time>
      </trkpt>
      <trkpt lat="45.07143" lon="3.02554">
        <ele>959</ele>
        <time>2025-06-07T01:41:01Z</time>
      </trkpt>
      <trkpt lat="45.07154" lon="3.02612">
        <ele>956</ele>
        <time>2025-06-07T01:41:11Z</time>
      </trkpt>
      <trkpt lat="45.07114" lon="3.02674">
        <ele>955</ele>
        <time>2025-06-07T01:41:25Z</time>
      </trkpt>
      <trkpt lat="45.07121" lon="3.02809">
        <ele>951</ele>
        <time>2025-06-07T01:41:47Z</time>
      </trkpt>
      <trkpt lat="45.07165" lon="3.0285">
        <ele>945</ele>
        <time>2025-06-07T01:42:00Z</time>
      </trkpt>
      <trkpt lat="45.07225" lon="3.03229">
        <ele>926</ele>
        <time>2025-06-07T01:43:04Z</time>
      </trkpt>
      <trkpt lat="45.07232" lon="3.03261">
        <ele>925</ele>
        <time>2025-06-07T01:43:09Z</time>
      </trkpt>
      <trkpt lat="45.07233" lon="3.03286">
        <ele>923</ele>
        <time>2025-06-07T01:43:13Z</time>
      </trkpt>
      <trkpt lat="45.07219" lon="3.03297">
        <ele>923</ele>
        <time>2025-06-07T01:43:17Z</time>
      </trkpt>
      <trkpt lat="45.07186" lon="3.03342">
        <ele>920</ele>
        <time>2025-06-07T01:43:28Z</time>
      </trkpt>
      <trkpt lat="45.07184" lon="3.03357">
        <ele>919</ele>
        <time>2025-06-07T01:43:30Z</time>
      </trkpt>
      <trkpt lat="45.07174" lon="3.03377">
        <ele>917</ele>
        <time>2025-06-07T01:43:34Z</time>
      </trkpt>
      <trkpt lat="45.07145" lon="3.03409">
        <ele>915</ele>
        <time>2025-06-07T01:43:43Z</time>
      </trkpt>
      <trkpt lat="45.07126" lon="3.03409">
        <ele>916</ele>
        <time>2025-06-07T01:43:47Z</time>
      </trkpt>
      <trkpt lat="45.07109" lon="3.03429">
        <ele>915</ele>
        <time>2025-06-07T01:43:52Z</time>
      </trkpt>
      <trkpt lat="45.07091" lon="3.03465">
        <ele>912</ele>
        <time>2025-06-07T01:44:00Z</time>
      </trkpt>
      <trkpt lat="45.07073" lon="3.03511">
        <ele>909</ele>
        <time>2025-06-07T01:44:08Z</time>
      </trkpt>
      <trkpt lat="45.07077" lon="3.03539">
        <ele>905</ele>
        <time>2025-06-07T01:44:13Z</time>
      </trkpt>
      <trkpt lat="45.07062" lon="3.03593">
        <ele>902</ele>
        <time>2025-06-07T01:44:23Z</time>
      </trkpt>
      <trkpt lat="45.07036" lon="3.03654">
        <ele>897</ele>
        <time>2025-06-07T01:44:34Z</time>
      </trkpt>
      <trkpt lat="45.07028" lon="3.0369">
        <ele>893</ele>
        <time>2025-06-07T01:44:41Z</time>
      </trkpt>
      <trkpt lat="45.07014" lon="3.03706">
        <ele>890</ele>
        <time>2025-06-07T01:44:45Z</time>
      </trkpt>
      <trkpt lat="45.07015" lon="3.03713">
        <ele>889</ele>
        <time>2025-06-07T01:44:46Z</time>
      </trkpt>
      <trkpt lat="45.07033" lon="3.03735">
        <ele>889</ele>
        <time>2025-06-07T01:44:52Z</time>
      </trkpt>
      <trkpt lat="45.07036" lon="3.03751">
        <ele>888</ele>
        <time>2025-06-07T01:44:54Z</time>
      </trkpt>
      <trkpt lat="45.0701" lon="3.03836">
        <ele>878</ele>
        <time>2025-06-07T01:45:10Z</time>
      </trkpt>
      <trkpt lat="45.07007" lon="3.03868">
        <ele>875</ele>
        <time>2025-06-07T01:45:15Z</time>
      </trkpt>
      <trkpt lat="45.07011" lon="3.03945">
        <ele>868</ele>
        <time>2025-06-07T01:45:28Z</time>
      </trkpt>
      <trkpt lat="45.07019" lon="3.03981">
        <ele>867</ele>
        <time>2025-06-07T01:45:34Z</time>
      </trkpt>
      <trkpt lat="45.07014" lon="3.0401">
        <ele>864</ele>
        <time>2025-06-07T01:45:39Z</time>
      </trkpt>
      <trkpt lat="45.06994" lon="3.0404">
        <ele>858</ele>
        <time>2025-06-07T01:45:46Z</time>
      </trkpt>
      <trkpt lat="45.06943" lon="3.03995">
        <ele>854</ele>
        <time>2025-06-07T01:46:00Z</time>
      </trkpt>
      <trkpt lat="45.06922" lon="3.03989">
        <ele>853</ele>
        <time>2025-06-07T01:46:05Z</time>
      </trkpt>
      <trkpt lat="45.06862" lon="3.04034">
        <ele>845</ele>
        <time>2025-06-07T01:46:21Z</time>
      </trkpt>
      <trkpt lat="45.06817" lon="3.04057">
        <ele>839</ele>
        <time>2025-06-07T01:46:32Z</time>
      </trkpt>
      <trkpt lat="45.06789" lon="3.04045">
        <ele>838</ele>
        <time>2025-06-07T01:46:39Z</time>
      </trkpt>
      <trkpt lat="45.0677" lon="3.04006">
        <ele>843</ele>
        <time>2025-06-07T01:46:46Z</time>
      </trkpt>
      <trkpt lat="45.06744" lon="3.03977">
        <ele>848</ele>
        <time>2025-06-07T01:46:54Z</time>
      </trkpt>
      <trkpt lat="45.06729" lon="3.03954">
        <ele>852</ele>
        <time>2025-06-07T01:46:59Z</time>
      </trkpt>
      <trkpt lat="45.06676" lon="3.03909">
        <ele>862</ele>
        <time>2025-06-07T01:47:14Z</time>
      </trkpt>
      <trkpt lat="45.06529" lon="3.03695">
        <ele>900</ele>
        <time>2025-06-07T01:48:03Z</time>
      </trkpt>
      <trkpt lat="45.06336" lon="3.03561">
        <ele>924</ele>
        <time>2025-06-07T01:48:53Z</time>
      </trkpt>
      <trkpt lat="45.06235" lon="3.03481">
        <ele>922</ele>
        <time>2025-06-07T01:49:20Z</time>
      </trkpt>
      <trkpt lat="45.06161" lon="3.03398">
        <ele>923</ele>
        <time>2025-06-07T01:49:42Z</time>
      </trkpt>
      <trkpt lat="45.06137" lon="3.0339">
        <ele>923</ele>
        <time>2025-06-07T01:49:48Z</time>
      </trkpt>
      <trkpt lat="45.06071" lon="3.03357">
        <ele>924</ele>
        <time>2025-06-07T01:50:04Z</time>
      </trkpt>
      <trkpt lat="45.05993" lon="3.03328">
        <ele>925</ele>
        <time>2025-06-07T01:50:23Z</time>
      </trkpt>
      <trkpt lat="45.05978" lon="3.03342">
        <ele>925</ele>
        <time>2025-06-07T01:50:27Z</time>
      </trkpt>
      <trkpt lat="45.05968" lon="3.03368">
        <ele>924</ele>
        <time>2025-06-07T01:50:32Z</time>
      </trkpt>
      <trkpt lat="45.05959" lon="3.03416">
        <ele>922</ele>
        <time>2025-06-07T01:50:40Z</time>
      </trkpt>
      <trkpt lat="45.05919" lon="3.0349">
        <ele>921</ele>
        <time>2025-06-07T01:50:56Z</time>
      </trkpt>
      <trkpt lat="45.05905" lon="3.03538">
        <ele>916</ele>
        <time>2025-06-07T01:51:04Z</time>
      </trkpt>
      <trkpt lat="45.05872" lon="3.03592">
        <ele>913</ele>
        <time>2025-06-07T01:51:16Z</time>
      </trkpt>
      <trkpt lat="45.05855" lon="3.03599">
        <ele>915</ele>
        <time>2025-06-07T01:51:20Z</time>
      </trkpt>
      <trkpt lat="45.05823" lon="3.03662">
        <ele>913</ele>
        <time>2025-06-07T01:51:33Z</time>
      </trkpt>
      <trkpt lat="45.05809" lon="3.03695">
        <ele>911</ele>
        <time>2025-06-07T01:51:39Z</time>
      </trkpt>
      <trkpt lat="45.05786" lon="3.03724">
        <ele>909</ele>
        <time>2025-06-07T01:51:47Z</time>
      </trkpt>
      <trkpt lat="45.05756" lon="3.03749">
        <ele>908</ele>
        <time>2025-06-07T01:51:55Z</time>
      </trkpt>
      <trkpt lat="45.05765" lon="3.0381">
        <ele>904</ele>
        <time>2025-06-07T01:52:05Z</time>
      </trkpt>
      <trkpt lat="45.05762" lon="3.03861">
        <ele>902</ele>
        <time>2025-06-07T01:52:13Z</time>
      </trkpt>
      <trkpt lat="45.05681" lon="3.04205">
        <ele>872</ele>
        <time>2025-06-07T01:53:13Z</time>
      </trkpt>
      <trkpt lat="45.05679" lon="3.04319">
        <ele>868</ele>
        <time>2025-06-07T01:53:32Z</time>
      </trkpt>
      <trkpt lat="45.05656" lon="3.04432">
        <ele>854</ele>
        <time>2025-06-07T01:53:51Z</time>
      </trkpt>
      <trkpt lat="45.05672" lon="3.04465">
        <ele>852</ele>
        <time>2025-06-07T01:53:58Z</time>
      </trkpt>
      <trkpt lat="45.05669" lon="3.04481">
        <ele>850</ele>
        <time>2025-06-07T01:54:01Z</time>
      </trkpt>
      <trkpt lat="45.05651" lon="3.04475">
        <ele>848</ele>
        <time>2025-06-07T01:54:05Z</time>
      </trkpt>
      <trkpt lat="45.05647" lon="3.04482">
        <ele>846</ele>
        <time>2025-06-07T01:54:07Z</time>
      </trkpt>
      <trkpt lat="45.05736" lon="3.04633">
        <ele>837</ele>
        <time>2025-06-07T01:54:39Z</time>
      </trkpt>
      <trkpt lat="45.05725" lon="3.04653">
        <ele>834</ele>
        <time>2025-06-07T01:54:43Z</time>
      </trkpt>
      <trkpt lat="45.05685" lon="3.04646">
        <ele>833</ele>
        <time>2025-06-07T01:54:53Z</time>
      </trkpt>
      <trkpt lat="45.0566" lon="3.04682">
        <ele>830</ele>
        <time>2025-06-07T01:55:01Z</time>
      </trkpt>
      <trkpt lat="45.05655" lon="3.04742">
        <ele>826</ele>
        <time>2025-06-07T01:55:11Z</time>
      </trkpt>
      <trkpt lat="45.05674" lon="3.04852">
        <ele>821</ele>
        <time>2025-06-07T01:55:30Z</time>
      </trkpt>
      <trkpt lat="45.05685" lon="3.04956">
        <ele>814</ele>
        <time>2025-06-07T01:55:47Z</time>
      </trkpt>
      <trkpt lat="45.0567" lon="3.05032">
        <ele>811</ele>
        <time>2025-06-07T01:56:00Z</time>
      </trkpt>
      <trkpt lat="45.05655" lon="3.05146">
        <ele>807</ele>
        <time>2025-06-07T01:56:19Z</time>
      </trkpt>
      <trkpt lat="45.05656" lon="3.05181">
        <ele>806</ele>
        <time>2025-06-07T01:56:25Z</time>
      </trkpt>
      <trkpt lat="45.05662" lon="3.05227">
        <ele>804</ele>
        <time>2025-06-07T01:56:33Z</time>
      </trkpt>
      <trkpt lat="45.0567" lon="3.0525">
        <ele>803</ele>
        <time>2025-06-07T01:56:37Z</time>
      </trkpt>
      <trkpt lat="45.05689" lon="3.05277">
        <ele>803</ele>
        <time>2025-06-07T01:56:43Z</time>
      </trkpt>
      <trkpt lat="45.05745" lon="3.05335">
        <ele>803</ele>
        <time>2025-06-07T01:56:59Z</time>
      </trkpt>
      <trkpt lat="45.05744" lon="3.05344">
        <ele>803</ele>
        <time>2025-06-07T01:57:01Z</time>
      </trkpt>
      <trkpt lat="45.05725" lon="3.05403">
        <ele>803</ele>
        <time>2025-06-07T01:57:12Z</time>
      </trkpt>
      <trkpt lat="45.05729" lon="3.05447">
        <ele>803</ele>
        <time>2025-06-07T01:57:19Z</time>
      </trkpt>
      <trkpt lat="45.05723" lon="3.05472">
        <ele>803</ele>
        <time>2025-06-07T01:57:23Z</time>
      </trkpt>
      <trkpt lat="45.05639" lon="3.0562">
        <ele>801</ele>
        <time>2025-06-07T01:57:55Z</time>
      </trkpt>
      <trkpt lat="45.0566" lon="3.05689">
        <ele>800</ele>
        <time>2025-06-07T01:58:07Z</time>
      </trkpt>
      <trkpt lat="45.05671" lon="3.05735">
        <ele>799</ele>
        <time>2025-06-07T01:58:15Z</time>
      </trkpt>
      <trkpt lat="45.05681" lon="3.05782">
        <ele>799</ele>
        <time>2025-06-07T01:58:23Z</time>
      </trkpt>
      <trkpt lat="45.05685" lon="3.05825">
        <ele>799</ele>
        <time>2025-06-07T01:58:30Z</time>
      </trkpt>
      <trkpt lat="45.057" lon="3.05869">
        <ele>799</ele>
        <time>2025-06-07T01:58:38Z</time>
      </trkpt>
      <trkpt lat="45.05729" lon="3.05999">
        <ele>799</ele>
        <time>2025-06-07T01:59:01Z</time>
      </trkpt>
      <trkpt lat="45.05734" lon="3.06045">
        <ele>800</ele>
        <time>2025-06-07T01:59:08Z</time>
      </trkpt>
      <trkpt lat="45.05832" lon="3.05926">
        <ele>807</ele>
        <time>2025-06-07T01:59:39Z</time>
      </trkpt>
      <trkpt lat="45.05846" lon="3.05887">
        <ele>810</ele>
        <time>2025-06-07T01:59:46Z</time>
      </trkpt>
      <trkpt lat="45.05847" lon="3.05817">
        <ele>810</ele>
        <time>2025-06-07T01:59:57Z</time>
      </trkpt>
      <trkpt lat="45.05852" lon="3.05766">
        <ele>812</ele>
        <time>2025-06-07T02:00:06Z</time>
      </trkpt>
      <trkpt lat="45.05855" lon="3.05766">
        <ele>813</ele>
        <time>2025-06-07T02:00:07Z</time>
      </trkpt>
      <trkpt lat="45.05872" lon="3.05796">
        <ele>817</ele>
        <time>2025-06-07T02:00:13Z</time>
      </trkpt>
      <trkpt lat="45.05895" lon="3.05885">
        <ele>823</ele>
        <time>2025-06-07T02:00:28Z</time>
      </trkpt>
      <trkpt lat="45.05929" lon="3.05974">
        <ele>833</ele>
        <time>2025-06-07T02:00:45Z</time>
      </trkpt>
      <trkpt lat="45.05925" lon="3.06007">
        <ele>833</ele>
        <time>2025-06-07T02:00:51Z</time>
      </trkpt>
      <trkpt lat="45.05926" lon="3.06022">
        <ele>835</ele>
        <time>2025-06-07T02:00:53Z</time>
      </trkpt>
      <trkpt lat="45.05952" lon="3.06074">
        <ele>844</ele>
        <time>2025-06-07T02:01:04Z</time>
      </trkpt>
      <trkpt lat="45.0595" lon="3.06096">
        <ele>844</ele>
        <time>2025-06-07T02:01:07Z</time>
      </trkpt>
      <trkpt lat="45.05944" lon="3.06116">
        <ele>843</ele>
        <time>2025-06-07T02:01:11Z</time>
      </trkpt>
      <trkpt lat="45.05946" lon="3.06138">
        <ele>844</ele>
        <time>2025-06-07T02:01:15Z</time>
      </trkpt>
      <trkpt lat="45.05964" lon="3.06154">
        <ele>848</ele>
        <time>2025-06-07T02:01:20Z</time>
      </trkpt>
      <trkpt lat="45.05972" lon="3.06198">
        <ele>850</ele>
        <time>2025-06-07T02:01:27Z</time>
      </trkpt>
      <trkpt lat="45.05984" lon="3.06226">
        <ele>853</ele>
        <time>2025-06-07T02:01:32Z</time>
      </trkpt>
      <trkpt lat="45.05989" lon="3.06459">
        <ele>851</ele>
        <time>2025-06-07T02:02:11Z</time>
      </trkpt>
      <trkpt lat="45.05921" lon="3.06747">
        <ele>835</ele>
        <time>2025-06-07T02:03:01Z</time>
      </trkpt>
      <trkpt lat="45.05921" lon="3.06817">
        <ele>835</ele>
        <time>2025-06-07T02:03:13Z</time>
      </trkpt>
      <trkpt lat="45.05873" lon="3.06877">
        <ele>823</ele>
        <time>2025-06-07T02:03:28Z</time>
      </trkpt>
      <trkpt lat="45.05786" lon="3.07174">
        <ele>811</ele>
        <time>2025-06-07T02:04:21Z</time>
      </trkpt>
      <trkpt lat="45.05783" lon="3.07314">
        <ele>823</ele>
        <time>2025-06-07T02:04:44Z</time>
      </trkpt>
      <trkpt lat="45.05757" lon="3.07396">
        <ele>830</ele>
        <time>2025-06-07T02:04:58Z</time>
      </trkpt>
      <trkpt lat="45.05754" lon="3.07488">
        <ele>835</ele>
        <time>2025-06-07T02:05:14Z</time>
      </trkpt>
      <trkpt lat="45.05466" lon="3.07576">
        <ele>832</ele>
        <time>2025-06-07T02:06:22Z</time>
      </trkpt>
      <trkpt lat="45.05261" lon="3.07618">
        <ele>821</ele>
        <time>2025-06-07T02:07:11Z</time>
      </trkpt>
      <trkpt lat="45.05127" lon="3.07794">
        <ele>818</ele>
        <time>2025-06-07T02:07:54Z</time>
      </trkpt>
      <trkpt lat="45.05088" lon="3.07885">
        <ele>812</ele>
        <time>2025-06-07T02:08:11Z</time>
      </trkpt>
      <trkpt lat="45.04958" lon="3.07915">
        <ele>811</ele>
        <time>2025-06-07T02:08:42Z</time>
      </trkpt>
      <trkpt lat="45.04844" lon="3.08031">
        <ele>801</ele>
        <time>2025-06-07T02:09:15Z</time>
      </trkpt>
      <trkpt lat="45.04866" lon="3.08104">
        <ele>795</ele>
        <time>2025-06-07T02:09:28Z</time>
      </trkpt>
      <trkpt lat="45.04852" lon="3.08138">
        <ele>793</ele>
        <time>2025-06-07T02:09:34Z</time>
      </trkpt>
      <trkpt lat="45.04804" lon="3.08276">
        <ele>796</ele>
        <time>2025-06-07T02:10:00Z</time>
      </trkpt>
      <trkpt lat="45.04801" lon="3.08377">
        <ele>798</ele>
        <time>2025-06-07T02:10:16Z</time>
      </trkpt>
      <trkpt lat="45.04769" lon="3.08427">
        <ele>800</ele>
        <time>2025-06-07T02:10:27Z</time>
      </trkpt>
      <trkpt lat="45.04726" lon="3.08463">
        <ele>801</ele>
        <time>2025-06-07T02:10:39Z</time>
      </trkpt>
      <trkpt lat="45.04681" lon="3.08491">
        <ele>803</ele>
        <time>2025-06-07T02:10:51Z</time>
      </trkpt>
      <trkpt lat="45.04633" lon="3.08505">
        <ele>806</ele>
        <time>2025-06-07T02:11:02Z</time>
      </trkpt>
      <trkpt lat="45.0459" lon="3.08501">
        <ele>810</ele>
        <time>2025-06-07T02:11:12Z</time>
      </trkpt>
      <trkpt lat="45.04536" lon="3.08478">
        <ele>815</ele>
        <time>2025-06-07T02:11:25Z</time>
      </trkpt>
      <trkpt lat="45.04466" lon="3.0841">
        <ele>821</ele>
        <time>2025-06-07T02:11:45Z</time>
      </trkpt>
      <trkpt lat="45.04402" lon="3.08389">
        <ele>824</ele>
        <time>2025-06-07T02:12:00Z</time>
      </trkpt>
      <trkpt lat="45.04358" lon="3.0837">
        <ele>827</ele>
        <time>2025-06-07T02:12:11Z</time>
      </trkpt>
      <trkpt lat="45.04325" lon="3.08339">
        <ele>829</ele>
        <time>2025-06-07T02:12:20Z</time>
      </trkpt>
      <trkpt lat="45.04272" lon="3.08256">
        <ele>832</ele>
        <time>2025-06-07T02:12:39Z</time>
      </trkpt>
      <trkpt lat="45.04146" lon="3.08121">
        <ele>840</ele>
        <time>2025-06-07T02:13:16Z</time>
      </trkpt>
      <trkpt lat="45.04109" lon="3.08074">
        <ele>841</ele>
        <time>2025-06-07T02:13:27Z</time>
      </trkpt>
      <trkpt lat="45.04096" lon="3.08048">
        <ele>842</ele>
        <time>2025-06-07T02:13:33Z</time>
      </trkpt>
      <trkpt lat="45.04087" lon="3.07999">
        <ele>844</ele>
        <time>2025-06-07T02:13:41Z</time>
      </trkpt>
      <trkpt lat="45.04" lon="3.07908">
        <ele>852</ele>
        <time>2025-06-07T02:14:06Z</time>
      </trkpt>
      <trkpt lat="45.03981" lon="3.07857">
        <ele>857</ele>
        <time>2025-06-07T02:14:16Z</time>
      </trkpt>
      <trkpt lat="45.03978" lon="3.07834">
        <ele>859</ele>
        <time>2025-06-07T02:14:20Z</time>
      </trkpt>
      <trkpt lat="45.03978" lon="3.07806">
        <ele>861</ele>
        <time>2025-06-07T02:14:24Z</time>
      </trkpt>
      <trkpt lat="45.03968" lon="3.07774">
        <ele>864</ele>
        <time>2025-06-07T02:14:30Z</time>
      </trkpt>
      <trkpt lat="45.03938" lon="3.07748">
        <ele>868</ele>
        <time>2025-06-07T02:14:38Z</time>
      </trkpt>
      <trkpt lat="45.03928" lon="3.07714">
        <ele>872</ele>
        <time>2025-06-07T02:14:44Z</time>
      </trkpt>
      <trkpt lat="45.03887" lon="3.07739">
        <ele>874</ele>
        <time>2025-06-07T02:14:55Z</time>
      </trkpt>
      <trkpt lat="45.03851" lon="3.07768">
        <ele>878</ele>
        <time>2025-06-07T02:15:04Z</time>
      </trkpt>
      <trkpt lat="45.03836" lon="3.07793">
        <ele>880</ele>
        <time>2025-06-07T02:15:10Z</time>
      </trkpt>
      <trkpt lat="45.03831" lon="3.07826">
        <ele>879</ele>
        <time>2025-06-07T02:15:15Z</time>
      </trkpt>
      <trkpt lat="45.03831" lon="3.07865">
        <ele>877</ele>
        <time>2025-06-07T02:15:22Z</time>
      </trkpt>
      <trkpt lat="45.03734" lon="3.08029">
        <ele>876</ele>
        <time>2025-06-07T02:15:57Z</time>
      </trkpt>
      <trkpt lat="45.03673" lon="3.08106">
        <ele>879</ele>
        <time>2025-06-07T02:16:16Z</time>
      </trkpt>
      <trkpt lat="45.03646" lon="3.08131">
        <ele>882</ele>
        <time>2025-06-07T02:16:24Z</time>
      </trkpt>
      <trkpt lat="45.03627" lon="3.08203">
        <ele>884</ele>
        <time>2025-06-07T02:16:36Z</time>
      </trkpt>
      <trkpt lat="45.03605" lon="3.08262">
        <ele>886</ele>
        <time>2025-06-07T02:16:47Z</time>
      </trkpt>
      <trkpt lat="45.03571" lon="3.08342">
        <ele>889</ele>
        <time>2025-06-07T02:17:03Z</time>
      </trkpt>
      <trkpt lat="45.03485" lon="3.08449">
        <ele>894</ele>
        <time>2025-06-07T02:17:30Z</time>
      </trkpt>
      <trkpt lat="45.03456" lon="3.08502">
        <ele>892</ele>
        <time>2025-06-07T02:17:41Z</time>
      </trkpt>
      <trkpt lat="45.0344" lon="3.0856">
        <ele>889</ele>
        <time>2025-06-07T02:17:51Z</time>
      </trkpt>
      <trkpt lat="45.03442" lon="3.0861">
        <ele>888</ele>
        <time>2025-06-07T02:17:59Z</time>
      </trkpt>
      <trkpt lat="45.03452" lon="3.08675">
        <ele>886</ele>
        <time>2025-06-07T02:18:10Z</time>
      </trkpt>
      <trkpt lat="45.03474" lon="3.08759">
        <ele>881</ele>
        <time>2025-06-07T02:18:25Z</time>
      </trkpt>
      <trkpt lat="45.03461" lon="3.08811">
        <ele>879</ele>
        <time>2025-06-07T02:18:34Z</time>
      </trkpt>
      <trkpt lat="45.03451" lon="3.08869">
        <ele>879</ele>
        <time>2025-06-07T02:18:44Z</time>
      </trkpt>
      <trkpt lat="45.03461" lon="3.08915">
        <ele>879</ele>
        <time>2025-06-07T02:18:52Z</time>
      </trkpt>
      <trkpt lat="45.03394" lon="3.09257">
        <ele>887</ele>
        <time>2025-06-07T02:19:50Z</time>
      </trkpt>
      <trkpt lat="45.03385" lon="3.0932">
        <ele>888</ele>
        <time>2025-06-07T02:20:01Z</time>
      </trkpt>
      <trkpt lat="45.03388" lon="3.09329">
        <ele>888</ele>
        <time>2025-06-07T02:20:03Z</time>
      </trkpt>
      <trkpt lat="45.03371" lon="3.0946">
        <ele>886</ele>
        <time>2025-06-07T02:20:25Z</time>
      </trkpt>
      <trkpt lat="45.03359" lon="3.09488">
        <ele>885</ele>
        <time>2025-06-07T02:20:30Z</time>
      </trkpt>
      <trkpt lat="45.03362" lon="3.09535">
        <ele>879</ele>
        <time>2025-06-07T02:20:38Z</time>
      </trkpt>
      <trkpt lat="45.03355" lon="3.09585">
        <ele>873</ele>
        <time>2025-06-07T02:20:46Z</time>
      </trkpt>
      <trkpt lat="45.03335" lon="3.09619">
        <ele>862</ele>
        <time>2025-06-07T02:20:54Z</time>
      </trkpt>
      <trkpt lat="45.0332" lon="3.09608">
        <ele>864</ele>
        <time>2025-06-07T02:20:58Z</time>
      </trkpt>
      <trkpt lat="45.033" lon="3.09573">
        <ele>868</ele>
        <time>2025-06-07T02:21:05Z</time>
      </trkpt>
      <trkpt lat="45.03267" lon="3.09525">
        <ele>862</ele>
        <time>2025-06-07T02:21:16Z</time>
      </trkpt>
      <trkpt lat="45.03253" lon="3.09514">
        <ele>860</ele>
        <time>2025-06-07T02:21:20Z</time>
      </trkpt>
      <trkpt lat="45.03238" lon="3.09485">
        <ele>858</ele>
        <time>2025-06-07T02:21:26Z</time>
      </trkpt>
      <trkpt lat="45.03188" lon="3.0942">
        <ele>845</ele>
        <time>2025-06-07T02:21:42Z</time>
      </trkpt>
      <trkpt lat="45.03179" lon="3.09392">
        <ele>842</ele>
        <time>2025-06-07T02:21:47Z</time>
      </trkpt>
      <trkpt lat="45.03172" lon="3.09413">
        <ele>838</ele>
        <time>2025-06-07T02:21:50Z</time>
      </trkpt>
      <trkpt lat="45.03169" lon="3.09439">
        <ele>834</ele>
        <time>2025-06-07T02:21:55Z</time>
      </trkpt>
      <trkpt lat="45.03177" lon="3.09496">
        <ele>831</ele>
        <time>2025-06-07T02:22:04Z</time>
      </trkpt>
      <trkpt lat="45.0318" lon="3.09594">
        <ele>816</ele>
        <time>2025-06-07T02:22:21Z</time>
      </trkpt>
      <trkpt lat="45.03197" lon="3.09651">
        <ele>810</ele>
        <time>2025-06-07T02:22:31Z</time>
      </trkpt>
      <trkpt lat="45.03222" lon="3.09712">
        <ele>805</ele>
        <time>2025-06-07T02:22:42Z</time>
      </trkpt>
      <trkpt lat="45.03246" lon="3.09792">
        <ele>795</ele>
        <time>2025-06-07T02:22:57Z</time>
      </trkpt>
      <trkpt lat="45.03248" lon="3.09814">
        <ele>791</ele>
        <time>2025-06-07T02:23:00Z</time>
      </trkpt>
      <trkpt lat="45.03252" lon="3.09826">
        <ele>789</ele>
        <time>2025-06-07T02:23:03Z</time>
      </trkpt>
      <trkpt lat="45.03283" lon="3.09878">
        <ele>783</ele>
        <time>2025-06-07T02:23:14Z</time>
      </trkpt>
      <trkpt lat="45.0328" lon="3.09903">
        <ele>781</ele>
        <time>2025-06-07T02:23:18Z</time>
      </trkpt>
      <trkpt lat="45.03265" lon="3.0995">
        <ele>779</ele>
        <time>2025-06-07T02:23:27Z</time>
      </trkpt>
      <trkpt lat="45.03255" lon="3.09998">
        <ele>779</ele>
        <time>2025-06-07T02:23:35Z</time>
      </trkpt>
      <trkpt lat="45.03245" lon="3.10006">
        <ele>780</ele>
        <time>2025-06-07T02:23:37Z</time>
      </trkpt>
      <trkpt lat="45.0325" lon="3.1003">
        <ele>778</ele>
        <time>2025-06-07T02:23:42Z</time>
      </trkpt>
      <trkpt lat="45.03246" lon="3.10048">
        <ele>778</ele>
        <time>2025-06-07T02:23:45Z</time>
      </trkpt>
      <trkpt lat="45.03238" lon="3.1006">
        <ele>780</ele>
        <time>2025-06-07T02:23:47Z</time>
      </trkpt>
      <trkpt lat="45.03247" lon="3.10079">
        <ele>777</ele>
        <time>2025-06-07T02:23:51Z</time>
      </trkpt>
      <trkpt lat="45.03253" lon="3.10112">
        <ele>776</ele>
        <time>2025-06-07T02:23:57Z</time>
      </trkpt>
      <trkpt lat="45.0324" lon="3.10194">
        <ele>776</ele>
        <time>2025-06-07T02:24:11Z</time>
      </trkpt>
      <trkpt lat="45.03252" lon="3.10244">
        <ele>772</ele>
        <time>2025-06-07T02:24:19Z</time>
      </trkpt>
      <trkpt lat="45.03229" lon="3.10365">
        <ele>779</ele>
        <time>2025-06-07T02:24:40Z</time>
      </trkpt>
      <trkpt lat="45.03239" lon="3.10405">
        <ele>777</ele>
        <time>2025-06-07T02:24:47Z</time>
      </trkpt>
      <trkpt lat="45.03253" lon="3.10499">
        <ele>774</ele>
        <time>2025-06-07T02:25:03Z</time>
      </trkpt>
      <trkpt lat="45.03271" lon="3.10578">
        <ele>778</ele>
        <time>2025-06-07T02:25:17Z</time>
      </trkpt>
      <trkpt lat="45.03268" lon="3.10739">
        <ele>774</ele>
        <time>2025-06-07T02:25:43Z</time>
      </trkpt>
      <trkpt lat="45.03258" lon="3.10835">
        <ele>773</ele>
        <time>2025-06-07T02:25:59Z</time>
      </trkpt>
      <trkpt lat="45.03266" lon="3.10869">
        <ele>773</ele>
        <time>2025-06-07T02:26:05Z</time>
      </trkpt>
      <trkpt lat="45.03309" lon="3.10902">
        <ele>771</ele>
        <time>2025-06-07T02:26:17Z</time>
      </trkpt>
      <trkpt lat="45.03351" lon="3.10973">
        <ele>770</ele>
        <time>2025-06-07T02:26:32Z</time>
      </trkpt>
      <trkpt lat="45.03399" lon="3.10983">
        <ele>774</ele>
        <time>2025-06-07T02:26:43Z</time>
        <extensions>
          <visugpx:TrkExtension xmlns:visugpx="https://www.visugpx.com/editgpx/">
            <visugpx:node>3</visugpx:node>
            </visugpx:TrkExtension>
        </extensions>
      </trkpt>
    </trkseg>
  </trk>
</gpx>